     2              OBSERVATION DATA    GPS                 RINEX VERSION / TYPE
ASRINEXO V2.4.4 UX USGS 25-NOV-94 13:12                     PGM / RUN BY / DATE
                                                            COMMENT
Original Marker Name: m137 M_1377_1984_CGS                  COMMENT
Campaign Name: USGS Yucca Profile                           COMMENT
4-Character Station Name: M137                              COMMENT
6-Character Antenna Code: ASHL12                            COMMENT
Vertical Measurement Point: BBE                             COMMENT
Vertical Offset to Rinex Ref. Point: 0.0595                 COMMENT
Radial Measurement Point: EGP                               COMMENT
Radial Offset to Rinex Ref. Point: 0.1424                   COMMENT
Antenna Height from Field Measurement: 1.2190 m             COMMENT
Additional Antenna Identification Info.:                    COMMENT
Original Ashtech L1/L2 (700228ABC)                          COMMENT
Original XYZ: -2359239.0600 -4571226.6500 3760310.2900      COMMENT
New XYZ position is based on association with SCEC monument COMMENT
E1F4S4X7+0011. Position of that monument is believed to be  COMMENT
valid to within 1 m horizontally; vertical accuracy         COMMENT
should be no worse than 3-times this value.                 COMMENT
                                                            COMMENT
Revised Rinex header created by UCSD GPS archive for        COMMENT
GSAC on 08-Aug-2000 (2000:221) 00:03:29 GMT                 COMMENT
For assistance contact dagnew@ucsd.edu                      COMMENT
or anderson@python.ucsd.edu                                 COMMENT
                                                            COMMENT
M 1377 1984                                                 MARKER NAME
KWC US GEOLOGICAL SURVEY                                    OBSERVER / AGENCY
597 ASHTECH Z-XII3 1E00                                     REC # / TYPE / VERS
598 ASHTECH GEODETIC L                                      ANT # / TYPE
 -2359279.2847 -4571065.8756  3760088.2460                  APPROX POSITION XYZ
        1.1512        0.0000        0.0000                  ANTENNA: DELTA H/E/N
     1     1     0                                          WAVELENGTH FACT L1/2
     5    C1    L1    L2    P1    P2                        # / TYPES OF OBSERV
    30                                                      INTERVAL
  1994    11    18    23    42    0.000000                  TIME OF FIRST OBS
  1994    11    19     6    30   30.000000                  TIME OF LAST OBS
                                                            END OF HEADER
 94 11 18 23 42  0.0000000  0  5 25 22 18 29 14
  23981686.508       22595.62519
  21267942.897      -21013.42419
  23044316.565      -54160.42319
  21001203.687      -38550.77619
  20191518.218      -25272.39919
 94 11 18 23 42 30.0000000  0  4 25 22 18 14
  23991681.007       75123.80159     52395.37459  23991678.9724   23991686.3534
  21259114.905      -67382.02059    -46102.19659  21259115.3294   21259122.1034
  23021599.741     -173526.84159   -100135.04159  23021597.9814   23021603.5274
  20186344.545      -52469.24259    -30898.03459  20186342.0394   20186348.2604
 94 11 18 23 42 59.9990000  0  5 25 22 18 29 14
  24001500.770      126727.78749     92606.17049  24001499.0424   24001504.0944
  21250231.473     -114069.65249    -82482.18249  21250231.8464   21250236.8294
  22998717.721     -293758.89649   -193822.27349  22998719.5114   22998724.3784
  20972144.242     -191281.52759   -135310.31559  20972138.2054   20972141.9494
  20181097.766      -80039.16049    -52381.10749  20181095.9904   20181101.2104
 94 11 18 23 43 29.9990000  0  5 25 22 18 29 14
  24011146.018      177427.86449    132112.70149  24011146.6664   24011151.6774
  21241291.724     -161048.05849   -119088.71649  21241292.1634   21241297.0524
  22975677.970     -414853.19249   -288181.43149  22975676.1884   22975680.7914
  20957381.730     -268826.37149   -195734.85249  20957381.7294   20957385.7554
  20175782.303     -107970.16649    -74145.52749  20175780.9474   20175786.2664
 94 11 18 23 43 59.9990000  0  6 25 22 18  4 29 14
  24020630.213      227285.97849    170963.16549  24020634.5984   24020639.4144
  21232305.943     -208250.60349   -155869.90349  21232309.4324   21232314.9534
  22952485.828     -536734.47649   -383153.81849  22952482.9094   22952487.6464
  24426937.628     -146671.30259   -100773.87359  24426937.3094   24426943.0394
  20942494.714     -347056.30349   -256693.22649  20942495.3054   20942499.1584
  20170411.902     -136194.29949    -96138.36649  20170410.2994   20170415.5264
 94 11 18 23 44 29.9990000  0  6 25 22 18  4 29 14
  24029983.273      276410.12249    209241.69349  24029982.1814   24029987.3104
  21223305.693     -255579.81549   -192749.79949  21223302.6824   21223308.1834
  22929162.774     -659306.85749   -478664.72649  22929158.5224   22929162.7874
  24415001.948     -209390.28449   -149645.79649  24415001.0944   24415007.3624
  20927499.032     -425864.50649   -318102.20349  20927498.6864   20927502.3534
  20165005.197     -164599.95949   -118272.65649  20165004.6864   20165009.8804
 94 11 18 23 44 59.9990000  0  6 25 22 18  4 29 14
  24039208.711      324887.83649    247016.53049  24039207.6074   24039212.9724
  21214299.246     -302954.92149   -229665.45449  21214288.0474   21214292.9834
  22905718.740     -782494.89249   -574655.36049  22905716.2614   22905721.0344
  24403038.860     -272257.23349   -198633.01949  24403040.3564   24403044.0474
  20912410.008     -505165.60249   -379895.24949  20912408.0374   20912411.7354
  20159583.976     -193093.87849   -140475.71549  20159582.7604   20159587.7554
 94 11 18 23 45 29.9990000  0  6 25 22 18  4 29 14
  24048317.700      372783.79149    284338.03349  24048321.7984   24048326.6334
  21205283.758     -350303.33449   -266560.31449  21205278.2994   21205283.1074
  22882173.786     -906221.88749   -671065.96849  22882171.6804   22882176.2854
  24391063.224     -335182.07749   -247665.33949  24391063.6784   24391070.4684
  20897237.697     -584872.06149   -442004.16949  20897240.3104   20897244.1264
  20154161.203     -221593.74249   -162683.41049  20154159.3904   20154164.5054
 94 11 18 23 45 59.9990000  0  7 25 22 19 18  4 29 14
  24057333.413      420154.69549    321250.42249  24057336.0734   24057341.5844
  21196284.959     -397567.22349   -303389.31549  21196284.1594   21196288.7804
  23905345.840     -408112.30859   -302867.87959  23905349.0724   23905354.7094
  22858541.113    -1030415.17249   -767839.92249  22858538.7484   22858543.3584
  24379093.331     -398105.72949   -296696.74449  24379091.4724   24379095.8154
  20882004.268     -664927.95249   -504385.37549  20882006.2764   20882010.0624
  20148749.091     -250026.63249   -184838.92249  20148748.8614   20148753.9534
 94 11 18 23 46 29.9990000  0  7 25 22 19 18  4 29 14
  24066263.501      467055.36249    357796.38249  24066261.1224   24066266.0514
  21187320.411     -444699.06149   -340115.41249  21187314.8874   21187320.1304
  23879505.820     -543921.11949   -408692.89049  23879504.7344   23879509.7974
  22834829.330    -1155023.70749   -864937.44449  22834826.1244   22834831.1174
  24367130.494     -460975.65049   -345686.26649  24367126.6784   24367132.3154
  20866720.687     -745264.38349   -566985.18249  20866718.8314   20866722.5364
  20143359.294     -278352.68849   -206911.18449  20143358.6124   20143363.6444
 94 11 18 23 46 59.9990000  0  7 25 22 19 18  4 29 14
  24075109.859      513537.26549    394016.04149  24075106.4814   24075111.2224
  21178379.988     -491664.01549   -376711.47049  21178377.8124   21178383.0244
  23853613.348     -679952.80649   -514691.57749  23853618.5174   23853624.5214
  22811045.139    -1280002.18849   -962323.24049  22811043.7314   22811048.6764
  24355179.729     -523769.37049   -394616.39649  24355177.3194   24355184.1554
  20851392.240     -825822.65449   -629757.85249  20851388.9974   20851392.8114
  20137995.616     -306534.81149   -228871.28349  20137995.7974   20138000.8204
 94 11 18 23 47 29.9990000  0  7 25 22 19 18  4 29 14
  24083882.076      559653.32949    429950.64649  24083882.2614   24083886.8114
  21169469.569     -538419.14049   -413144.02549  21169481.0674   21169486.3204
  23827701.411     -816162.31449   -620828.81149  23827698.9964   23827704.7264
  22787204.115    -1405285.80149  -1059946.80549  22787202.6924   22787207.9054
  24343246.786     -586458.01049   -443464.66949  24343249.4404   24343254.8074
  20836023.670     -906553.29449   -692664.83849  20836026.4484   20836030.3124
  20132671.568     -334519.56349   -250677.59049  20132670.4234   20132675.5084
 94 11 18 23 47 59.9990000  0  7 25 22 19 18  4 29 14
  24092594.465      605445.27049    465632.67549  24092595.9504   24092601.2494
  21160632.237     -584942.54449   -449396.01649  21160627.4534   21160632.9064
  23801749.174     -952513.66449   -727076.56249  23801752.6494   23801758.1364
  22763307.040    -1530845.55249  -1157785.53549  22763309.6334   22763314.5274
  24331349.776     -649005.58149   -492202.99649  24331347.0834   24331352.3014
  20820639.045     -987428.14949   -755684.20049  20820636.6314   20820640.3384
  20127387.451     -362287.63249   -272315.05349  20127386.1554   20127391.3684
 94 11 18 23 48 29.9990000  0  7 25 22 19 18  4 29 14
  24101257.265      650952.11949    501092.54649  24101255.7404   24101260.7564
  21151830.953     -631204.42049   -485444.22149  21151824.1994   21151829.1394
  23775785.980    -1088977.18849   -833411.73749  23775784.0734   23775789.7724
  22739370.588    -1656656.57249  -1255820.06349  22739368.9044   22739373.5184
  24319479.510     -711372.59449   -540800.65849  24319478.9804   24319483.9204
  20805226.539    -1068416.70649   -818792.16049  20805225.0144   20805228.8044
  20122148.851     -389818.14749   -293767.41649  20122147.3644   20122152.6044
 94 11 18 23 48 59.9990000  0  7 25 22 19 18  4 29 14
  24109868.645      696206.54249    536355.72549  24109867.0674   24109872.1854
  21143083.806     -677169.44449   -521261.11149  21143077.4064   21143082.4804
  23749799.567    -1225553.44549   -939834.71649  23749794.8664   23749800.5254
  22715383.917    -1782687.67749  -1354026.08149  22715385.6804   22715390.2764
  24307648.427     -773535.47649   -589239.25249  24307648.1574   24307654.2434
  20789791.216    -1149512.62749   -881983.78249  20789792.9564   20789796.7474
  20116963.057     -417067.39349   -315000.60849  20116961.9724   20116967.3044
 94 11 18 23 49 29.9990000  0  7 25 22 19 18  4 29 14
  24118435.399      741220.96049    571431.90649  24118433.2764   24118438.1084
  21134403.204     -722797.22749   -556815.21849  21134394.8174   21134399.5844
  23723789.619    -1362222.49649  -1046330.00549  23723787.9224   23723792.9924
  22691364.012    -1908915.11449  -1452385.09049  22691365.2604   22691370.2244
  24295871.201     -835444.27849   -637479.84349  24295867.5214   24295873.9444
  20774343.582    -1230701.60049   -945247.91349  20774343.2374   20774346.8254
  20111836.385     -444002.58049   -335989.07749  20111836.5944   20111841.6784
 94 11 18 23 49 59.9990000  0  7 25 22 19 18  4 29 14
  24126961.368      786020.69249    606340.77749  24126958.4414   24126963.4834
  21125790.401     -768046.97449   -592074.74549  21125784.2104   21125788.7634
  23697775.223    -1498931.49249  -1152856.43149  23697773.3564   23697778.0584
  22667317.380    -2035308.95049  -1550873.76149  22667312.7884   22667318.6774
  24284145.281     -897058.01949   -685490.52349  24284142.4624   24284147.4684
  20758885.220    -1311950.10049  -1008558.42449  20758882.2884   20758886.1074
  20106776.418     -470600.31149   -356714.59149  20106775.3774   20106780.4794
 94 11 18 23 50 29.9990000  0  7 25 22 19 18  4 29 14
  24135447.613      830617.66749    641091.67649  24135444.9674   24135449.5534
  21117252.236     -812886.97249   -627014.99549  21117250.6934   21117256.1904
  23671756.965    -1635665.62349  -1259402.41849  23671752.4894   23671758.2974
  22643233.484    -2161833.07349  -1649463.95049  22643236.2064   22643241.5014
  24272477.937     -958359.32649   -733257.77449  24272478.9804   24272483.0284
  20743414.300    -1393238.25849  -1071899.84049  20743413.4484   20743417.1814
  20101785.096     -496831.65949   -377154.61449  20101783.7364   20101788.6274
 94 11 18 23 50 59.9990000  0  7 25 22 19 18  4 29 14
  24143896.908      875028.61949    675697.63249  24143896.0604   24143900.9954
  21108794.788     -857285.47349   -661611.22349  21108802.1454   21108807.5324
  23645740.856    -1772406.03149  -1365953.28549  23645732.4614   23645738.2274
  22619138.215    -2288457.50149  -1748132.29249  22619140.2664   22619145.4164
  24260873.726    -1019335.01549   -780771.26449  24260874.4824   24260879.0004
  20727944.268    -1474541.76549  -1135253.21849  20727942.1324   20727945.7074
  20096866.670     -522674.68849   -397292.04949  20096865.8834   20096870.9754
 94 11 18 23 51 29.9990000  0  7 25 22 19 18  4 29 14
  24152318.635      919270.18849    710171.58149  24152314.8534   24152319.9564
  21100451.721     -901216.99449   -695843.56249  21100442.7174   21100447.9514
  23619717.008    -1909121.22549  -1472484.51649  23619715.8654   23619720.7564
  22595034.282    -2415154.99949  -1846857.58649  22595030.2594   22595035.9364
  24249336.560    -1079971.06249   -828020.11849  24249336.5214   24249340.3114
  20712471.495    -1555828.40949  -1198593.45249  20712473.7184   20712477.3854
  20092023.551     -548119.87949   -417119.48549  20092023.8164   20092028.7154
 94 11 18 23 51 59.9990000  0  7 25 22 19 18  4 29 14
  24160707.949      963380.49249    744543.25749  24160708.5834   24160713.7414
  21092179.737     -944652.35349   -729689.28649  21092177.2454   21092182.0744
  23593701.031    -2045793.99849  -1578982.68749  23593707.7564   23593713.5534
  22570915.349    -2541909.01049  -1945626.92549  22570909.8814   22570915.4804
  24237868.428    -1140241.30449   -874983.93049  24237868.0164   24237871.4124
  20697020.643    -1637055.77349  -1261887.49849  20697016.7784   20697020.2754
  20087262.053     -573148.75049   -436622.51449  20087261.0034   20087266.0244
 94 11 18 23 52 29.9990000  0  7 25 22 19 18  4 29 14
  24169079.605     1007370.91649    778821.52949  24169079.9034   24169084.7234
  21084011.573     -987583.98849   -763142.50149  21084007.5924   21084013.2144
  23567708.140    -2182436.72949  -1685457.43449  23567704.7474   23567711.3514
  22546778.996    -2668730.99649  -2044449.22849  22546777.3054   22546782.3664
  24226473.425    -1200135.44049   -921654.70749  24226470.2384   24226474.4214
  20681570.966    -1718213.06749  -1325126.93349  20681572.8574   20681576.6374
  20082580.140     -597749.94449   -455792.28949  20082579.5684   20082584.7054
 94 11 18 23 52 59.9990000  0  7 25 22 19 18  4 29 14
  24177432.642     1051267.94049    813027.00649  24177433.5464   24177438.0934
  21075935.865    -1029996.40649   -796191.12549  21075937.1154   21075941.9984
  23541712.471    -2319029.36349  -1791893.19049  23541711.1604   23541718.0084
  22522634.208    -2795615.30349  -2143320.08149  22522631.5974   22522636.8874
  24215147.533    -1259638.49549   -968020.65449  24215146.3694   24215152.0464
  20666146.173    -1799284.12449  -1388299.18149  20666145.7614   20666149.1714
  20077981.991     -621914.77349   -474622.03149  20077981.0724   20077986.1394
 94 11 18 23 53 29.9990000  0  7 25 22 19 18  4 29 14
  24185769.803     1095089.41649    847173.59249  24185772.1214   24185777.4324
  21067977.953    -1071867.24649   -828817.73649  21067969.3594   21067974.3004
  23515734.665    -2455549.58749  -1898272.50249  23515732.3444   23515738.7924
  22498475.024    -2922547.50849  -2242228.26149  22498477.2214   22498482.6764
  24203904.997    -1318714.82849  -1014054.16749  24203905.7764   24203908.9694
  20650737.509    -1880245.33349  -1451385.82549  20650739.3004   20650742.8034
  20073472.225     -645612.73149   -493087.98349  20073471.6834   20073476.6714
 94 11 18 23 53 59.9990000  0  7 25 22 19 18  4 29 14
  24194096.278     1138841.15249    881265.92249  24194098.3704   24194102.1894
  21060101.467    -1113194.47849   -861020.75049  21060103.7314   21060109.3054
  23489774.009    -2591982.04649  -2004583.41849  23489770.8914   23489776.4484
  22474315.150    -3049516.88349  -2341165.40449  22474315.4754   22474320.8114
  24192744.592    -1377339.27749  -1059735.58749  24192749.8374   24192753.4244
  20635356.836    -1961088.14149  -1514380.20449  20635355.3434   20635358.7324
  20069055.841     -668822.63249   -511173.63249  20069054.7394   20069059.7554
 94 11 18 23 54 29.9990000  0  7 25 22 19 18  4 29 14
  24202413.115     1182531.75149    915310.50249  24202411.4534   24202419.8764
  21052341.201    -1153978.11249   -892800.21149  21052343.4124   21052352.0234
  23463822.710    -2728312.65349  -2110815.04449  23463827.1074   23463836.5344
  22450156.184    -3176479.29949  -2440097.17149  22450155.2584   22450164.3294
  24181677.485    -1435517.20449  -1105069.01549  24181677.0714   24181685.9964
  20619995.407    -2041817.33449  -1577286.05649  20619992.7224   20620000.2704
  20064733.561     -691532.08449   -528869.31949  20064733.2584   20064742.0834
 94 11 18 23 54 59.9990000  0  7 25 22 19 18  4 29 14
  24210711.505     1226160.24249    949306.74249  24210714.0684   24210721.4884
  21044695.854    -1194214.35249   -924153.10049  21044686.5464   21044694.5074
  23437907.900    -2864524.84049  -2216954.37149  23437906.9684   23437915.8194
  22426000.276    -3303414.01349  -2539007.31449  22426000.9644   22426008.8024
  24170691.061    -1493258.37849  -1150062.08449  24170689.8094   24170699.9164
  20604651.924    -2122425.78849  -1640097.83549  20604653.4364   20604660.6524
  20060508.386     -713739.01049   -546173.43449  20060507.1614   20060515.6574
 94 11 18 23 55 29.9990000  0  7 25 22 19 18  4 29 14
  24219001.659     1269713.69449    983244.51249  24219002.1094   24219010.0734
  21037133.733    -1233912.66549   -955086.83349  21037132.3144   21037139.9964
  23412010.672    -3000603.99149  -2322990.00849  23412011.8184   23412020.6904
  22401853.970    -3430311.58249  -2637888.50349  22401852.6314   22401860.8684
  24159784.670    -1550572.80849  -1194722.68149  24159783.7364   24159791.5394
  20589338.339    -2202907.41049  -1702810.77049  20589338.5304   20589345.4444
  20056379.205     -735434.91349   -563079.34649  20056378.7124   20056387.0644
 94 11 18 23 55 59.9990000  0  7 25 22 19 18  4 29 14
  24227272.574     1313190.95849   1017122.91249  24227273.2114   24227282.6984
  21029678.788    -1273093.33149   -985617.21049  21029676.9174   21029683.9934
  23386144.422    -3136540.37749  -2428914.40849  23386144.6304   23386152.9724
  22377706.203    -3557167.23149  -2736737.03749  22377713.2224   22377721.1964
  24148954.810    -1607469.60249  -1239057.82849  24148955.6574   24148964.7274
  20574045.625    -2283269.28949  -1765430.40149  20574045.9494   20574052.7054
  20052346.095     -756632.17149   -579596.70449  20052345.2334   20052353.0454
 94 11 18 23 56 29.9990000  0  6 22 19 18  4 29 14
  21022321.928    -1311749.10149  -1015738.57349  21022321.0774   21022328.5984
  23360299.624    -3272309.48449  -2534708.47049  23360308.6874   23360316.5854
  22353588.094    -3683973.97049  -2835547.45049  22353582.4544   22353590.1734
  24138207.521    -1663950.05849  -1283068.56649  24138208.2244   24138216.5374
  20558777.837    -2363502.61649  -1827949.86349  20558778.0794   20558784.5804
  20048406.078     -777330.97249   -595725.65249  20048406.1584   20048414.2024
 94 11 18 23 56 59.9990000  0  6 22 19 18  4 29 14
  21015060.795    -1349867.14149  -1045440.93449  21015066.8894   21015074.6004
  23334514.889    -3407878.87049  -2640346.90849  23334510.8764   23334518.4914
  22329459.308    -3810738.46649  -2934324.93849  22329460.3294   22329467.6824
  24127545.843    -1719991.97349  -1326737.60249  24127544.3014   24127553.0004
  20543539.363    -2443583.33549  -1890350.40649  20543539.4094   20543545.8084
  20044567.150     -797511.25549   -611450.56949  20044566.2364   20044573.8634
 94 11 18 23 57 29.9990000  0  6 22 19 18  4 29 14
  21007910.539    -1387455.44149  -1074730.50449  21007914.4814   21007922.2574
  23308750.103    -3543257.34549  -2745836.60149  23308749.6614   23308756.4774
  22305348.581    -3937457.64049  -3033067.10549  22305346.0234   22305353.6654
  24116966.652    -1775573.81349  -1370048.12249  24116966.6134   24116975.3284
  20528330.941    -2523509.99149  -1952630.90549  20528329.6684   20528336.0754
  20040823.753     -817173.45549   -626771.77549  20040824.3424   20040832.4884
 94 11 18 23 57 59.9990000  0  6 22 19 18  4 29 14
  21000861.381    -1424504.86149  -1103600.17149  21000863.9364   21000871.4064
  23283008.938    -3678476.46849  -2851202.10749  23283018.0554   23283025.2744
  22281236.723    -4064135.99949  -3131777.47149  22281240.1944   22281247.1354
  24106480.813    -1830676.45349  -1412985.25249  24106481.7604   24106488.1794
  20513150.911    -2603274.94149  -2014785.39849  20513150.8794   20513156.9964
  20037181.505     -836324.50749   -641694.69349  20037180.4674   20037187.8274
 94 11 18 23 58 29.9980000  0  6 22 19 18  4 29 14
  20993923.342    -1460994.45149  -1132033.60449  20993919.8454   20993928.0164
  23257310.635    -3813549.73149  -2956453.93349  23257313.8744   23257321.2884
  22257137.610    -4190771.16749  -3230454.18649  22257141.9184   22257149.3304
  24096084.112    -1885305.64249  -1455553.44049  24096085.3524   24096093.6184
  20498008.046    -2682858.97049  -2076798.91549  20498006.6064   20498012.5424
  20033635.991     -854951.54649   -656209.27949  20033635.6174   20033642.9304
 94 11 18 23 58 59.9980000  0  6 22 19 18  4 29 14
  20987094.552    -1496907.47149  -1160017.75949  20987086.1884   20987093.5304
  23231638.837    -3948502.14349  -3061611.57949  23231634.1304   23231640.8004
  22233057.055    -4317361.48449  -3329095.94249  22233052.6024   22233060.0414
  24085783.260    -1939448.48649  -1497742.67749  24085782.2384   24085790.5184
  20482898.667    -2762251.84749  -2138663.47949  20482898.5204   20482904.5914
  20030196.049     -873035.26549   -670300.50249  20030194.7644   20030202.0974
 94 11 18 23 59 29.9980000  0  6 22 19 18  4 29 14
  20980369.168    -1532232.20149  -1187543.50749  20980363.7254   20980371.8684
  23205975.036    -4083341.63049  -3166681.23549  23205974.4254   23205982.2464
  22208975.323    -4443896.75449  -3427694.80049  22208973.8714   22208981.0094
  24075572.528    -1993101.94949  -1539550.56949  24075572.5994   24075580.1714
  20467827.469    -2841458.19549  -2200382.69649  20467826.0424   20467832.1094
  20026855.937     -890574.15049   -683967.18249  20026856.9024   20026864.3874
 94 11 18 23 59 59.9980000  0  6 22 19 18  4 29 14
  20973752.346    -1566952.20049  -1214598.04249  20973757.1314   20973763.9774
  23180334.078    -4218046.06149  -3271645.65549  23180340.8784   23180348.3614
  22184896.114    -4570387.58849  -3526259.03749  22184903.7814   22184910.8854
  24065452.595    -2046287.94949  -1580994.19349  24065452.4294   24065459.4614
  20452786.763    -2920478.59549  -2261957.02549  20452788.8574   20452795.1594
  20023624.881     -907560.48149   -697203.30149  20023624.6504   20023632.0974
 94 11 19  0  0 29.9980000  0  6 22 19 18  4 29 14
  20967267.847    -1601067.11249  -1241181.07149  20967265.5024   20967272.9934
  23154730.488    -4352579.43049  -3376476.77649  23154740.8304   23154748.0074
  22160846.781    -4696834.58649  -3624789.12349  22160841.1144   22160848.4564
  24055417.624    -2099014.53649  -1622079.85749  24055419.2864   24055425.5484
  20437786.629    -2999325.07249  -2323395.82949  20437784.9574   20437791.2874
  20020497.622     -923990.30749   -710005.77949  20020498.0664   20020505.9484
 94 11 19  0  0 59.9980000  0  6 22 19 18  4 29 14
  20960887.437    -1634591.77949  -1267304.18049  20960885.9694   20960892.1634
  23129171.228    -4486933.22549  -3481167.97049  23129174.2684   23129180.3294
  22136794.832    -4823235.82949  -3723283.55349  22136787.8924   22136794.9894
  24045474.151    -2151272.43349  -1662800.27249  24045473.8584   24045481.8864
  20422810.967    -3078016.35749  -2384713.71149  20422810.6584   20422816.5934
  20017474.448     -939880.63249   -722387.86049  20017474.0724   20017481.5194
 94 11 19  0  1 29.9980000  0  6 22 19 18  4 29 14
  20954625.684    -1667528.29949  -1292968.98349  20954618.3374   20954625.2024
  23103643.334    -4621101.32849  -3585714.48149  23103642.0394   23103649.2244
  22112742.589    -4949594.82949  -3821745.07349  22112742.5474   22112749.8374
  24035618.673    -2203060.07349  -1703154.26549  24035618.6194   24035626.7894
  20407865.798    -3156552.71649  -2445910.87249  20407865.7174   20407871.4104
  20014551.003     -955246.54649   -734361.30749  20014550.2964   20014557.8904
 94 11 19  0  1 59.9980000  0  6 22 19 18  4 29 14
  20948459.089    -1699908.17749  -1318200.04949  20948456.1944   20948463.0484
  23078138.237    -4755103.89249  -3690132.02449  23078142.2584   23078149.5804
  22088711.177    -5075924.45649  -3920183.70449  22088702.5614   22088709.8424
  24025851.222    -2254390.24249  -1743151.78849  24025851.3704   24025858.8794
  20392948.978    -3234939.28049  -2506991.30549  20392949.1754   20392955.0934
  20011722.719     -970107.03949   -745940.92449  20011722.2184   20011729.7194
 94 11 19  0  2 29.9980000  0  6 22 19 18  4 29 14
  20942395.581    -1731763.82049  -1343022.61749  20942394.4164   20942401.4314
  23052671.371    -4888968.36149  -3794441.95149  23052670.3454   23052675.2884
  22064666.330    -5202213.00549  -4018590.33049  22064670.5154   22064677.6894
  24016172.190    -2305258.16049  -1782789.12749  24016171.1114   24016179.2184
  20378060.677    -3313183.59649  -2567960.89649  20378059.9094   20378065.8224
  20008989.591     -984473.33349   -757135.45149  20008988.5384   20008995.9374
 94 11 19  0  2 59.9980000  0  6 22 19 18  4 29 14
  20936430.844    -1763116.06049  -1367452.92749  20936427.9584   20936435.5564
  23027205.848    -5022728.28249  -3898670.41149  23027214.6814   23027221.6724
  22040646.874    -5328466.79949  -4116969.88249  22040645.3234   22040652.3914
  24006576.670    -2355681.33849  -1822079.91549  24006575.4694   24006584.0084
  20363200.189    -3391280.91549  -2628815.94549  20363198.2354   20363204.2224
  20006347.158     -998354.56949   -767952.01549  20006347.2974   20006354.6524
 94 11 19  0  3 29.9980000  0  6 22 19 18  4 29 14
  20930559.704    -1793960.56649  -1391487.59749  20930558.8974   20930565.9694
  23001772.909    -5156380.54149  -4002815.00449  23001781.1824   23001788.0774
  22016634.145    -5454685.19849  -4215321.85649  22016626.9454   22016633.6214
  23997062.287    -2405671.94749  -1861033.62449  23997062.5914   23997071.0354
  20348367.628    -3469221.89449  -2689549.17049  20348366.7044   20348372.6374
  20003799.660    -1011743.20049   -778384.72649  20003799.2584   20003806.4824
 94 11 19  0  3 59.9980000  0  6 22 19 18  4 29 14
  20924783.168    -1824287.42149  -1415118.90849  20924787.5704   20924795.2614
  22976365.780    -5289902.01949  -4106857.66949  22976372.2284   22976379.8004
  21992619.960    -5580854.13049  -4313635.28849  21992617.5944   21992624.4864
  23987628.859    -2455232.21249  -1899652.00949  23987631.6204   23987641.0974
  20333565.969    -3546997.77349  -2750153.74649  20333566.4234   20333572.3204
  20001350.583    -1024618.48349   -788417.43149  20001349.1824   20001356.7454
 94 11 19  0  4 29.9980000  0  6 22 19 18  4 29 14
  20919117.398    -1854069.59749  -1438325.79849  20919120.4674   20919127.3454
  22951004.326    -5423270.80749  -4210781.39249  22950993.1824   22951000.7794
  21968620.305    -5706974.53249  -4411910.90649  21968617.8284   21968624.5314
  23978280.416    -2504370.61749  -1937941.68349  23978281.2734   23978289.6424
  20318799.637    -3624601.87649  -2810624.47149  20318798.9344   20318804.6364
  19998996.103    -1036980.03949   -798049.82349  19998996.9674   19999004.1474
 94 11 19  0  4 59.9980000  0  6 22 19 18  4 29 14
  20913561.298    -1883269.00449  -1461078.57549  20913564.2324   20913570.5964
  22925653.778    -5556452.96149  -4314559.68849  22925649.4804   22925655.7114
  21944628.103    -5833051.02749  -4510152.30649  21944626.3784   21944632.5304
  23969011.616    -2553078.43749  -1975895.82849  23969012.2464   23969019.7044
  20304066.449    -3702023.34049  -2870952.88449  20304066.2564   20304071.4524
  19996744.198    -1048818.35849   -807274.49849  19996743.9484   19996751.1344
 94 11 19  0  5 29.9980000  0  6 22 19 18  4 29 14
  20908126.144    -1911863.35849  -1483359.88049  20908122.5894   20908129.2854
  22900341.026    -5689419.32649  -4418169.81649  22900346.8654   22900353.6724
  21920644.210    -5959074.49249  -4608352.38049  21920644.7534   21920650.9604
  23959827.101    -2601343.66849  -2013505.08649  23959828.0774   23959835.1694
  20289369.366    -3779257.96349  -2931135.70149  20289368.7714   20289373.8514
  19994591.783    -1060139.79149   -816096.41549  19994589.8104   19994596.2124
 94 11 19  0  5 59.9980000  0  6 22 19 18  4 29 14
  20902799.825    -1939854.42649  -1505171.09349  20902795.9394   20902802.4224
  22875089.517    -5822160.54849  -4521604.51449  22875086.6144   22875092.7694
  21896678.409    -6085031.54949  -4706500.71249  21896675.9364   21896681.9234
  23950734.167    -2649149.92249  -2050756.72449  23950731.2844   23950738.0744
  20274707.127    -3856304.77249  -2991172.16649  20274707.2864   20274712.1764
  19992532.266    -1070948.06949   -824518.45549  19992532.9084   19992539.6104
 94 11 19  0  6 29.9980000  0  6 22 19 18  4 29 14
  20897582.392    -1967250.31449  -1526518.52949  20897582.5294   20897588.7624
  22849872.998    -5954687.76849  -4624872.46649  22849867.5444   22849874.1694
  21872716.934    -6210909.65549  -4804587.52149  21872722.1234   21872727.9544
  23941723.365    -2696477.56549  -2087635.41749  23941725.4054   23941731.0734
  20260083.381    -3933157.70349  -3051057.55649  20260082.5724   20260087.1954
  19990572.310    -1081250.71549   -832546.50749  19990572.5074   19990579.1304
 94 11 19  0  6 59.9980000  0  6 22 19 18  4 29 14
  20892478.553    -1994073.14649  -1547419.42749  20892478.7124   20892484.9124
  22824675.084    -6087021.11649  -4727989.32749  22824685.5784   22824691.8184
  21848788.711    -6336697.19249  -4902603.74749  21848785.7164   21848791.3544
  23932800.001    -2743308.90649  -2124127.40249  23932811.6694   23932818.9284
  20245494.514    -4009821.12349  -3110795.27749  20245493.9164   20245498.6574
  19988707.237    -1091058.42249   -840188.87749  19988706.0914   19988712.2504
 94 11 19  0  7 29.9980000  0  6 22 19 18  4 29 14
  20887476.594    -2020349.95449  -1567894.85749  20887478.5274   20887484.3084
  22799541.595    -6219184.07449  -4830973.40949  22799535.8204   22799542.6514
  21824871.480    -6462388.22649  -5000544.78349  21824867.2044   21824872.9564
  23923997.924    -2789646.30949  -2160234.46749  23923994.3464   23924002.3334
  20230942.510    -4086300.86249  -3170389.86949  20230940.4534   20230945.2674
  19986932.530    -1100381.04949   -847453.27249  19986932.1384   19986938.6014
 94 11 19  0  7 59.9980000  0  6 22 19 18  4 29 14
  20882584.996    -2046096.39049  -1587957.00149  20882578.9954   20882584.9284
  22774414.230    -6351199.66849  -4933842.65149  22774413.8234   22774420.9834
  21800961.519    -6587987.02449  -5098413.94649  21800966.6784   21800972.3174
  23915267.328    -2835489.49549  -2195956.44549  23915271.1864   23915279.0234
  20216422.265    -4162596.43349  -3229840.95349  20216421.8934   20216426.6714
  19985255.040    -1109199.17549   -854324.55549  19985254.1944   19985260.5024
 94 11 19  0  8 29.9980000  0  6 22 19 18  4 29 14
  20877788.471    -2071303.58949  -1607598.96249  20877782.5664   20877788.3774
  22749319.974    -6483069.02049  -5036597.93849  22749320.6474   22749326.7074
  21777083.570    -6713501.47749  -5196217.38049  21777082.2414   21777087.5554
  23906639.769    -2880855.10149  -2231306.26849  23906637.7694   23906645.7014
  20201940.132    -4238698.58849  -3289141.32249  20201940.2774   20201944.8234
  19983673.102    -1117505.57349   -860797.07849  19983673.4964   19983679.6674
 94 11 19  0  8 59.9980000  0  6 22 19 18  4 29 14
  20873093.292    -2095962.31249  -1626813.53649  20873089.9284   20873095.5174
  22724259.271    -6614780.22049  -5139229.99249  22724256.5364   22724263.0964
  21753212.514    -6838940.90449  -5293962.35249  21753211.8114   21753217.1054
  23898093.308    -2925753.60449  -2266292.10449  23898094.2254   23898101.4224
  20187498.124    -4314606.69649  -3348290.47949  20187495.3914   20187499.9214
  19982193.306    -1125287.61749   -866861.01249  19982192.5524   19982199.4674
 94 11 19  0  9 29.9980000  0  6 22 19 18  4 29 14
  20868501.799    -2120059.19749  -1645590.30849  20868504.3814   20868509.8784
  22699222.357    -6746307.56549  -5241718.77949  22699227.7184   22699233.9724
  21729359.057    -6964308.36249  -5391651.24549  21729355.1734   21729360.3384
  23889636.445    -2970196.89249  -2300923.26449  23889637.4794   23889643.6714
  20173088.226    -4390313.64949  -3407282.89649  20173088.7814   20173093.3494
  19980817.054    -1132517.19849   -872494.45749  19980816.8864   19980823.0894
 94 11 19  0  9 59.9980000  0  6 22 19 18  4 29 14
  20864026.218    -2143579.61849  -1663917.89149  20864028.5194   20864033.6304
  22674235.278    -6877642.34749  -5344057.52749  22674235.7954   22674241.6954
  21705515.176    -7089600.95849  -5489281.80549  21705512.4784   21705517.9284
  23881267.100    -3014184.67149  -2335199.47049  23881266.9834   23881273.4524
  20158724.500    -4465811.80949  -3466112.61549  20158721.8974   20158726.5764
  19979548.493    -1139184.49649   -877689.77049  19979548.1854   19979554.3994
 94 11 19  0 10 29.9980000  0  6 22 19 18  4 29 14
  20859667.164    -2166516.44149  -1681790.72249  20859663.5884   20859669.1684
  22649281.742    -7008767.77049  -5446233.14149  22649283.8594   22649289.2214
  21681681.623    -7214815.03949  -5586851.18449  21681685.0694   21681690.5714
  23872985.772    -3057716.89749  -2369120.67549  23872982.1334   23872990.1524
  20144394.615    -4541100.83449  -3524779.37449  20144394.8244   20144399.2154
  19978384.505    -1145303.47949   -882457.82149  19978383.6954   19978389.8144
 94 11 19  0 10 59.9980000  0  6 22 19 18  4 29 14
  20855406.433    -2188877.98849  -1699215.28349  20855408.3784   20855413.8494
  22624372.244    -7139686.33949  -5548247.57149  22624370.2424   22624376.2794
  21657871.229    -7339939.11049  -5684350.42749  21657874.9454   21657880.4534
  23864786.747    -3100788.10049  -2402682.65749  23864786.8764   23864793.5704
  20130107.346    -4616181.10649  -3583283.46849  20130107.8234   20130112.1634
  19977323.522    -1150878.83449   -886802.26949  19977322.8964   19977329.2684
 94 11 19  0 11 29.9980000  0  6 22 19 18  4 29 14
  20851266.187    -2210647.81149  -1716178.76649  20851265.7784   20851271.5774
  22599491.002    -7270396.63849  -5650099.71349  22599496.9864   22599503.1674
  21634085.302    -7464953.85049  -5781764.48449  21634085.2294   21634090.4914
  23856679.595    -3143396.21949  -2435883.78849  23856679.3224   23856685.1234
  20115861.986    -4691042.50149  -3641617.00749  20115861.9004   20115866.2804
  19976366.118    -1155908.35249   -890721.38649  19976365.6434   19976371.6014
 94 11 19  0 11 59.9980000  0  6 22 19 18  4 29 14
  20847233.352    -2231837.58249  -1732690.26149  20847233.5954   20847239.1924
  22574659.463    -7400926.60549  -5751811.34649  22574657.0944   22574663.3704
  21610314.246    -7589871.14749  -5879102.61149  21610314.0354   21610319.3424
  23848659.543    -3185545.71149  -2468727.57049  23848658.1744   23848664.0454
  20101656.749    -4765692.39349  -3699785.74049  20101656.5634   20101660.9014
  19975505.259    -1160425.95149   -894241.60249  19975505.7874   19975512.1734
 94 11 19  0 12 29.9980000  0  6 22 19 18  4 29 14
  20843308.350    -2252459.54549  -1748759.30949  20843309.3014   20843315.2364
  22549851.263    -7531272.85949  -5853379.84049  22549853.6124   22549859.4554
  21586562.994    -7714691.65149  -5976365.31549  21586561.7224   21586566.6344
  23840723.018    -3227244.31749  -2501219.99949  23840722.3144   23840729.5504
  20087492.715    -4840130.39149  -3757789.36849  20087491.3504   20087495.7994
  19974742.077    -1164439.51449   -897369.05949  19974742.0934   19974748.2374
 94 11 19  0 12 59.9980000  0  6 22 19 18  4 29 14
  20839492.078    -2272516.48349  -1764388.07449  20839492.8784   20839498.5974
  22525080.075    -7661443.07849  -5954811.14349  22525082.8334   22525088.9264
  21562827.786    -7839416.58349  -6073553.55349  21562827.0334   21562832.1544
  23832871.957    -3268499.56949  -2533366.96849  23832872.2454   23832879.1924
  20073367.029    -4914355.93549  -3815627.44349  20073366.7204   20073371.0834
  19974074.713    -1167946.33349   -900101.65249  19974074.8484   19974080.9204
 94 11 19  0 13 29.9980000  0  6 22 19 18  4 29 14
  20835785.233    -2291994.73849  -1779565.92849  20835786.1414   20835791.5304
  22500346.938    -7791424.93949  -6056095.68349  22500348.0234   22500353.9944
  21539111.593    -7964057.39549  -6170676.23749  21539108.9104   21539113.9734
  23825111.426    -3309291.10849  -2565152.58749  23825109.2944   23825117.1394
  20059287.133    -4988357.16749  -3873290.72849  20059284.6464   20059289.0994
  19973507.167    -1170937.71949   -902432.61149  19973505.8724   19973512.1344
 94 11 19  0 13 59.9970000  0  6 22 19 18  4 29 14
  20832192.695    -2310911.77549  -1794306.46549  20832186.2844   20832191.6804
  22475655.689    -7921188.92649  -6157210.45749  22475655.2274   22475661.3154
  21515406.726    -8088597.33049  -6267720.32349  21515409.8644   21515414.6164
  23817438.392    -3349608.66649  -2596568.86149  23817437.9434   23817445.0384
  20045249.459    -5062112.81249  -3930762.65549  20045249.5154   20045253.8524
  19973036.930    -1173406.46149   -904356.31449  19973036.1044   19973042.0154
 94 11 19  0 14 29.9970000  0  6 22 19 18  4 29 14
  20828693.966    -2329276.34849  -1808616.51249  20828691.6234   20828696.8534
  22451000.081    -8050737.23449  -6258157.15949  22451002.9794   22451008.4794
  21491733.751    -8213029.56449  -6364680.48149  21491730.9784   21491736.0884
  23809851.799    -3389464.10449  -2627625.06249  23809853.8194   23809861.2454
  20031259.904    -5135632.78649  -3988050.93849  20031258.9664   20031263.3664
  19972670.201    -1175332.15649   -905856.87049  19972669.6584   19972675.6584
 94 11 19  0 14 59.9970000  0  6 22 19 18  4 29 14
  20825307.834    -2347083.53349  -1822492.23549  20825303.1484   20825308.3664
  22426397.090    -8180061.93349  -6358929.62049  22426393.2154   22426398.9704
  21468074.837    -8337351.73449  -6461554.87249  21468073.1614   21468078.2594
  23802360.207    -3428848.25649  -2658314.00449  23802358.3884   23802366.4634
  20017312.618    -5208917.09849  -4045155.58749  20017313.7404   20017317.8294
  19972406.117    -1176716.11349   -906935.28949  19972406.4474   19972412.4114
 94 11 19  0 15 29.9970000  0  6 22 19 18  4 29 14
  20822016.386    -2364338.73249  -1835937.83649  20822019.2364   20822024.6474
  22401831.764    -8309156.37549  -6459522.65049  22401827.1344   22401832.7584
  21444444.662    -8461553.23149  -6558335.22549  21444438.2304   21444443.5844
  23794955.741    -3467753.53849  -2688629.81449  23794955.5344   23794962.7024
  20003411.550    -5281970.70249  -4102080.47049  20003412.0674   20003416.1634
  19972244.899    -1177562.42149   -907594.76549  19972245.2604   19972250.9604
 94 11 19  0 15 59.9970000  0  6 22 19 18  4 29 14
  20818845.565    -2381041.91749  -1848953.30049  20818840.7394   20818846.4184
  22377306.415    -8438030.22749  -6559943.79849  22377303.7164   22377309.2184
  21420836.849    -8585616.50149  -6655007.87249  21420829.7574   21420835.0694
  23787640.720    -3506190.66149  -2718580.82849  23787642.0164   23787648.5434
  19989553.356    -5354799.36849  -4158830.07249  19989553.1944   19989557.3474
  19972186.740    -1177870.28249   -907834.66949  19972186.6434   19972192.7144
 94 11 19  0 16 29.9970000  0  6 22 19 18  4 29 14
  20815769.235    -2397162.34549  -1861514.66449  20815773.3384   20815778.4454
  22352821.104    -8566688.60149  -6660197.03449  22352820.9024   22352826.5774
  21397249.711    -8709541.94349  -6751573.11249  21397247.5564   21397252.9474
  23780417.576    -3544147.92549  -2748157.92149  23780418.2334   23780425.8304
  19975738.497    -5427399.77549  -4215401.80849  19975737.7804   19975741.9294
  19972230.753    -1177639.67449   -907654.98749  19972230.3844   19972236.0764
 94 11 19  0 16 59.9970000  0  6 22 19 18  4 29 14
  20812816.898    -2412688.22549  -1873612.74249  20812818.7554   20812823.9774
  22328375.759    -8695127.64749  -6760279.36549  22328379.6184   22328385.1164
  21373687.759    -8833338.94449  -6848038.27049  21373690.1164   21373695.2384
  23773286.052    -3581622.18049  -2777358.64949  23773287.3864   23773295.3154
  19961968.986    -5499755.65449  -4271783.00349  19961968.9434   19961972.9564
  19972372.267    -1176893.73649   -907073.74249  19972372.3454   19972378.3114
 94 11 19  0 17 29.9970000  0  6 22 19 18  4 29 14
  20809986.742    -2427600.43449  -1885232.63649  20809981.2674   20809986.2674
  22303977.723    -8823338.67749  -6860184.01449  22303981.8504   22303987.2384
  21350155.172    -8956984.81049  -6944385.65649  21350160.4904   21350166.0624
  23766250.041    -3618605.67149  -2806176.95149  23766248.7154   23766257.2214
  19948249.984    -5571844.36349  -4327956.01549  19948250.8784   19948255.0334
  19972615.577    -1175616.86149   -906078.78449  19972615.2824   19972621.1634
 94 11 19  0 17 59.9970000  0  6 22 19 18  4 29 14
  20807259.520    -2441872.84849  -1896353.98549  20807265.2514   20807270.4674
  22279626.479    -8951304.89049  -6959897.90549  22279630.4504   22279635.7604
  21326662.861    -9080472.33949  -7040609.66349  21326661.5974   21326667.0914
  23759305.631    -3655082.94049  -2834600.82149  23759308.5794   23759314.0324
  19934589.262    -5643637.69249  -4383898.86549  19934589.1714   19934593.1124
  19972963.490    -1173790.06649   -904655.31449  19972963.3684   19972968.8624
 94 11 19  0 18 29.9970000  0  6 22 19 18  4 29 14
  20804674.594    -2455500.08549  -1906972.59749  20804671.9344   20804677.1224
  22255327.310    -9079000.29049  -7059400.75449  22255330.8174   22255336.1244
  21303200.410    -9203792.17049  -7136702.99449  21303194.8344   21303200.0504
  23752465.064    -3691037.63349  -2862617.48149  23752465.3524   23752472.0984
  19920986.802    -5715122.51149  -4439601.31549  19920985.9804   19920989.7124
  19973417.747    -1171405.66349   -902797.35549  19973416.8774   19973422.7234
 94 11 19  0 18 59.9970000  0  6 22 19 18  4 29 14
  20802203.900    -2468492.32749  -1917096.41049  20802199.7394   20802204.9104
  22231080.551    -9206425.30649  -7158692.92049  22231082.4664   22231087.6504
  21279762.261    -9326937.35549  -7232660.23649  21279761.0644   21279766.2104
  23745724.534    -3726462.18749  -2890221.01049  23745724.8154   23745731.9814
  19907441.596    -5786304.26049  -4495067.60149  19907440.5424   19907444.4114
  19973978.679    -1168455.03949   -900498.17849  19973978.4774   19973983.9104
 94 11 19  0 19 29.9970000  0  6 22 19 18  4 29 14
  20799851.226    -2480853.28049  -1926728.31049  20799847.8674   20799852.7934
  22206883.146    -9333568.49549  -7257765.47649  22206887.8344   22206893.5614
  21256363.399    -9449895.28349  -7328471.56249  21256362.7354   21256367.9934
  23739087.240    -3761345.49849  -2917402.81949  23739087.7944   23739094.2884
  19893951.097    -5857181.78949  -4550296.83749  19893952.8984   19893956.9594
  19974651.805    -1164917.92449   -897741.99949  19974651.2604   19974657.3694
 94 11 19  0 19 59.9970000  0  6 22 19 18  4 29 14
  20797615.753    -2492587.68849  -1935871.99149  20797614.3844   20797619.5754
  22182750.078    -9460428.73749  -7356617.55949  22182747.0904   22182752.5554
  21233003.379    -9572660.61749  -7424132.81949  21233001.3514   21233006.4504
  23732553.134    -3795685.44449  -2944161.22149  23732552.3714   23732558.7724
  19880521.754    -5927756.39449  -4605290.02349  19880522.7224   19880526.8554
  19975437.114    -1160794.97849   -894529.32849  19975435.9864   19975441.8054
 94 11 19  0 20 29.9970000  0  6 22 19 18  4 29 14
  20795498.767    -2503712.56949  -1944540.71949  20795497.7984   20795502.7044
  22158662.045    -9587009.29549  -7455251.70849  22158659.5724   22158665.0934
  21209675.050    -9695233.81549  -7519644.35449  21209676.6584   21209681.3044
  23726117.431    -3829501.04449  -2970511.03449  23726116.4604   23726123.8784
  19867147.425    -5998041.47249  -4660057.60449  19867147.9944   19867152.1674
  19976330.131    -1156097.10449   -890868.65649  19976330.0434   19976335.7834
 94 11 19  0 20 59.9970000  0  6 22 19 18  4 29 14
  20793499.358    -2514225.62149  -1952732.69949  20793496.9764   20793501.9764
  22134626.282    -9713310.35749  -7553668.06149  22134625.0634   22134630.6184
  21186384.751    -9817606.88849  -7614999.95149  21186389.5404   21186394.2804
  23719779.197    -3862804.87949  -2996462.08349  23719780.8714   23719787.1894
  19853829.348    -6068028.31149  -4714592.79449  19853830.0084   19853833.9924
  19977335.125    -1150812.22849   -886750.58949  19977335.5044   19977341.5134
 94 11 19  0 21 29.9970000  0  6 22 19 18  4 29 14
  20791613.514    -2524134.50149  -1960453.89849  20791611.2354   20791616.4774
  22110650.774    -9839329.88949  -7651865.04549  22110644.5144   22110650.1864
  21163136.473    -9939783.33049  -7710202.32649  21163140.2844   21163145.3374
  23713538.679    -3895605.16649  -3022020.74649  23713538.4874   23713545.4114
  19840569.112    -6137710.88449  -4768890.88549  19840569.8354   19840573.8404
  19978453.098    -1144938.92949   -882174.01049  19978453.4104   19978458.7034
 94 11 19  0 21 59.9970000  0  6 22 19 18  4 29 14
  20789843.633    -2533450.14749  -1967712.83349  20789838.6724   20789843.9074
  22086714.495    -9965079.46349  -7749851.66849  22086714.9824   22086720.1784
  21139931.038   -10061779.61849  -7805264.32649  21139925.1164   21139930.3704
  23707386.348    -3927915.80149  -3047197.84249  23707388.7924   23707396.2824
  19827363.679    -6207107.15349  -4822965.88649  19827364.2404   19827368.0684
  19979681.118    -1138483.19649   -877143.58649  19979681.8154   19979687.8084
 94 11 19  0 22 29.9970000  0  6 22 19 18  4 29 14
  20788176.400    -2542172.20149  -1974509.22949  20788178.8534   20788184.2554
  22062838.105   -10090553.50749  -7847623.59049  22062837.8534   22062843.0814
  21116745.324   -10183584.01049  -7900176.80349  21116746.5184   21116751.5504
  23701332.248    -3959736.04749  -3071992.83549  23701334.3094   23701340.6034
  19814215.588    -6276202.86949  -4876806.69749  19814215.7304   19814219.7124
  19981022.588    -1131437.13049   -871653.16249  19981022.7834   19981028.4984
 94 11 19  0 22 59.9970000  0  6 22 19 18  4 29 14
  20786630.346    -2550291.01549  -1980835.56649  20786633.8464   20786639.4934
  22039013.013   -10215752.73449  -7945181.37149  22039013.5894   22039018.7004
  21093599.079   -10305187.73549  -7994932.91749  21093605.8734   21093611.1094
  23695374.774    -3991053.49249  -3096396.05549  23695374.8204   23695381.1754
  19801129.009    -6344978.78349  -4930398.31249  19801128.0444   19801132.2124
  19982477.018    -1123797.77649   -865700.43449  19982476.3114   19982482.1944
 94 11 19  0 23 29.9970000  0  6 22 19 18  4 29 14
  20785210.571    -2557789.89749  -1986678.83949  20785206.5374   20785212.3074
  22015245.098   -10340666.54649  -8042516.74749  22015242.9564   22015248.9224
  21070511.533   -10426595.55049  -8089536.37749  21070502.6544   21070507.9944
  23689512.942    -4021855.78649  -3120397.83149  23689514.2594   23689520.3394
  19788101.384    -6413430.11649  -4983737.00549  19788102.2614   19788106.4424
  19984041.927    -1115578.23149   -859295.60949  19984040.3804   19984046.4854
 94 11 19  0 23 59.9970000  0  6 22 19 18  4 29 14
  20783902.992    -2564665.86149  -1992036.72449  20783898.4534   20783903.8434
  21991526.766   -10465298.56049  -8139632.54849  21991526.4304   21991531.9724
  21047440.684   -10547800.44649  -8183981.72149  21047438.4674   21047443.3004
  23683750.974    -4052152.14649  -3144005.38949  23683748.9964   23683755.7514
  19775139.930    -6481555.04649  -5036821.36049  19775138.5844   19775142.6474
  19985713.631    -1106791.76749   -852449.02749  19985712.6644   19985718.5114
 94 11 19  0 24 29.9970000  0  6 22 19 18  4 29 14
  20782714.155    -2570921.20949  -1996911.00849  20782708.0164   20782713.4804
  21967855.406   -10589664.74449  -8236541.20649  21967859.9304   21967865.8874
  21024407.736   -10668796.51449  -8278264.34449  21024413.5314   21024418.7574
  23678076.987    -4081949.58349  -3167224.15449  23678076.6294   23678085.4064
  19762237.152    -6549352.31849  -5089650.39349  19762237.1724   19762241.1234
  19987490.534    -1097453.82949   -845172.72149  19987489.7024   19987495.6274
 94 11 19  0 24 59.9970000  0  6 22 19 18  4 29 14
  20781634.886    -2576554.40149  -2001300.49449  20781635.9944   20781641.2134
  21944245.427   -10713755.64649  -8333235.36349  21944246.0584   21944252.1154
  21001432.451   -10789599.87549  -8372396.80849  21001425.1754   21001430.7274
  23672506.039    -4111231.41649  -3190041.14249  23672506.1064   23672512.2784
  19749396.121    -6616834.75649  -5142234.10049  19749395.6314   19749399.6294
  19989372.081    -1087561.83249   -837464.68449  19989371.9324   19989377.6654
 94 11 19  0 25 29.9970000  0  6 22 19 18  4 29 14
  20780685.660    -2581573.49049  -2005211.45449  20780680.7724   20780686.0914
  21920677.865   -10837570.24149  -8429714.23349  21920685.1324   21920690.5614
  20978476.305   -10910198.28549  -8466369.57249  20978476.2144   20978481.3364
  23667036.182    -4139988.34249  -3212449.13949  23667034.4954   23667039.7764
  19736610.860    -6684012.60349  -5194580.46349  19736612.0644   19736615.9994
  19991362.317    -1077104.09449   -829315.80949  19991362.3324   19991368.0884
 94 11 19  0 25 59.9970000  0  6 22 19 18  4 29 14
  20779838.206    -2586011.86949  -2008669.91749  20779836.2474   20779841.5474
  21897172.946   -10961119.94149  -8525986.68549  21897174.4144   21897179.6084
  20955563.502   -11030586.50349  -8560178.55349  20955566.7764   20955571.8194
  23661659.754    -4168224.73549  -3234451.54449  23661661.0074   23661666.5604
  19723883.008    -6750897.80749  -5246698.79449  19723884.1734   19723888.0294
  19993460.357    -1066082.91649   -820727.89049  19993459.3424   19993465.2804
 94 11 19  0 26 29.9970000  0  6 22 19 18  4 29 14
  20779099.982    -2589885.74949  -2011688.51249  20779099.0864   20779104.2474
  21873716.412   -11084402.48849  -8622050.97449  21873714.2884   21873719.5834
  20932700.527   -11150783.77049  -8653838.73949  20932694.2414   20932699.0034
  23656382.539    -4195954.12149  -3256058.86549  23656383.8354   23656390.1064
  19711210.719    -6817500.72149  -5298597.16249  19711210.2254   19711214.1754
  19995661.758    -1054511.69249   -811711.36549  19995661.4284   19995666.8834
 94 11 19  0 26 59.9970000  0  6 22 19 18  4 29 14
  20778470.471    -2593197.34049  -2014268.95849  20778468.7724   20778473.8244
  21850311.091   -11207404.67949  -8717896.79849  21850307.9754   21850313.4344
  20909857.167   -11270788.05249  -8747348.54749  20909858.1164   20909863.1284
  23651202.099    -4223179.85449  -3277273.71849  23651201.7344   23651209.9544
  19698590.877    -6883813.97149  -5350269.81849  19698591.1944   19698595.1624
  19997965.443    -1042402.44849   -802275.60549  19997965.4654   19997971.4524
 94 11 19  0 27 29.9970000  0  6 22 19 18  4 29 14
  20777946.869    -2595940.11549  -2016406.17349  20777946.6114   20777952.2964
  21826956.143   -11330126.13549  -8813523.87749  21826954.2694   21826960.2134
  20887057.890   -11390588.69049  -8840699.67749  20887060.9274   20887065.8034
  23646113.351    -4249919.42549  -3298109.74049  23646114.5754   23646121.4204
  19686033.458    -6949813.45049  -5401697.97349  19686031.7954   19686035.8974
  20000370.389    -1029765.36949   -792428.54149  20000370.3754   20000376.0834
 94 11 19  0 27 59.9970000  0  6 22 19 18  4 29 14
  20777540.284    -2598089.37549  -2018080.91449  20777537.4264   20777543.3964
  21803664.171   -11452545.21449  -8908915.33749  21803658.5114   21803664.5894
  20864306.236   -11510184.03449  -8933890.82949  20864302.6834   20864307.6214
  23641117.456    -4276176.62849  -3318569.89149  23641117.2884   23641123.7734
  19673538.988    -7015465.05849  -5452855.05949  19673538.6494   19673542.8224
  20002877.163    -1016599.83149   -782169.68549  20002875.6764   20002881.5094
 94 11 19  0 28 29.9970000  0  6 22 19 18  4 29 14
  20777250.986    -2599627.87449  -2019279.74049  20777244.8494   20777250.2754
  21780420.695   -11574666.34049  -9004074.63249  21780419.6554   21780425.3614
  20841583.438   -11629573.17849  -9026921.30349  20841583.5324   20841588.4874
  23636212.823    -4301955.05549  -3338656.97649  23636212.0474   23636218.3944
  19661113.054    -7080754.73849  -5503730.12049  19661114.4984   19661118.5404
  20005481.145    -1002905.39349   -771498.70349  20005481.4864   20005487.4004
 94 11 19  0 28 59.9970000  0  6 22 19 18  4 29 14
  20777068.000    -2600556.35949  -2020003.22549  20777067.8234   20777073.6104
  21757235.202   -11696491.00449  -9099002.91349  21757237.5404   21757242.9494
  20818902.126   -11748756.36049  -9119791.29149  20818903.9064   20818908.6974
  23631398.161    -4327253.37649  -3358369.93049  23631397.8864   23631403.5504
  19648758.038    -7145685.24549  -5554325.30949  19648758.6314   19648762.5494
  20008188.597     -988681.29349   -760414.99749  20008188.2844   20008194.0484
 94 11 19  0 29 29.9960000  0  6 22 19 18  4 29 14
  20777010.895    -2600881.59349  -2020256.65049  20777006.2094   20777011.7484
  21734109.777   -11818006.56749  -9193690.33749  21734113.9234   21734119.4294
  20796265.769   -11867728.68449  -9212496.96749  20796264.2934   20796269.2244
  23626672.677    -4352074.44849  -3377711.03349  23626675.5624   23626680.5794
  19636472.238    -7210255.17549  -5604639.52549  19636471.3894   19636475.3364
  20010999.459     -973909.22849   -748904.30449  20010999.1664   20011005.1044
 94 11 19  0 29 59.9960000  0  6 22 19 18  4 29 14
  20777065.844    -2600612.41849  -2020046.89849  20777057.4274   20777062.7794
  21711044.331   -11939216.68149  -9288139.74049  21711048.1944   21711054.1834
  20773668.469   -11986487.43549  -9305036.22349  20773665.1574   20773670.0294
  23622048.310    -4376411.56249  -3396675.01549  23622043.8444   23622049.8614
  19624250.239    -7274481.00549  -5654685.61049  19624249.7484   19624253.5764
  20013916.629     -958581.64949   -736960.74549  20013916.0434   20013921.9124
 94 11 19  0 30 29.9960000  0  6 22 19 18  4 29 14
  20777223.919    -2599752.12249  -2019376.52849  20777221.4584   20777226.8804
  21688036.749   -12060124.70149  -9382353.75849  21688040.0574   21688045.9464
  20751108.861   -12105027.96049  -9397405.43049  20751107.6124   20751112.6254
  23617507.097    -4400261.72549  -3415259.57049  23617505.5604   23617509.9124
  19612088.893    -7338381.22049  -5704477.96549  19612089.7524   19612093.6744
  20016938.301     -942697.57649   -724583.55149  20016938.7244   20016944.5194
 94 11 19  0 30 59.9960000  0  6 22 19 18  4 29 14
  20777501.037    -2598293.15349  -2018239.65349  20777498.9234   20777504.3774
  21665093.164   -12180724.32849  -9476327.46349  21665090.4914   21665096.7624
  20728590.028   -12223347.32749  -9489602.31049  20728592.0794   20728596.9074
  23613055.486    -4423619.43049  -3433460.39249  23613059.5014   23613065.7404
  19599992.058    -7401953.51849  -5754014.80549  19599992.2064   19599996.1304
  20020068.850     -926251.17649   -711768.18149  20020068.2634   20020074.3824
 94 11 19  0 31 29.9960000  0  6 22 19 18  4 29 14
  20777897.441    -2596235.88249  -2016636.56349  20777890.5924   20777895.6234
  21642198.882   -12301040.05449  -9570079.94749  21642195.5644   21642201.3814
  20706120.667   -12341435.77349  -9581619.24549  20706120.7244   20706125.5864
  23608713.020    -4446483.92749  -3451276.88249  23608708.4744   23608715.9964
  19587958.428    -7465190.56949  -5803290.41849  19587958.5864   19587962.5614
  20023305.506     -909246.31149   -698517.65149  20023304.4034   20023310.1134
 94 11 19  0 31 59.9960000  0  6 22 19 18  4 29 14
  20778399.799    -2593569.82349  -2014559.09349  20778397.8314   20778402.8524
  21619350.625   -12421093.15249  -9663627.78749  21619350.3014   21619355.8684
  20683697.529   -12459294.61649  -9673457.27149  20683692.6984   20683697.6924
  23604452.348    -4468844.29249  -3468700.53649  23604453.5644   23604460.0634
  19575990.361    -7528087.15749  -5852300.73149  19575989.8124   19575993.8004
  20026644.796     -891694.29349   -684840.76649  20026644.4114   20026650.4834
 94 11 19  0 32 29.9960000  0  6 22 19 18  4 29 14
  20779025.061    -2590293.24749  -2012005.90249  20779021.2814   20779026.2864
  21596553.632   -12540885.57849  -9756972.49849  21596554.8014   21596560.1934
  20661314.344   -12576914.17749  -9765108.84449  20661310.5334   20661315.2984
  23600292.960    -4490706.84449  -3485736.27749  23600294.8314   23600300.5904
  19564088.053    -7590630.36649  -5901035.68049  19564088.2254   19564092.4094
  20030088.972     -873598.96849   -670740.52749  20030088.0434   20030093.8184
 94 11 19  0 32 59.9960000  0  6 22 19 18  4 29 14
  20779761.655    -2586413.48649  -2008982.68249  20779759.7294   20779764.8314
  21573823.982   -12660398.36049  -9850099.29149  21573811.7794   21573817.5744
  20638981.983   -12694272.76949  -9856557.06449  20638977.4174   20638982.3614
  23596230.283    -4512059.09549  -3502374.37649  23596231.1164   23596238.1584
  19552257.394    -7652797.70349  -5949477.74749  19552258.1684   19552262.2934
  20033634.723     -854958.89049   -656215.79749  20033634.9184   20033640.7524
 94 11 19  0 33 29.9960000  0  6 22 19 18  4 29 14
  20780609.890    -2581935.62749  -2005493.41849  20780611.8114   20780616.8664
  21551121.538   -12779620.76949  -9942999.81049  21551124.7614   21551130.2594
  20616698.715   -12811361.13649  -9947794.71749  20616696.5444   20616701.4314
  23592265.319    -4532900.68249  -3518614.57549  23592264.7414   23592271.9084
  19540500.242    -7714588.21549  -5997626.18949  19540499.8264   19540504.0434
  20037287.322     -835767.51949   -641261.49549  20037287.0594   20037293.0564
 94 11 19  0 33 59.9960000  0  6 22 19 18  4 29 14
  20781572.166    -2576863.25349  -2001540.89149  20781576.9284   20781581.9634
  21528497.061   -12898531.01249 -10035657.09449  21528496.7864   21528502.3334
  20594458.269   -12928179.50449 -10038821.97849  20594466.6344   20594471.6194
  23588388.518    -4553241.83249  -3534464.84249  23588393.8014   23588400.4574
  19528810.158    -7776016.17049  -6045492.11549  19528810.5764   19528814.5784
  20041045.391     -816018.89949   -625872.96649  20041044.9834   20041051.1634
 94 11 19  0 34 29.9960000  0  6 22 19 18  4 29 14
  20782658.905    -2571194.66249  -1997123.78349  20782655.7104   20782660.6424
  21505940.980   -13017111.76349 -10128057.62149  21505931.3154   21505937.1884
  20572291.862   -13044726.94849 -10129638.13249  20572288.1404   20572293.2514
  23584616.278    -4573082.41449  -3549925.01249  23584618.4024   23584625.1094
  19517188.990    -7837088.18049  -6093080.68149  19517189.0764   19517192.9304
  20044909.916     -795711.77149   -610049.24449  20044909.3694   20044915.5414
 94 11 19  0 34 59.9960000  0  6 22 19 18  4 29 14
  20783849.713    -2564933.94949  -1992245.28649  20783846.8744   20783852.2534
  21483429.108   -13135371.66849 -10220208.13949  21483427.0944   21483433.1024
  20550160.325   -13161031.68749 -10220265.17049  20550156.1504   20550161.1474
  23580944.834    -4592418.55449  -3564992.14449  23580940.3514   23580944.1184
  19505630.693    -7897828.73649  -6140410.97349  19505630.4464   19505634.3004
  20048879.005     -774847.96349   -593791.73549  20048879.4234   20048885.6034
 94 11 19  0 35 29.9960000  0  6 22 19 18  4 29 14
  20785147.017    -2558092.18349  -1986914.02949  20785148.9824   20785154.0314
  21460977.171   -13253319.11049 -10312115.18449  21460982.0414   21460988.3804
  20528071.068   -13277113.96649 -10310718.86549  20528066.5734   20528071.3894
  23577353.141    -4611266.97949  -3579679.19549  23577352.7084   23577357.7474
  19494131.423    -7958255.64549  -6187496.86149  19494131.6484   19494135.6164
  20052955.117     -753428.20549   -577101.02949  20052955.6214   20052961.8774
 94 11 19  0 35 59.9960000  0  6 22 19 18  4 29 14
  20786563.446    -2550683.62849  -1981141.11049  20786558.6454   20786563.9034
  21438595.190   -13370944.05849 -10403770.93849  21438599.0944   21438604.5934
  20506013.604   -13392973.13449 -10400998.70549  20506019.2104   20506024.0904
  23573856.172    -4629624.02149  -3593983.35849  23573858.6494   23573865.3764
  19482695.497    -8018352.75449  -6234325.76749  19482695.4574   19482699.3424
  20057137.026     -731457.96449   -559981.37349  20057136.3044   20057142.3944
 94 11 19  0 36 29.9960000  0  6 22 19 18  4 29 14
  20788076.293    -2542708.97849  -1974927.08249  20788075.8604   20788081.4954
  21416269.905   -13488244.09349 -10495173.50749  21416277.9714   21416283.4014
  20484016.726   -13508604.70849 -10491101.20649  20484015.1174   20484020.0884
  23570454.834    -4647485.43549  -3607901.34349  23570460.0074   23570466.1014
  19471324.058    -8078103.96449  -6280885.14049  19471325.1714   19471329.1184
  20061420.369     -708943.35949   -542437.53249  20061420.7494   20061426.7914
 94 11 19  0 36 59.9960000  0  6 22 19 18  4 29 14
  20789700.648    -2534174.44149  -1968276.78849  20789699.9814   20789705.4304
  21394018.844   -13605211.33249 -10586316.76049  21394019.8024   21394025.5354
  20462055.172   -13623999.20549 -10581018.97049  20462056.1784   20462061.3454
  23567153.622    -4664858.17449  -3621438.54249  23567155.6414   23567160.7894
  19460024.740    -8137490.23549  -6327160.14449  19460024.3544   19460028.2704
  20065811.930     -685873.20349   -524460.79049  20065811.0484   20065816.6794
 94 11 19  0 37 29.9960000  0  6 22 19 18  4 29 14
  20791422.477    -2525089.69849  -1961197.75449  20791428.8574   20791434.1154
  21371828.847   -13721848.67749 -10677202.95349  21371824.5394   21371830.0724
  20440149.424   -13739141.13349 -10670739.92949  20440145.4824   20440150.5414
  23563933.941    -4681765.96049  -3634613.43249  23563937.7464   23563943.5084
  19448797.672    -8196486.62149  -6373131.34549  19448797.6034   19448801.7104
  20070304.331     -662262.84249   -506063.10649  20070303.8044   20070309.9624
 94 11 19  0 37 59.9960000  0  6 22 19 18  4 29 14
  20793266.240    -2515434.94449  -1953674.55949  20793266.1084   20793271.3304
  21349695.466   -13838175.67549 -10767847.31549  21349688.1244   21349693.4064
  20418288.085   -13854021.47049 -10760257.04749  20418284.6434   20418289.2604
  23560808.561    -4698213.79149  -3647429.91349  23560806.3964   23560813.0234
  19437644.191    -8255098.36549  -6418802.83049  19437644.1034   19437648.1984
  20074895.726     -638132.87249   -487260.55049  20074895.6444   20074901.3724
 94 11 19  0 38 29.9960000  0  6 22 19 18  4 29 14
  20795216.992    -2505184.07549  -1945686.85749  20795216.9314   20795222.1194
  21327612.445   -13954202.50849 -10858257.78149  21327608.6954   21327614.0834
  20396475.754   -13968638.16549 -10849568.72649  20396473.6364   20396478.2184
  23557764.935    -4714197.87449  -3659885.04049  23557765.4674   23557771.5144
  19426563.262    -8313329.69449  -6464177.88049  19426562.9274   19426566.9704
  20079586.825     -613487.50149   -468056.36849  20079585.4004   20079591.0404
 94 11 19  0 38 59.9960000  0  6 22 19 18  4 29 14
  20797271.764    -2494342.56849  -1937238.91849  20797279.8414   20797285.2444
  21305581.902   -14069933.42849 -10948437.67149  21305586.1734   21305591.5274
  20374722.011   -14082985.63149 -10938670.61649  20374713.9744   20374718.7134
  23554809.114    -4729722.12649  -3671981.87149  23554810.4784   23554816.3304
  19415555.916    -8371171.54949  -6509249.44149  19415556.2274   19415560.1404
  20084372.998     -588331.78649   -448454.52349  20084372.2994   20084378.4704
 94 11 19  0 39 29.9960000  0  6 22 19 18  4 29 14
  20799460.337    -2482909.68049  -1928330.16249  20799455.3444   20799460.7074
  21283618.883   -14185371.68449 -11038389.51649  21283619.1514   21283624.1234
  20353001.426   -14197053.55749 -11027554.68449  20353007.7054   20353012.3584
  23551947.809    -4744785.28449  -3683719.39949  23551943.9974   23551950.0464
  19404621.808    -8428635.63049  -6554026.63749  19404621.1144   19404625.0294
  20089254.901     -562670.70549   -428458.87949  20089255.6214   20089261.4164
 94 11 19  0 39 59.9960000  0  6 22 19 18  4 29 14
  20801740.983    -2470883.09149  -1918958.78549  20801744.1544   20801749.1654
  21261712.098   -14300515.30249 -11128111.77049  21261707.4254   21261713.2294
  20331357.411   -14310847.81249 -11116225.50449  20331353.2744   20331357.9834
  23549170.933    -4759373.39249  -3695086.73149  23549168.5564   23549173.6964
  19393756.430    -8485730.87649  -6598516.42449  19393756.1704   19393760.0734
  20094236.832     -536496.24549   -408063.19949  20094236.3194   20094242.1324
 94 11 19  0 40 29.9960000  0  6 22 19 18  4 29 14
  20804148.417    -2458286.27549  -1909143.07849  20804141.0634   20804146.5494
  21239857.602   -14415353.28449 -11217595.87849  21239854.6014   21239860.2424
  20309753.131   -14424366.35749 -11204681.48149  20309751.3034   20309755.9444
  23546479.764    -4773486.66849  -3706084.08649  23546482.4384   23546487.5564
  19382966.277    -8542433.90849  -6642700.58949  19382966.0334   19382969.9044
  20099318.867     -509788.95149   -387252.32849  20099318.6384   20099324.5614
 94 11 19  0 40 59.9960000  0  6 22 19 18  4 29 14
  20806647.367    -2445133.08949  -1898893.83349  20806643.9854   20806649.2564
  21218058.375   -14529883.87249 -11306840.45549  21218059.9464   21218065.6344
  20288212.336   -14537598.31549 -11292914.13849  20288203.8794   20288208.5294
  23543880.765    -4787129.99049  -3716715.25649  23543886.0724   23543890.9304
  19372249.802    -8598744.70049  -6686579.11549  19372250.3984   19372254.3134
  20104505.196     -482535.38949   -366015.79449  20104504.6094   20104510.8874
 94 11 19  0 41 29.9960000  0  6 22 19 18  4 29 14
  20809251.830    -2431416.62649  -1888205.66749  20809254.2424   20809259.3614
  21196327.427   -14644109.00949 -11395847.01849  21196323.6794   21196329.2584
  20266711.430   -14650548.09449 -11380926.91749  20266710.0494   20266714.9624
  23541383.020    -4800292.76049  -3726971.95049  23541382.2474   23541386.7054
  19361607.827    -8654673.28849  -6730159.82149  19361607.4144   19361611.2684
  20109794.755     -454735.69049   -344353.70149  20109794.8434   20109800.8084
 94 11 19  0 41 59.9960000  0  6 22 19 18  4 29 14
  20811969.143    -2417140.54349  -1877081.43849  20811970.7884   20811976.1624
  21174638.962   -14758029.25749 -11484616.00749  21174645.4104   21174651.0614
  20245270.539   -14763225.15549 -11468727.18949  20245268.8414   20245273.4634
  23538970.158    -4812974.00449  -3736853.43649  23538969.4394   23538973.3504
  19351037.356    -8710215.04049  -6773439.09749  19351038.2104   19351042.1514
  20115186.966     -426397.68649   -322272.14049  20115186.8584   20115193.2664
 94 11 19  0 42 29.9960000  0  6 22 19 18  4 29 14
  20814788.853    -2402315.04749  -1865529.09649  20814792.3294   20814797.2834
  21153022.350   -14871633.40249 -11573138.68649  21153026.9374   21153032.8324
  20223885.302   -14875620.60649 -11556308.02649  20223880.6184   20223885.2134
  23536646.699    -4825180.91249  -3746365.33349  23536646.4674   23536650.9874
  19340539.734    -8765381.31749  -6816425.79649  19340540.4194   19340544.3014
  20120681.787     -397527.42049   -299775.84249  20120681.0384   20120687.1694
 94 11 19  0 42 59.9960000  0  6 22 19 18  4 29 14
  20817721.606    -2386931.94949  -1853542.25849  20817719.3944   20817724.3854
  21131466.474   -14984906.27649 -11661403.23549  21131472.4364   21131477.6914
  20202551.421   -14987738.95649 -11643672.94149  20202545.0864   20202549.7824
  23534414.180    -4836913.24949  -3755507.41149  23534412.3954   23534420.2824
  19330109.276    -8820191.37049  -6859134.91849  19330110.1694   19330114.2464
  20126272.467     -368146.34349   -276881.50649  20126272.0994   20126278.1204
 94 11 19  0 43 29.9960000  0  6 22 19 18  4 29 14
  20820756.068    -2370991.19149  -1841120.88449  20820753.2334   20820757.8394
  21109981.296   -15097835.88949 -11749400.30349  21109982.6814   21109988.0434
  20181260.396   -15099587.29349 -11730827.45849  20181261.0454   20181265.5154
  23532268.943    -4848177.72449  -3764284.94049  23532269.0324   23532275.6594
  19319747.489    -8874646.89349  -6901567.78149  19319747.8974   19319751.7484
  20131957.918     -338267.55549   -253599.34249  20131957.8004   20131963.8174
 94 11 19  0 43 59.9960000  0  6 22 19 18  4 29 14
  20823892.019    -2354497.33649  -1828268.52049  20823891.3644   20823896.6404
  21088560.119   -15210418.27749 -11837126.80349  21088558.5254   21088563.8514
  20160031.349   -15211158.18349 -11817765.78349  20160029.5944   20160034.2144
  23530208.730    -4858992.53049  -3772712.05549  23530211.0714   23530216.0064
  19309454.286    -8928737.39349  -6943716.20849  19309454.6364   19309458.6724
  20137737.680     -307893.50449   -229931.25249  20137737.9264   20137744.0134
 94 11 19  0 44 29.9960000  0  6 22 19 18  4 29 14
  20827126.919    -2337455.12649  -1814988.86949  20827134.7744   20827139.5634
  21067196.815   -15322667.23249 -11924593.48349  21067197.9604   21067204.0154
  20138848.765   -15322459.21049 -11904493.82249  20138849.8454   20138854.3334
  23528232.039    -4869378.46849  -3780805.00149  23528235.2354   23528240.5404
  19299232.666    -8982461.76649  -6985579.34449  19299231.4534   19299235.3254
  20143611.856     -277031.28049   -205882.77349  20143610.5804   20143616.8234
 94 11 19  0 44 59.9960000  0  6 22 19 18  4 29 14
  20830483.905    -2319857.44449  -1801276.37649  20830483.5074   20830488.2064
  21045895.351   -15434593.19549 -12011808.48049  21045899.1304   21045904.9654
  20117718.491   -15433492.64949 -11991013.35849  20117720.9974   20117725.4074
  23526345.276    -4879330.43749  -3788559.79249  23526340.7784   23526345.9904
  19289082.300    -9035794.87149  -7027137.59949  19289082.4414   19289086.3644
  20149577.593     -245683.02149   -181455.56449  20149576.1194   20149582.0704
 94 11 19  0 45 29.9950000  0  6 22 19 18  4 29 14
  20833937.720    -2301723.99349  -1787146.40149  20833934.2474   20833939.0144
  21024661.126   -15546217.45249 -12098788.38649  21024657.7894   21024663.6364
  20096644.421   -15544258.29649 -12077324.22749  20096642.9744   20096647.5884
  23524533.826    -4888851.34849  -3795978.68349  23524530.4624   23524534.2194
  19279009.426    -9088724.89449  -7068381.76249  19279010.1634   19279014.0984
  20155634.126     -213846.23249   -156647.67549  20155634.3234   20155640.4764
 94 11 19  0 45 59.9950000  0  6 22 19 18  4 29 14
  20837484.063    -2283061.68949  -1772604.32949  20837485.5394   20837490.1344
  21003463.957   -15657553.65249 -12185543.83149  21003471.1904   21003477.2614
  20075614.261   -15654756.44049 -12163426.65149  20075615.8234   20075620.4104
  23522798.582    -4897939.07149  -3803060.05049  23522800.5874   23522806.5094
  19269015.671    -9141247.63249  -7109308.56049  19269015.5944   19269019.4984
  20161788.153     -181513.23049   -131453.13049  20161787.2484   20161793.5544
 94 11 19  0 46 29.9950000  0  5 22 19 18 29 14
  20841139.027    -2263869.63249  -1757649.46249  20841137.5434   20841142.4464
  20982338.176   -15768593.29349 -12272068.19349  20982340.8404   20982346.7604
  20054640.905   -15764974.96149 -12249311.19649  20054641.9754   20054646.7204
  19259098.084    -9193365.78349  -7149920.09749  19259097.7054   19259101.4594
  20168035.470     -148678.80549   -105867.87049  20168035.2954   20168041.5634
 94 11 19  0 46 59.9950000  0  5 22 19 18 29 14
  20844889.298    -2244152.41449  -1742285.37349  20844889.8144   20844894.2884
  20961270.979   -15879325.08149 -12358352.67249  20961269.3854   20961274.9194
  20033718.521   -15874902.35649 -12334968.88749  20033723.3994   20033728.0924
  19249255.877    -9245085.96749  -7190221.53049  19249255.6634   19249259.5214
  20174380.719     -115336.75749    -79887.04749  20174380.2504   20174386.3504
 94 11 19  0 47 29.9950000  0  5 22 19 18 29 14
  20848739.196    -2223912.51849  -1726513.99849  20848741.3714   20848745.9284
  20940258.809   -15989746.33249 -12444395.17549  20940257.1024   20940262.3464
  20012865.944   -15984525.97149 -12420389.86849  20012862.6524   20012867.4904
  19239485.546    -9296427.48649  -7230227.89449  19239485.6134   19239489.4984
  20180822.004      -81484.50049    -53508.66749  20180822.1064   20180828.4134
 94 11 19  0 47 59.9950000  0  5 22 19 18 29 14
  20852698.620    -2203132.01449  -1710321.37349  20852695.4184   20852700.3324
  20919301.571   -16099856.50149 -12530195.27349  20919303.5554   20919309.0504
  19992054.335   -16093837.21349 -12505567.44449  19992061.3334   19992066.1894
  19229786.672    -9347393.86849  -7269941.94449  19229787.0204   19229790.8944
  20187359.656      -47127.36449    -26736.87449  20187359.9734   20187366.1184
 94 11 19  0 48 29.9950000  0  5 22 19 18 29 14
  20856755.791    -2181802.41049  -1693700.88249  20856754.3804   20856759.3014
  20898406.960   -16209660.54249 -12615756.82449  20898408.3444   20898414.1334
  19971321.446   -16202848.47049 -12590511.26849  19971316.9894   19971322.0164
  19220160.197    -9397984.44749  -7309363.16049  19220159.9284   19220163.8584
  20193992.283      -12278.40749       418.16149  20193991.7694   20193998.0434
 94 11 19  0 48 59.9950000  0  5 22 19 18 29 14
  20860918.012    -2159929.05549  -1676656.68749  20860916.6354   20860921.4874
  20877568.711   -16319169.12849 -12701088.15949  20877569.6574   20877575.2714
  19950619.947   -16311572.27749 -12675231.10249  19950627.6514   19950632.5894
  19210603.861    -9448203.15549  -7348494.61249  19210603.6494   19210607.5694
  20200715.104       23046.90549     27944.37549  20200713.9724   20200720.0984
 94 11 19  0 49 29.9950000  0  5 22 19 18 29 14
  20865186.442    -2137520.90149  -1659195.77249  20865180.5144   20865185.4114
  20856792.025   -16428393.75549 -12786198.21649  20856785.1514   20856790.7094
  19929989.718   -16420013.48849 -12759730.73349  19929991.9964   19929996.8854
  19201120.401    -9498037.42849  -7387326.50449  19201120.4324   19201124.4614
  20207524.035       58832.90849     55829.56749  20207523.8624   20207529.8824
 94 11 19  0 49 59.9950000  0  5 22 19 18 29 14
  20869541.119    -2114586.15349  -1641324.52249  20869544.8554   20869550.1234
  20836052.024   -16537340.27849 -12871091.56749  20836053.2414   20836058.7484
  19909402.748   -16528189.10449 -12844023.40549  19909406.7914   19909411.5914
  19191712.978    -9547478.66749  -7425852.12249  19191712.0254   19191715.9964
  20214420.676       95073.16349     84068.71949  20214420.2084   20214426.2444
 94 11 19  0 50 29.9950000  0  5 22 19 18 29 14
  20874003.089    -2091152.72649  -1623064.69849  20874004.1524   20874009.7204
  20815379.701   -16645998.97949 -12955760.65049  20815376.2984   20815381.7184
  19888870.360   -16636108.62049 -12928116.50949  19888870.2474   19888875.0894
  19182378.550    -9596529.49649  -7464073.53149  19182378.1204   19182381.9884
  20221402.908      131765.81649    112660.39449  20221402.7154   20221408.6324
 94 11 19  0 50 59.9950000  0  5 22 19 18 29 14
  20878561.279    -2067229.81649  -1604423.45949  20878556.2674   20878561.9434
  20794757.245   -16754358.11349 -13040196.29949  20794756.1034   20794761.6564
  19868388.091   -16743744.70049 -13011988.75349  19868387.9294   19868392.4764
  19173119.394    -9645182.59349  -7501985.03149  19173119.5574   19173123.4984
  20228473.892      168925.78149    141616.20749  20228473.8694   20228479.8364
 94 11 19  0 51 29.9950000  0  5 22 19 18 29 14
  20883204.489    -2042831.71549  -1585411.94849  20883199.0464   20883204.6024
  20774197.638   -16862419.62349 -13124400.04249  20774193.1944   20774197.9334
  19847960.334   -16851100.08549 -13095642.27349  19847958.8544   19847963.5604
  19163935.101    -9693444.69849  -7539591.85349  19163935.4474   19163939.3524
  20235634.503      206554.11849    170936.97849  20235634.3124   20235640.2844
 94 11 19  0 51 59.9950000  0  5 22 19 18 29 14
  20887932.916    -2017965.44749  -1566035.61949  20887930.8514   20887936.3344
  20753684.654   -16970176.65049 -13208366.51849  20753687.1454   20753692.4374
  19827587.192   -16958183.45149 -13179083.82749  19827581.6104   19827586.3404
  19154822.454    -9741334.97949  -7576908.94049  19154822.4034   19154826.2624
  20242882.837      244644.09049    200617.48349  20242882.8004   20242888.3654
 94 11 19  0 52 29.9950000  0  5 22 19 18 29 14
  20892748.304    -1992633.30849  -1546296.28149  20892751.5484   20892757.1944
  20733242.407   -17077623.22349 -13292091.08949  20733240.7014   20733245.8524
  19807264.218   -17064984.12949 -13262305.10449  19807258.1124   19807262.8194
  19145781.508    -9788848.22349  -7613932.23949  19145780.9244   19145784.8384
  20250219.013      283193.61049    230656.08149  20250218.0574   20250224.2064
 94 11 19  0 52 59.9950000  0  5 22 19 18 29 14
  20897670.278    -1966817.64049  -1526180.17049  20897664.0254   20897669.7684
  20712854.049   -17184766.50349 -13375579.32349  20712851.9304   20712857.4044
  19786990.532   -17171488.08549 -13345295.16749  19786991.1334   19786995.7784
  19136812.983    -9835981.65349  -7650659.57249  19136811.6684   19136815.5044
  20257642.742      322209.79149    261058.29349  20257642.6214   20257648.6974
 94 11 19  0 53 29.9950000  0  6 22 19 18 29 28 14
  20902672.000    -1940503.94149  -1505675.98549  20902671.4114   20902677.0004
  20692521.952   -17291599.26749 -13458825.59549  20692522.2534   20692527.4004
  19766783.119   -17277698.26149 -13428056.30849  19766779.7774   19766784.6324
  19127917.553    -9882725.85949  -7687083.61349  19127916.7264   19127920.4814
  23268274.733      -30077.81619
  20265154.332      361686.49649    291819.34649  20265155.1224   20265161.4144
 94 11 19  0 53 59.9950000  0  6 22 19 18 29 28 14
  20907775.330    -1913680.32649  -1484774.45449  20907776.0894   20907781.2504
  20672257.425   -17398112.21149 -13541822.65949  20672253.5164   20672258.5894
  19746627.748   -17383601.47349 -13510578.25749  19746627.1324   19746631.9714
  19119100.073    -9929058.92949  -7723187.29349  19119099.7004   19119103.6204
  23245814.036     -148104.845 9    -98938.88359                  23245818.5914
  20272753.606      401619.65049    322936.07149  20272753.6154   20272760.1114
 94 11 19  0 54 29.9950000  0  6 22 19 18 29 28 14
  20912981.658    -1886334.38349  -1463465.91449  20912979.7184   20912985.0764
  20652047.846   -17504300.04649 -13624566.39949  20652046.5504   20652051.6384
  19726533.183   -17489174.97149 -13592843.28949  19726537.1404   19726541.9974
  19110363.939    -9974969.87649  -7758962.05149  19110363.2204   19110367.0204
  23223396.245     -265910.66959   -190735.49249  23223394.9854   23223400.6734
  20280442.491      442028.13949    354423.20649  20280443.1034   20280449.7584
 94 11 19  0 54 59.9950000  0  6 22 19 18 29 28 14
  20918285.133    -1858471.47849  -1441754.54949  20918281.6094   20918287.1074
  20631905.731   -17610161.17449 -13707055.56449  20631902.0944   20631907.1454
  19706503.474   -17594418.34949 -13674851.08449  19706509.7254   19706514.5314
  19101704.689   -10020468.66149  -7794415.64049  19101705.2104   19101708.8984
  23201021.117                                    23201018.358    23201024.4184
  20288220.349      482896.52149    386268.69249  20288220.5054   20288226.8624
 94 11 19  0 55 29.9950000  0  5 22 19 18 29 14
  20923686.774    -1830105.96749  -1419651.54849  20923679.5494   20923684.5864
  20611824.074   -17715686.37849 -13789282.96749  20611821.3504   20611826.0314
  19686542.524   -17699330.42649 -13756600.72649  19686545.8074   19686550.4254
  19093128.290   -10065541.88949  -7829537.62849  19093127.9174   19093131.5864
  20296082.985      524206.42549    418458.23149  20296081.2784   20296087.6074
 94 11 19  0 55 59.9950000  0  5 22 19 18 29 14
  20929170.511    -1801265.57149  -1397178.49849  20929167.9294   20929172.5274
  20591793.268   -17820892.40949 -13871261.66249  20591800.9004   20591806.2504
  19666646.122   -17803925.47349 -13838103.32849  19666642.1334   19666646.7994
  19084629.164   -10110211.61249  -7864345.19449  19084627.6324   19084631.3234
  20304025.054      565946.22649    450982.74249  20304024.3924   20304030.3644
 94 11 19  0 56 29.9950000  0  6 22 19 18 29 28 14
  20934743.563    -1771955.28249  -1374339.29249  20934745.1834   20934750.2354
  20571839.190   -17925785.68849 -13952996.64849  20571840.2544   20571845.5994
  19646800.847   -17908206.59549 -13919361.31849  19646797.9654   19646802.5814
  19076202.582   -10154490.46249  -7898848.18549  19076201.4774   19076205.3834
  23134147.606      -50876.73019
  20312047.075      608108.72549    483836.65049  20312047.4434   20312053.4734
 94 11 19  0 56 59.9950000  0  6 22 19 18 29 28 14
  20940413.392    -1742175.44849  -1351134.20849  20940412.2744   20940417.1064
  20551940.634   -18030365.53849 -14034487.40149  20551939.0694   20551944.4374
  19627014.169   -18012183.10249 -14000381.94549  19627012.1234   19627016.5804
  19067852.331   -10198363.76649  -7933035.16849  19067852.6114   19067856.6074
  23111939.070     -167570.88159   -116031.38359  23111937.2244   23111943.2054
  20320145.245      650667.46449    516999.32049  20320146.2224   20320152.3514
 94 11 19  0 57 29.9950000  0  6 22 19 18 29 28 14
  20946163.791    -1711924.07449  -1327561.70449  20946168.7324   20946173.6934
  20532095.593   -18134643.72849 -14115743.09549  20532095.6084   20532101.0824
  19607287.819   -18115860.47249 -14081169.48549  19607282.5684   19607287.1294
  19059578.529   -10241842.35349  -7966914.58049  19059578.8924   19059582.8874
  23089775.941     -284038.18749   -206785.11249  23089774.2774   23089779.5934
  20328321.548      693627.86549    550474.95849  20328321.5774   20328327.2804
 94 11 19  0 57 59.9950000  0  6 22 19 18 29 28 14
  20952024.009    -1681176.07749  -1303602.20549  20952020.1754   20952024.8744
  20512311.332   -18238607.52349 -14196753.80049  20512311.8364   20512317.3904
  19587613.176   -18219230.94749 -14161717.88649  19587612.0004   19587616.4784
  19051380.101   -10284930.30049  -8000489.59649  19051379.5164   19051383.3944
  23067658.733     -400268.64149   -297354.38349  23067656.0164   23067661.1414
  20336578.752      737019.05949    584286.28149  20336578.2884   20336583.9554
 94 11 19  0 58 29.9950000  0  6 22 19 18 29 28 14
  20957956.869    -1649924.80649  -1279250.54549  20957967.2854   20957971.7474
  20492588.832   -18342252.60549 -14277516.17049  20492588.8074   20492594.2314
  19568002.961   -18322286.26449 -14242020.71449  19568001.1764   19568005.7974
  19043256.865   -10327610.90849  -8033747.20849  19043257.6964   19043261.6084
  23045587.069     -516256.76449   -387734.64549  23045584.6904   23045590.0484
  20344921.179      780850.68249    618440.80149  20344919.1494   20344925.3494
 94 11 19  0 58 59.9950000  0  6 22 19 18 29 28 14
  20964009.204    -1618196.02549  -1254526.80249  20964004.9834   20964009.8204
  20472929.639   -18445586.38649 -14358035.96249  20472925.3624   20472930.7014
  19548447.896   -18425027.89749 -14322079.11449  19548449.9594   19548454.6394
  19035211.952   -10369891.58449  -8066693.18149  19035212.1334   19035215.8124
  23023560.355     -632004.27049   -477927.48249  23023557.7654   23023563.1024
  20353343.742      825124.06049    652939.53049  20353344.0944   20353350.2544
 94 11 19  0 59 29.9950000  0  6 22 19 18 29 28 14
  20970128.546    -1586000.76149  -1229439.57449  20970130.9044   20970136.0484
  20453313.841   -18548620.48649 -14438322.23649  20453318.7324   20453323.8864
  19528954.981   -18527450.35249 -14401888.80749  19528959.8404   19528964.3074
  19027241.327   -10411780.08249  -8099333.56549  19027241.2164   19027244.8004
  23001581.529     -747513.11349   -567934.33049  23001577.9114   23001583.7304
  20361855.312      869842.28649    687784.90149  20361853.6224   20361859.6264
 94 11 19  0 59 59.9950000  0  6 22 19 18 29 28 14
  20976351.771    -1553359.11849  -1204004.51049  20976342.8884   20976347.6334
  20433773.148   -18651355.05849 -14518375.10249  20433769.0204   20433773.8004
  19509534.262   -18629551.07349 -14481447.79849  19509530.7764   19509535.1714
  19019347.836   -10453260.54949  -8131656.00249  19019347.6124   19019351.2704
  22979645.775     -862780.80749   -657753.19149  22979643.2694   22979649.1304
  20370446.161      914987.53749    722963.00949  20370444.5074   20370450.4504
 94 11 19  1  0 29.9950000  0  6 22 19 18 29 28 14
  20982637.898    -1520293.76649  -1178239.28349  20982634.7584   20982639.7094
  20414274.520   -18753803.25149 -14598204.81749  20414273.8334   20414278.8734
  19490166.804   -18731322.13149 -14560749.90449  19490164.2144   19490168.6534
  19011530.725   -10494337.75549  -8163664.20749  19011530.8534   19011534.4984
  22957757.071     -977807.30749   -747384.24849  22957755.2324   22957759.9284
  20379110.413      960522.89049    758445.10449  20379109.5774   20379114.9414
 94 11 19  1  0 59.9950000  0  6 22 19 18 29 28 14
  20989007.978    -1486805.27749  -1152144.34049  20989007.1024   20989012.4494
  20394833.275   -18855963.85149 -14677810.43249  20394832.9974   20394838.2924
  19470867.410   -18832759.31949 -14639791.84849  19470861.4464   19470865.8094
  19003788.817   -10535020.22349  -8195364.82049  19003789.0174   19003792.8234
  22935913.760    -1092591.61549   -836826.42749  22935911.7724   22935916.5054
  20387846.258     1006431.63349    794218.15149  20387846.0584   20387851.5874
 94 11 19  1  1 29.9950000  0  6 22 19 18 29 28 14
  20995472.895    -1452877.33149  -1125706.96749  20995463.5844   20995468.5894
  20375449.468   -18957830.07349 -14757186.66149  20375448.4974   20375453.8734
  19451620.698   -18933868.54049 -14718578.23649  19451620.9384   19451625.3224
  18996124.227   -10575303.57949  -8226754.44049  18996123.1934   18996127.2154
  22914116.262    -1207131.26249   -926078.12249  22914115.5494   22914120.5494
  20396655.373     1052714.58349    830282.77749  20396653.4654   20396658.8674
 94 11 19  1  1 59.9950000  0  6 22 19 18 29 28 14
  21001995.187    -1418521.19849  -1098935.94149  21002001.5304   21002006.1444
  20356122.337   -19059409.60249 -14836339.49549  20356118.5954   20356123.9624
  19432440.027   -19034666.64349 -14797122.19649  19432439.6694   19432443.9494
  18988531.535   -10615196.40149  -8257839.74949  18988531.8554   18988535.8054
  22892368.453    -1321425.65449  -1015138.58849  22892366.4254   22892371.2264
  20405532.608     1099381.07949    866646.25849  20405533.7544   20405539.1154
 94 11 19  1  2 29.9940000  0  6 22 19 18 29 28 14
  21008622.880    -1383734.80249  -1071829.65649  21008621.0724   21008625.9854
  20336844.530   -19160703.25149 -14915269.56049  20336842.8524   20336847.9594
  19413312.460   -19135163.09549 -14875431.10049  19413315.8944   19413320.2854
  18981013.921   -10654706.29949  -8288626.67549  18981013.4384   18981017.5044
  22870666.570    -1435469.10649  -1104003.60749  22870664.4284   22870669.7884
  20414489.976     1146442.65749    903317.58949  20414489.0564   20414494.7564
 94 11 19  1  2 59.9940000  0  6 22 19 18 29 28 14
  21015321.820    -1348510.46249  -1044382.11349  21015323.7534   21015328.5664
  20317618.502   -19261721.12749 -14993984.74349  20317619.5994   20317624.8794
  19394245.686   -19235375.55749 -14953518.71849  19394245.9764   19394250.3824
  18973570.346   -10693818.08949  -8319103.38949  18973570.5574   18973574.4884
  22849009.378    -1549264.26949  -1192675.10749  22849009.2824   22849014.4574
  20423523.846     1193922.91449    940315.18049  20423524.7084   20423529.7944
 94 11 19  1  3 29.9940000  0  6 22 19 18 29 28 14
  21022102.039    -1312861.49949  -1016603.69849  21022107.6284   21022112.4584
  20298446.318   -19362475.70749 -15072494.75149  20298446.9264   20298452.2864
  19375236.070   -19335303.40149 -15031384.55249  19375230.3384   19375234.8964
  18966204.593   -10732529.52149  -8349268.12549  18966204.2954   18966208.0884
  22827401.439    -1662806.40949  -1281149.46149  22827403.0784   22827408.2104
  20432641.331     1241820.77049    977638.18149  20432638.8424   20432644.7624
 94 11 19  1  3 59.9940000  0  6 22 19 18 29 28 14
  21028975.270    -1276782.94549   -988490.53449  21028973.2044   21028977.7694
  20279322.467   -19462970.03549 -15150801.97449  20279323.3414   20279328.6164
  19356270.933   -19434926.32049 -15109012.78049  19356272.5684   19356277.1384
  18958915.004   -10770830.31849  -8379112.89449  18958915.8534   18958919.6694
  22805846.462    -1776085.35049  -1369418.71549  22805846.1214   22805852.8374
  20441832.633     1290132.47249   1015283.65049  20441832.3274   20441838.2514
 94 11 19  1  4 29.9940000  0  6 22 19 18 29 28 14
  21035912.939    -1240280.18449   -960046.81449  21035919.4624   21035924.7314
  20260255.518   -19563195.39449 -15228899.60649  20260251.0574   20260256.3724
  19337376.825   -19534231.32349 -15186393.28449  19337375.4754   19337379.9494
  18951704.173   -10808727.08749  -8408642.83149  18951704.4404   18951708.0734
  22784341.980    -1889108.41849  -1457488.58549  22784338.7994   22784344.0534
  20451098.406     1338827.05349   1053227.48749  20451098.3934   20451104.3704
 94 11 19  1  4 59.9940000  0  6 22 19 18 29 28 14
  21042948.250    -1203354.26749   -931273.38049  21042946.1794   21042951.0004
  20241224.331   -19663152.91749 -15306788.53549  20241229.5914   20241235.0134
  19318542.776   -19633212.52649 -15263521.47449  19318540.0834   19318544.5474
  18944568.626   -10846226.48949  -8437863.13249  18944568.4684   18944572.1374
  22762876.301    -2001881.70049  -1545363.76449  22762878.8474   22762884.9654
  20460434.698     1387882.79449   1091452.73249  20460433.4304   20460439.5034
 94 11 19  1  5 29.9940000  0  6 22 19 18 29 28 14
  21050054.606    -1165993.43949   -902161.04449  21050055.7864   21050061.0174
  20222261.748   -19762815.14949 -15384447.37149  20222264.4564   20222269.9854
  19299768.987   -19731863.10349 -15340392.03449  19299767.3924   19299771.9844
  18937507.514   -10883330.33649  -8466775.20749  18937507.7564   18937511.5344
  22741468.487    -2114397.52749  -1633038.36649  22741468.1934   22741473.9194
  20469837.563     1437295.56049   1129956.17549  20469836.7854   20469842.7524
 94 11 19  1  5 59.9940000  0  6 22 19 18 29 28 14
  21057253.220    -1128205.86949   -872716.17949  21057246.4474   21057251.3604
  20203350.643   -19862183.11049 -15461876.90949  20203355.5964   20203360.6554
  19281052.999   -19830199.55449 -15417017.82149  19281054.5784   19281059.1154
  18930522.147   -10920041.97849  -8495381.66849  18930521.8774   18930525.6224
  22720107.365    -2226661.73449  -1720516.88849  22720105.0594   22720110.3974
  20479303.921     1487046.09949   1168722.83149  20479303.6954   20479309.7244
 94 11 19  1  6 29.9940000  0  6 22 19 18 29 28 14
  21064514.057    -1090010.95149   -842953.90249  21064514.7384   21064519.6354
  20184504.596   -19961245.03749 -15539067.98149  20184504.6464   20184509.7544
  19262400.225   -19928226.18449 -15493402.18949  19262400.8644   19262405.3104
  18923609.590   -10956364.74249  -8523685.11249  18923610.0874   18923613.4604
  22698789.930    -2338670.06349  -1807796.07649  22698789.8544   22698795.6254
  20488837.682     1537139.75349   1207756.85349  20488836.2224   20488842.4574
 94 11 19  1  6 59.9940000  0  6 22 19 18 29 28 14
  21071859.251    -1051405.97949   -812872.09449  21071861.2384   21071866.0654
  20165716.695   -20060006.16649 -15616024.66949  20165711.3144   20165716.4364
  19243810.587   -20025942.11549 -15569544.45749  19243805.9844   19243810.3044
  18916775.494   -10992285.53049  -8551675.32649  18916774.2624   18916778.1564
  22677527.204    -2450415.65949  -1894870.50449  22677525.6764   22677531.4104
  20498434.821     1587585.44349   1247065.16549  20498435.6264   20498442.2394
 94 11 19  1  7 29.9940000  0  6 22 19 18 29 28 14
  21079286.110    -1012406.20849   -782482.65249  21079282.4154   21079287.3594
  20146976.990   -20158470.31249 -15692749.94449  20146973.9254   20146979.3514
  19225274.888   -20123334.43249 -15645434.55649  19225272.9144   19225277.2564
  18910018.925   -11027787.21649  -8579338.96949  18910018.3984   18910022.2564
  22656316.124    -2561889.20049  -1981732.94549  22656312.9104   22656318.2974
  20508105.214     1638395.56549   1286657.45049  20508104.3144   20508110.7864
 94 11 19  1  7 59.9940000  0  6 22 19 18 29 28 14
  21086772.908     -973031.40449   -751800.98649  21086775.4904   21086780.5204
  20128290.608   -20256657.81549 -15769259.65649  20128289.4664   20128294.8104
  19206801.322   -20220391.83849 -15721063.68649  19206803.3954   19206807.7484
  18903339.747   -11062882.41849  -8606685.87549  18903340.1234   18903343.9744
  22635153.848    -2673090.47049  -2068383.24449  22635152.2264   22635157.1314
  20517845.901     1689578.72749   1326540.41549  20517844.4444   20517850.6874
 94 11 19  1  8 29.9940000  0  6 22 19 18 29 28 14
  21094348.053     -933271.60749   -720819.31449  21094341.3174   21094346.3874
  20109652.970   -20354553.59949 -15845542.05249  20109660.2234   20109665.6574
  19188402.709   -20317098.78349 -15796419.73049  19188400.6964   19188405.0234
  18896737.891   -11097576.95149  -8633720.56849  18896737.8544   18896741.6754
  22614046.059    -2784014.24649  -2154817.31049  22614043.8004   22614049.8124
  20527656.906     1741136.55349   1366715.33649  20527655.6474   20527661.7244
 94 11 19  1  8 59.9940000  0  6 22 19 18 29 28 14
  21101978.645     -893118.66849   -689531.29649  21101982.0014   21101987.2154
  20091081.512   -20452171.17249 -15921607.65949  20091084.1754   20091089.7094
  19170060.400   -20413468.91949 -15871513.32649  19170062.2294   19170066.5814
  18890213.349   -11131865.45349  -8660438.87649  18890213.0904   18890216.7544
  22592988.691    -2894661.93749  -2241036.23449  22592988.3174   22592993.8304
  20537535.083     1793045.71749   1407164.02449  20537533.5024   20537540.1214
 94 11 19  1  9 29.9940000  0  6 22 19 18 29 28 14
  21109694.751     -852580.90649   -657943.42949  21109696.1484   21109701.3844
  20072563.002   -20549509.10449 -15997455.36849  20072561.5044   20072566.9664
  19151788.652   -20509512.26849 -15946352.28349  19151785.6574   19151789.9404
  18883761.809   -11165764.65349  -8686853.83249  18883762.1584   18883765.9954
  22571988.443    -3005028.43049  -2327036.03649  22571986.1074   22571991.3244
  20547480.640     1845309.81949   1447889.27549  20547479.1614   20547485.4994
 94 11 19  1  9 59.9940000  0  6 22 19 18 29 28 14
  21117487.521     -811652.61749   -626051.24449  21117484.3724   21117489.8294
  20054093.044   -20646557.92649 -16073077.79749  20054093.7734   20054099.1154
  19133563.535   -20605241.26149 -16020946.28449  19133569.0294   19133573.2934
  18877385.887   -11199274.53949  -8712965.42749  18877385.5054   18877389.1034
  22551041.938    -3115110.57949  -2412814.30549  22551039.5204   22551043.7664
  20557491.122     1897912.56549   1488878.42449  20557489.0874   20557495.2224
 94 11 19  1 10 29.9940000  0  6 22 19 18 29 28 14
  21125348.340     -770335.72349   -593856.25849  21125346.7634   21125352.2064
  20035681.805   -20743317.04849 -16148474.49349  20035681.1464   20035686.3064
  19115412.819   -20700667.70549 -16095304.53549  19115409.9284   19115414.1784
  18871086.978   -11232376.70149  -8738759.31049  18871086.3624   18871090.0734
  22530144.680    -3224908.38049  -2498371.00249  22530143.8924   22530147.1684
  20567561.855     1950832.85749   1530115.01249  20567559.6584   20567565.7824
 94 11 19  1 10 59.9940000  0  6 22 19 18 29 28 14
  21133274.115     -728637.38449   -561364.04249  21133281.5914   21133287.2144
  20017326.214   -20839794.27649 -16223651.53049  20017322.1814   20017327.4094
  19097309.325   -20795780.30449 -16169418.23449  19097310.6234   19097314.8984
  18864867.596   -11265054.08049  -8764222.19349  18864867.9274   18864871.8424
  22509304.499    -3334411.07049  -2583697.76449  22509306.5524   22509311.0234
  20577689.790     2004085.30349   1571610.42149  20577692.9124   20577699.4834
 94 11 19  1 11 29.9940000  0  7 27 22 19 18 29 28 14
  23245425.335    -1835165.34559  -1415688.62759  23245418.7094   23245424.2154
  21141286.503     -686567.12549   -528582.02549  21141286.9874   21141292.7064
  19999011.418   -20935984.49649 -16298604.91549  19999017.6974   19999022.7884
  19079280.556   -20890545.67549 -16243261.36649  19079277.1644   19079281.6554
  18858730.868   -11297306.69649  -8789354.09749  18858730.5984   18858734.3274
  22488527.183    -3443614.24749  -2668791.09849  22488526.0804   22488531.4454
  20587893.446     2057682.08649   1613374.15449  20587892.2644   20587898.4444
 94 11 19  1 11 59.9940000  0  8 27 22 19 18 29 28 31 14
  23221037.375    -1963286.86249  -1515523.51249  23221039.0644   23221044.0044
  21149364.519     -644114.91949   -495502.37949  21149365.5594   21149371.1004
  19980772.617   -21031886.15649 -16373333.44249  19980768.0404   19980773.5014
  19061311.859   -20984939.57349 -16316815.04149  19061314.7764   19061319.3384
  18852680.699   -11329112.07249  -8814137.49449  18852678.2984   18852682.0974
  22467804.132    -3552515.82549  -2753649.40649  22467803.5304   22467808.8834
  22922077.026     -143299.97919    -90326.77059                  22922082.9004
  20598157.258     2111612.24549   1655397.64749  20598154.5504   20598160.9884
 94 11 19  1 12 29.9940000  0  8 27 22 19 18 29 28 31 14
  23196687.539    -2091266.10849  -1615247.47949  23196684.0794   23196688.9044
  21157525.300     -601275.47549   -462120.99449  21157517.4844   21157523.3314
  19962577.910   -21127498.80449 -16447836.76449  19962573.1854   19962578.9464
  19043429.030   -21078946.11349 -16390066.87749  19043426.0584   19043430.4884
  18846708.240   -11360481.56949  -8838581.24949  18846708.8004   18846712.5364
  22447138.876    -3661108.79649  -2838267.24049  22447138.7664   22447143.5974
  22896875.956     -275749.41259   -193533.99149  22896872.1534   22896878.2544
  20608482.534     2165886.93049   1697689.59749  20608482.6094   20608488.9934
 94 11 19  1 12 59.9940000  0  8 27 22 19 18 29 28 31 14
  23172362.274    -2219115.17049  -1714870.05049  23172355.6234   23172361.1654
  21165743.294     -558055.12249   -428442.78949  21165742.0544   21165748.0504
  19944428.745   -21222825.80049 -16522117.50149  19944433.3164   19944438.7634
  19025609.119   -21172568.11549 -16463019.07049  19025610.2754   19025614.5824
  18840818.045   -11391436.96649  -8862702.32249  18840818.1974   18840821.9754
  22426532.587    -3769393.86449  -2922645.14849  22426531.5324   22426537.8124
  22871672.406     -408178.89449   -296725.70649  22871672.2554   22871678.1554
  20618875.014     2220499.87049   1740245.13849  20618875.3124   20618881.5824
 94 11 19  1 13 29.9940000  0  8 27 22 19 18 29 28 31 14
  23148039.899    -2346836.85549  -1814393.32649  23148051.2854   23148056.5144
  21174044.713     -514451.08249   -394465.61849  21174039.6374   21174045.4064
  19926341.412   -21317854.55449 -16596165.83649  19926349.7504   19926355.0374
  19007866.174   -21265826.74549 -16535688.12049  19007863.7774   19007867.9644
  18835005.713   -11421988.05949  -8886508.36449  18835004.8034   18835008.3474
  22405987.157    -3877370.95449  -3006783.11749  22405984.9844   22405990.5554
  22846479.663     -540568.04549   -399886.00849  22846478.8694   22846484.9114
  20629331.952     2275441.69449   1783056.93149  20629330.5574   20629336.7484
 94 11 19  1 13 59.9940000  0  8 27 22 19 18 29 28 31 14
  23123772.545    -2474429.89449  -1913816.34249  23123770.4074   23123776.6024
  21182410.104     -470461.07349   -360187.68249  21182410.4124   21182416.3194
  19908322.609   -21412580.45749 -16669978.18349  19908324.1124   19908329.4144
  18990184.393   -21358741.09349 -16608088.89749  18990182.6784   18990186.9544
  18829266.358   -11452143.20149  -8910005.86949  18829266.3194   18829270.0854
  22385500.992    -3985033.34249  -3090675.84249  22385497.3504   22385502.6704
  22821296.128     -672895.56949   -502998.17849  22821297.9684   22821303.2334
  20639851.928     2330715.50349   1826127.41849  20639848.7024   20639854.8784
 94 11 19  1 14 29.9940000  0  8 27 22 19 18 29 28 31 14
  23099505.658    -2601885.06049  -2013131.91549  23099516.0124   23099520.3294
  21190854.936     -426102.99749   -325622.94649  21190851.7824   21190857.6794
  19890361.509   -21507005.70249 -16743556.24849  19890355.7684   19890361.0034
  18972565.794   -21451329.17449 -16680235.43649  18972563.7024   18972568.0334
  18823598.615   -11481925.90449  -8933213.16249  18823598.8054   18823602.5874
  22365070.454    -4092378.46549  -3174321.34149  22365070.4374   22365076.2304
  22796125.408     -805176.78549   -606074.45149  22796126.1474   22796131.6314
  20650427.141     2386320.70749   1869456.15449  20650429.9084   20650435.8204
 94 11 19  1 14 59.9940000  0  8 27 22 19 18 29 28 31 14
  23075282.575    -2729207.22349  -2112343.89349  23075287.8044   23075294.3644
  21199360.171     -381385.97549   -290778.50749  21199361.4124   21199366.5744
  19872442.983   -21601128.67449 -16816898.78249  19872444.7334   19872449.9554
  18955008.478   -21543583.33749 -16752121.78449  18955008.2674   18955012.7394
  18818005.364   -11511323.95649  -8956120.72649  18818004.3234   18818008.2464
  22344706.825    -4199402.21149  -3257716.37149  22344704.3594   22344709.9044
  22770958.650     -937410.94349   -709113.97349  22770962.8124   22770967.7834
  20661071.275     2442249.54749   1913037.07049  20661072.9194   20661079.0174
 94 11 19  1 15 29.9940000  0  8 27 22 19 18 29 28 31 14
  23051082.097    -2856414.49249  -2211466.31649  23051081.1974   23051086.8864
  21207935.768     -336329.96149   -255669.90749  21207934.9194   21207940.0094
  19854589.133   -21694960.30249 -16890014.29749  19854589.1454   19854594.4924
  18937519.943   -21635498.74749 -16823744.16849  18937517.4104   18937521.9304
  18812481.595   -11540344.84549  -8978734.39649  18812481.7764   18812485.8714
  22324398.945    -4306116.76849  -3340870.47649  22324396.5484   22324402.5134
  22745809.509    -1069599.24249   -812117.77049  22745807.4034   22745812.6494
  20671775.276     2498489.28049   1956860.23349  20671774.8894   20671780.7514
 94 11 19  1 15 59.9940000  0  8 27 22 19 18 29 28 31 14
  23026889.893    -2983499.26049  -2310493.31749  23026897.4114   23026902.7674
  21216572.069     -290940.84349   -220301.75649  21216572.3984   21216577.4654
  19836788.882   -21788520.02649 -16962917.94249  19836785.1524   19836790.5064
  18920096.301   -21727056.01649 -16895087.48349  18920094.6584   18920099.1614
  18807032.706   -11568978.50249  -9001046.33049  18807033.1564   18807036.9884
  22304151.277    -4412517.43349  -3423780.03049  22304149.6264   22304155.2994
  22720659.906    -1201760.65249   -915100.54749  22720658.3444   22720663.2814
  20682536.272     2555028.35349   2000916.64649  20682534.2024   20682539.8884
 94 11 19  1 16 29.9940000  0  8 27 22 19 18 29 28 31 14
  23002738.963    -3110476.53749  -2409436.55549  23002734.7904   23002739.7424
  21225281.312     -245218.92949   -184674.28249  21225273.0114   21225277.7464
  19819030.347   -21881818.29749 -17035617.86249  19819030.8184   19819036.1114
  18902738.508   -21818254.12849 -16966150.93749  18902740.3494   18902744.6374
  18801663.947   -11597200.27449  -9023037.31349  18801662.6384   18801666.5584
  22283963.784    -4518605.01449  -3506445.64449  22283961.3064   22283967.6554
  22695510.944    -1333897.33349  -1018064.15349  22695512.5104   22695519.4454
  20693346.445     2611848.56549   2045192.13149  20693346.9014   20693352.2234
 94 11 19  1 16 59.9940000  0  8 27 22 19 18 29 28 31 14
  22978586.756    -3237362.66749  -2508308.78349  22978588.3284   22978593.9954
  21234036.989     -199155.30549   -148780.54349  21234038.6804   21234043.5334
  19801327.076   -21974855.43149 -17108114.30149  19801326.4754   19801332.0264
  18885456.507   -21909090.08649 -17036932.18849  18885454.7234   18885459.0204
  18796376.260   -11624985.72149  -9044688.30849  18796375.2124   18796379.2114
  22263836.061    -4624376.37249  -3588864.87749  22263835.1194   22263839.1894
  22670380.883    -1465985.20249  -1120989.71349  22670377.4764   22670383.4654
  20704212.525     2668953.92249   2089689.80549  20704213.7884   20704219.1164
 94 11 19  1 17 29.9940000  0  8 27 22 19 18 29 28 31 14
  22954469.058    -3364145.98349  -2607100.88349  22954464.1764   22954468.7274
  21242873.759     -152744.07949   -112615.93649  21242870.8524   21242875.1634
  19783669.474   -22067639.94349 -17180413.89449  19783670.2794   19783675.7654
  18868239.638   -21999578.87449 -17107442.91749  18868235.3294   18868239.4984
  18791172.033   -11652327.20049  -9065993.35149  18791172.3204   18791176.3764
  22243764.330    -4729829.85149  -3671036.34949  22243767.1244   22243771.7144
  22645253.674    -1598011.01349  -1223866.98449  22645253.9694   22645259.1514
  20715137.190     2726350.67749   2134414.53649  20715135.9784   20715141.3584
 94 11 19  1 17 59.9940000  0  8 27 22 19 18 29 28 31 14
  22930363.145    -3490829.25549  -2705815.06449  22930355.6144   22930361.2514
  21251774.290     -105982.85649    -76178.60649  21251769.1024   21251773.4164
  19766059.420   -22160178.35649 -17252521.73149  19766060.7174   19766066.2334
  18851078.274   -22089741.92949 -17177699.83149  18851077.8284   18851081.9414
  18786055.485   -11679217.52549  -9086946.85149  18786055.3254   18786059.2464
  22223760.832    -4834965.80449  -3752960.42549  22223760.4974   22223765.6794
  22620142.486    -1729981.66449  -1326701.16149  22620140.2244   22620146.4584
  20726112.864     2784037.19049   2179365.04449  20726113.2964   20726118.7714
 94 11 19  1 18 29.9940000  0  8 27 22 19 18 29 28 31 14
  22906262.681    -3617414.71149  -2804453.01349  22906265.6104   22906272.9074
  21260733.658      -58874.01049    -39470.41449  21260733.6974   21260738.0414
  19748497.209   -22252456.06849 -17324426.42049  19748500.5534   19748506.3384
  18833981.776   -22179573.20349 -17247698.21449  18833983.3704   18833987.6424
  18781023.286   -11705664.03249  -9107554.51349  18781022.7534   18781026.4274
  22203814.470    -4939780.58649  -3834634.22349  22203814.2784   22203819.9304
  22595044.997    -1861879.30849  -1429478.54949  22595041.6524   22595047.5274
  20737152.195     2842024.24449   2224549.75449  20737147.9884   20737153.3374
 94 11 19  1 18 59.9940000  0  8 27 22 19 18 29 28 31 14
  22882201.407    -3743872.41749  -2902991.42249  22882203.2194   22882209.5854
  21269761.519      -11426.23149     -2498.12149  21269762.5624   21269767.0044
  19730992.574   -22344466.90049 -17396123.15749  19730991.6164   19730997.0484
  18816956.498   -22269061.30449 -17317429.18949  18816954.2014   18816958.8084
  18776069.250   -11731694.97349  -9127838.36149  18776069.0804   18776073.0554
  22183929.543    -5044272.01549  -3916056.08949  22183931.9924   22183936.1824
  22569957.302    -1993710.31449  -1532203.96849  22569954.6314   22569960.7624
  20748237.284     2900306.34849   2269964.36749  20748238.6254   20748244.1724
 94 11 19  1 19 29.9940000  0  8 27 22 19 18 29 28 31 14
  22858159.677    -3870185.36749  -3001417.07549  22858166.3914   22858171.2454
  21278857.837       36351.79149     34731.50049  21278854.4294   21278859.1364
  19713536.096   -22436214.74449 -17467614.96649  19713532.8814   19713538.1994
  18799992.378   -22358196.39949 -17386885.09349  18799992.3444   18799996.8574
  18771191.560   -11757324.98849  -9147809.79149  18771191.8694   18771195.8564
  22164108.571    -5148437.05349  -3997223.61249  22164108.3534   22164114.1664
  22544880.240    -2125487.18849  -1634887.17849  22544878.5284   22544884.2174
  20759382.300     2958861.74349   2315591.92549  20759381.4424   20759387.1354
 94 11 19  1 19 59.9930000  0  8 27 22 19 18 29 28 31 14
  22834153.574    -3996355.19549  -3099731.15549  22834156.3504   22834162.2724
  21288005.423       84445.40849     72207.05249  21288006.3014   21288010.6654
  19696128.083   -22527686.98649 -17538892.01949  19696126.1474   19696131.5614
  18783098.826   -22446963.73149 -17456054.42949  18783100.6884   18783105.0244
  18766388.725   -11782566.01249  -9167478.11549  18766388.5334   18766392.3704
  22144354.815    -5252267.35449  -4078130.31949  22144351.1554   22144355.9084
  22519814.228    -2257207.75149  -1737526.57949  22519813.7184   22519818.9344
  20770570.467     3017672.49449   2361418.46849  20770572.6584   20770578.2754
 94 11 19  1 20 29.9930000  0  8 27 22 19 18 29 28 31 14
  22810177.736    -4122380.24649  -3197932.43149  22810175.5784   22810181.3854
  21297214.508      132840.87449    109917.81049  21297215.6504   21297220.1424
  19678771.446   -22618890.69049 -17609959.82449  19678770.7434   19678776.0364
  18766278.807   -22535369.96149 -17524942.38349  18766277.5244   18766281.9174
  18761656.171   -11807430.75349  -9186853.23549  18761657.1774   18761660.9874
  22124658.059    -5355766.87449  -4158779.25249  22124654.7234   22124660.9384
  22494758.138    -2388871.51349  -1840121.63049  22494758.2784   22494764.1564
  20781813.493     3076729.93249   2407437.24049  20781810.6364   20781816.7094
 94 11 19  1 20 59.9930000  0  8 27 22 19 18 29 28 31 14
  22786225.069    -4248267.12549  -3296026.05549  22786218.6214   22786225.7174
  21306482.497      181536.41149    147862.38449  21306481.7474   21306486.6494
  19661464.219   -22709823.83749 -17680816.80949  19661466.3654   19661471.6864
  18749524.656   -22623416.83449 -17593550.31949  18749522.8164   18749527.1414
  18756998.979   -11831912.66649  -9205930.04349  18756998.4044   18757002.0304
  22105025.102    -5458927.27149  -4239163.91749  22105024.1044   22105029.8184
  22469716.185    -2520469.82259  -1942665.84059  22469715.5724   22469722.3824
  20793092.855     3136020.82449   2453637.91949  20793093.4104   20793099.2024
 94 11 19  1 21 29.9930000  0  8 27 22 19 18 29 28 31 14
  22762285.915    -4374045.47649  -3394035.10649  22762284.8924   22762289.8334
  21315801.820      230522.22949    186033.14649  21315803.4984   21315808.4034
  19644214.787   -22800477.02149 -17751455.63549  19644215.8554   19644220.8594
  18732833.169   -22711114.40749 -17661886.07349  18732834.4834   18732838.7974
  18752416.233   -11855999.74149  -9224699.19649  18752414.7874   18752418.2574
  22085458.543    -5561749.40449  -4319284.99249  22085457.5864   22085462.3204
  22444687.133    -2651997.90349  -2045155.16149  22444687.7094   22444692.5944
  20804423.631     3195555.79949   2500028.79849  20804422.8984   20804428.5344
 94 11 19  1 21 59.9930000  0  8 27 22 19 18 29 28 31 14
  22738368.850    -4499715.08949  -3491959.42549  22738370.0594   22738376.2194
  21325187.120      279796.58849    224428.74349  21325180.2854   21325184.9774
  19627017.169   -22890845.01349 -17821872.23149  19627019.3284   19627024.3904
  18716211.954   -22798463.24749 -17729950.08349  18716212.5364   18716216.9244
  18747908.306   -11879679.41849  -9243150.88949  18747908.4394   18747912.4514
  22065955.337    -5664228.11549  -4399138.50549  22065956.2544   22065962.3464
  22419674.909    -2783441.07549  -2147578.41449  22419674.7544   22419680.7604
  20815801.473     3255353.27349   2546624.22649  20815801.7784   20815807.5874
 94 11 19  1 22 29.9930000  0  8 27 22 19 18 29 28 31 14
  22714479.050    -4625272.88949  -3589796.60649  22714476.9764   22714483.1754
  21334612.332      329369.88649    263057.28849  21334613.6164   21334618.8334
  19609876.278   -22980943.04249 -17892078.46849  19609874.4334   19609879.6194
  18699658.929   -22885455.06449 -17797735.89249  18699658.4154   18699662.6514
  18743480.811   -11902946.48549  -9261281.07049  18743481.0834   18743484.8734
  22046524.115    -5766363.45449  -4478724.44649  22046521.5924   22046526.0614
  22394678.209    -2914804.37549  -2249939.41149  22394676.9674   22394682.5754
  20827234.541     3315410.75749   2593422.24349  20827230.2364   20827236.1144
 94 11 19  1 22 59.9930000  0  8 27 22 19 18 29 28 31 14
  22690606.685    -4750718.89049  -3687546.66649  22690605.7844   22690611.2924
  21344104.929      379246.91049    301922.49849  21344105.1704   21344109.8774
  19592784.390   -23070770.05949 -17962073.52749  19592780.8184   19592786.1494
  18683176.369   -22972070.74249 -17865228.60849  18683175.8884   18683180.2574
  18739133.931   -11925793.93149  -9279084.26649  18739133.3424   18739136.9224
  22027152.468    -5868150.40649  -4558038.92449  22027151.4824   22027156.9754
  22369695.648    -3046085.18949  -2352236.09649  22369694.5304   22369699.6944
  20838713.982     3375741.76549   2640433.42749  20838711.0394   20838716.8294
 94 11 19  1 23 29.9930000  0  8 27 22 19 18 29 28 31 14
  22666763.245    -4876027.05549  -3785189.32549  22666759.7454   22666765.4124
  21353647.003      429428.80449    341025.26749  21353654.1294   21353659.2694
  19575731.402   -23160328.88449 -18031859.59849  19575738.4184   19575743.5104
  18666767.655   -23058301.61049 -17932421.46849  18666766.7554   18666771.0684
  18734867.699   -11948216.67849  -9296556.53649  18734866.6624   18734870.4464
  22007851.514    -5969580.38349  -4637075.19749  22007850.5434   22007855.9824
  22344730.368    -3177274.35749  -2454461.39849  22344730.1494   22344736.0674
  20850247.804     3436365.97549   2687673.06649  20850247.3964   20850253.5314
 94 11 19  1 23 59.9930000  0  8 27 22 19 18 29 28 31 14
  22642944.373    -5001192.16549  -3882720.49949  22642942.3954   22642947.8354
  21363262.190      479916.60749    380366.40149  21363261.6244   21363266.6454
  19558744.022   -23249643.18149 -18101455.12149  19558742.3374   19558747.5114
  18650432.079   -23144140.14349 -17999308.61749  18650432.1914   18650436.4014
  18730677.890   -11970226.69549  -9313707.19749  18730677.7824   18730681.6944
  21988617.481    -6070652.05649  -4715832.30049  21988616.9214   21988622.0124
  22319785.077    -3308363.66749  -2556608.84249  22319784.3214   22319790.8864
  20861833.643     3497266.35949   2735127.89549  20861836.4474   20861842.5544
 94 11 19  1 24 29.9930000  0  8 27 22 19 18 29 28 31 14
  22619154.598    -5126214.58449  -3980140.48249  22619150.3874   22619157.1144
  21372929.977      530720.43349    419953.79849  21372929.2744   21372934.3684
  19541797.530   -23338687.50949 -18170840.28949  19541797.3144   19541802.6944
  18634173.725   -23229572.45749 -18065879.23149  18634174.8954   18634179.0874
  18726570.144   -11991816.32549  -9330530.28449  18726569.4804   18726573.3344
  21969451.641    -6171351.90549  -4794299.68049  21969454.1834   21969458.7894
  22294860.944    -3439343.99449  -2658671.36749  22294859.4664   22294865.7974
  20873477.986     3558446.50149   2782800.72749  20873478.3734   20873484.5334
 94 11 19  1 24 59.9930000  0  8 27 22 19 18 29 28 31 14
  22595388.430    -5251103.85249  -4077456.70149  22595385.1864   22595390.5904
  21382658.872      581834.63249    459783.03849  21382656.0244   21382661.0614
  19524909.368   -23427442.73349 -18240000.18049  19524908.1854   19524913.3184
  18617992.046   -23314608.44849 -18132141.02149  18617992.9444   18617997.2594
  18722541.088   -12012985.44249  -9347025.69049  18722541.3944   18722545.1324
  21950364.207    -6271676.03249  -4872474.27349  21950361.7244   21950368.2874
  22269960.080    -3570198.15049  -2760635.60349  22269959.1994   22269965.2474
  20885178.231     3619912.21149   2830696.09749  20885175.4414   20885181.2044
 94 11 19  1 25 29.9930000  0  8 27 22 19 18 29 28 31 14
  22571648.868    -5375877.69049  -4174683.02249  22571641.5724   22571646.6834
  21392447.852      633264.52749    499858.28049  21392443.0384   21392447.7894
  19508069.966   -23515911.71449 -18308937.01949  19508073.0774   19508078.0984
  18601886.427   -23399253.92149 -18198098.51249  18601885.6804   18601890.1484
  18718592.669   -12033734.84549  -9363194.05349  18718592.6644   18718596.2284
  21931344.354    -6371627.92649  -4950358.78649  21931342.8644   21931348.3934
  22245080.746    -3700942.50149  -2862514.24249  22245079.2004   22245085.0494
  20896923.142     3681637.20149   2878793.48849  20896921.0064   20896927.1344
 94 11 19  1 25 59.9930000  0  8 27 22 19 18 29 28 31 14
  22547919.074    -5500549.48649  -4271829.80449  22547917.2484   22547923.0044
  21402293.811      685014.80849    540183.17449  21402290.6484   21402295.4484
  19491293.773   -23604084.84349 -18377643.31949  19491294.2404   19491299.6704
  18585857.581   -23483502.99149 -18263747.12049  18585853.4984   18585857.9904
  18714726.951   -12054055.01849  -9379027.94349  18714726.2074   18714729.6004
  21912395.101    -6471204.66049  -5027951.01449  21912394.0364   21912398.7364
  22220220.210    -3831590.94749  -2964318.20449  22220217.8254   22220223.1504
  20908715.178     3743600.50449   2927076.58749  20908712.1434   20908718.1724
 94 11 19  1 26 29.9930000  0  8 27 22 19 18 29 28 31 14
  22524214.419    -5625120.45849  -4368898.03549  22524212.3644   22524217.4494
  21412198.246      737091.84549    580762.68649  21412200.2254   21412205.6224
  19474572.245   -23691960.13449 -18446117.54749  19474572.1124   19474577.1744
  18569897.137   -23567361.96249 -18329091.75349  18569895.6864   18569900.1554
  18710942.394   -12073935.75949  -9394519.42149  18710942.5434   18710946.8234
  21893514.947    -6570403.47349  -5105248.74649  21893515.9194   21893521.8704
  22195373.616    -3962154.68149  -3066056.13549  22195372.1954   22195377.7444
  20920551.318     3805807.22549   2975549.34249  20920549.8194   20920556.0644
 94 11 19  1 26 59.9930000  0  8 27 22 19 18 29 28 31 14
  22500533.217    -5749578.05449  -4465877.93449  22500529.1724   22500534.5044
  21422173.267      789494.21449    621595.69049  21422172.0724   21422177.2884
  19457906.699   -23779547.74149 -18514367.60249  19457904.8094   19457909.6414
  18554015.684   -23650828.29749 -18394130.44049  18554012.6224   18554016.9824
  18707245.379   -12093370.71149  -9409663.54649  18707244.7204   18707248.0634
  21874712.199    -6669219.03349  -5182247.84049  21874712.6824   21874718.0334
  22170542.225    -4092636.76649  -3167730.45249  22170541.8174   22170547.8704
  20932433.789     3868247.70449   3024204.24649  20932431.6494   20932438.2434
 94 11 19  1 27 29.9930000  0  8 27 22 19 18 29 28 31 14
  22476868.018    -5873913.18949  -4562762.39549  22476868.5944   22476873.9634
  21432203.150      842207.66749    662671.09849  21432203.3784   21432208.7024
  19441286.683   -23866868.63149 -18582409.82649  19441288.1534   19441293.0654
  18538203.769   -23733905.97849 -18458866.28249  18538203.4304   18538207.8714
  18703632.613   -12112353.79349  -9424455.55549  18703631.9354   18703635.7944
  21855980.662    -6767651.90949  -5258948.74149  21855981.2424   21855986.7294
  22145724.024    -4223044.64649  -3269346.92849  22145726.0614   22145732.5444
  20944352.775     3930906.42149   3073029.21049  20944355.1454   20944361.4074
 94 11 19  1 27 59.9930000  0  8 27 22 19 18 29 28 31 14
  22453237.297    -5998112.35449  -4659540.91249  22453235.3014   22453239.8754
  21442288.878      895214.15749    703974.84549  21442289.8164   21442295.2294
  19424725.242   -23953916.32749 -18650239.17249  19424723.4614   19424728.5584
  18522467.013   -23816609.71049 -18523310.73349  18522465.4684   18522469.9844
  18700105.406   -12130887.49449  -9438897.40249  18700105.1594   18700109.4194
  21837326.975    -6865696.29849  -5335346.93049  21837324.7434   21837329.7494
  22120932.024    -4353341.02149  -3370876.52249  22120931.9114   22120937.7104
  20956323.702     3993792.81249   3122031.59349  20956321.7984   20956328.5244
 94 11 19  1 28 29.9930000  0  8 27 22 19 18 29 28 31 14
  22429629.256    -6122166.03349  -4756206.07449  22429627.8334   22429633.1814
  21452430.590      948494.92649    745492.33349  21452429.2134   21452434.2854
  19408208.630   -24040693.82749 -18717857.98149  19408210.2074   19408215.2794
  18506799.958   -23898946.62449 -18587469.35749  18506797.1674   18506801.6044
  18696663.533   -12148976.71249  -9452992.90149  18696663.2404   18696666.6784
  21818740.139    -6963348.75849  -5411439.71449  21818741.3704   21818747.1524
  22096165.718    -4483492.91449  -3472293.53049  22096164.8374   22096170.3254
  20968331.729     4056905.65349   3171210.40249  20968332.0424   20968338.3554
 94 11 19  1 28 59.9930000  0  8 27 22 19 18 29 28 31 14
  22406051.880    -6246068.08549  -4852753.08749  22406049.5304   22406055.4904
  21462612.802     1002038.87449    787214.87549  21462618.0724   21462623.3034
  19391744.431   -24127199.44449 -18785264.93449  19391748.6794   19391753.5844
  18491203.208   -23980906.24949 -18651333.99049  18491200.7914   18491205.1554
  18693304.552   -12166629.46949  -9466748.29449  18693303.6984   18693307.6524
  21800232.078    -7060607.97149  -5487226.08949  21800234.2614   21800238.9644
  22071427.515    -4613488.05249  -3573588.39049  22071427.6674   22071432.8984
  20980382.795     4120232.64549   3220556.11549  20980383.1114   20980389.0814
 94 11 19  1 29 29.9930000  0  8 27 22 19 18 29 28 31 14
  22382505.986    -6369824.17849  -4949186.35049  22382500.3354   22382505.4504
  21472857.545     1055853.60349    829148.43849  21472858.5034   21472863.7924
  19375341.879   -24213432.81549 -18852459.74249  19375339.0704   19375343.7994
  18475678.673   -24062483.34849 -18714900.54749  18475677.2614   18475681.4474
  18690026.557   -12183853.12349  -9480169.32349  18690026.6044   18690030.3324
  21781804.501    -7157469.27249  -5562702.40249  21781801.9724   21781806.7274
  22046723.793    -4743311.58449  -3674749.54449  22046723.1814   22046728.3884
  20992475.136     4183780.24649   3270073.71549  20992475.8004   20992481.8814
 94 11 19  1 29 59.9930000  0  8 27 22 19 18 29 28 31 14
  22358984.418    -6493445.33249  -5045514.47649  22358975.1874   22358981.1604
  21483149.164     1109934.53149    871289.41649  21483149.9314   21483155.2414
  19358984.455   -24299383.57249 -18919434.33049  19358983.0884   19358988.0684
  18460229.651   -24143659.41549 -18778154.61249  18460230.0764   18460234.2064
  18686827.707   -12200662.85949  -9493267.82249  18686827.5434   18686831.0524
  21763445.273    -7253931.09749  -5637867.42949  21763444.8974   21763450.4154
  22022047.829    -4872971.35349  -3775783.12749  22022049.5684   22022054.4744
  21004607.850     4247547.09049   3319762.16149  21004610.4124   21004616.2424
 94 11 19  1 30 29.9930000  0  8 27 22 19 18 29 28 31 14
  22335465.939    -6616931.86449  -5141737.66249  22335477.5954   22335481.8874
  21493489.202     1164283.75249    913639.45449  21493492.0144   21493497.4294
  19342679.334   -24385062.53149 -18986197.13149  19342679.1164   19342684.0674
  18444863.733   -24224405.75149 -18841073.82349  18444864.3154   18444868.7294
  18683705.618   -12217068.88849  -9506051.74049  18683705.6214   18683709.2454
  21745164.233    -7349994.52249  -5712721.99149  21745165.4174   21745170.7624
  21997401.848    -5002497.17349  -3876712.31049  21997401.5164   21997406.8684
  21016790.134     4311532.69049   3369621.05849  21016786.5934   21016792.3554
 94 11 19  1 30 59.9930000  0  8 27 22 19 18 29 28 31 14
  22312002.608    -6740297.28349  -5237866.48349  22312000.8284   22312006.5644
  21503885.329     1218913.14049    956207.79449  21503887.9454   21503892.9184
  19326428.857   -24470469.45949 -19052747.96449  19326426.4154   19326431.6114
  18429582.870   -24304717.18949 -18903654.15349  18429581.4644   18429586.0134
  18680662.452   -12233063.94149  -9518515.41649  18680662.0114   18680665.9754
  21726958.349    -7445658.92949  -5787265.64349  21726960.7604   21726966.5934
  21972776.813    -5131906.66149  -3977550.83749  21972775.5094   21972780.9584
  21029005.864     4375744.58349   3419656.29749  21029005.7064   21029011.1684
 94 11 19  1 31 29.9930000  0  8 27 22 19 18 29 28 31 14
  22288542.049    -6863556.75749  -5333912.74249  22288545.4904   22288550.3194
  21514328.243     1273801.23349    998977.72849  21514332.9594   21514337.8244
  19310223.791   -24555606.47249 -19119088.47249  19310225.4254   19310230.3164
  18414380.082   -24384603.58049 -18965903.27849  18414379.5214   18414384.0754
  18677697.959   -12248640.98349  -9530653.37349  18677697.4264   18677701.1124
  21708832.637    -7540927.00749  -5861500.48449  21708832.3264   21708836.6854
  21948173.502    -5261194.36049  -4078294.47049  21948172.7334   21948178.3404
  21041268.523     4440178.04749   3469864.19349  21041267.3204   21041272.7954
 94 11 19  1 31 59.9930000  0  8 27 22 19 18 29 28 31 14
  22265094.096    -6986698.99049  -5429867.64349  22265112.5284   22265117.8894
  21524824.293     1328925.36649   1041931.59549  21524822.7484   21524827.6664
  19294075.695   -24640472.57949 -19185217.88749  19294075.8474   19294080.8484
  18399260.754   -24464064.67949 -19027821.01249  18399258.5354   18399263.1154
  18674813.778   -12263794.52449  -9542461.31849  18674813.8554   18674817.6564
  21690781.391    -7635795.11249  -5935423.64549  21690778.8154   21690784.6624
  21923597.328    -5390347.69549  -4178933.39749  21923595.9994   21923600.6984
  21053569.826     4504832.68549   3520244.41149  21053569.9934   21053575.8554
 94 11 19  1 32 29.9930000  0  8 27 22 19 18 29 28 31 14
  22241695.129    -7109722.02249  -5525729.64049  22241700.8504   22241706.3804
  21535357.881     1384288.58649   1085071.78549  21535358.2274   21535362.9244
  19277974.302   -24725084.76949 -19251149.44249  19277974.9324   19277979.8334
  18384213.597   -24543125.60649 -19089426.91649  18384214.0154   18384218.3544
  18672013.911   -12278508.41549  -9553926.69149  18672013.8424   18672017.9774
  21672805.917    -7730262.92849  -6009034.87849  21672802.7814   21672807.6994
  21899049.098    -5519350.02949  -4279454.64649  21899047.5934   21899053.0844
  21065915.037     4569705.13949   3570794.35749  21065915.1924   21065920.6514
 94 11 19  1 32 59.9930000  0  8 27 22 19 18 29 28 31 14
  22218311.000    -7232638.71649  -5621508.77549  22218310.9324   22218316.8444
  21545938.328     1439885.47449   1128394.04049  21545937.9714   21545942.6294
  19261924.825   -24809436.97949 -19316878.41649  19261923.3854   19261928.0804
  18369240.830   -24621811.64249 -19150740.69849  18369240.3594   18369244.7434
  18669302.161   -12292761.92049  -9565033.32549  18669301.6944   18669305.3294
  21654904.746    -7824329.23249  -6082333.26849  21654902.4114   21654907.0464
  21874534.065    -5648181.70849  -4379842.92249  21874531.7434   21874536.9634
  21078302.727     4634780.12349   3621502.15649  21078298.5434   21078303.8234
 94 11 19  1 33 29.9930000  0  8 27 22 19 18 29 28 31 14
  22194945.371    -7355429.43749  -5717189.76749  22194943.8654   22194949.3854
  21556557.488     1495709.92649   1171893.62949  21556560.5654   21556565.9124
  19245922.679   -24893519.79449 -19382397.47249  19245922.8844   19245927.6894
  18354341.040   -24700118.02249 -19211758.64349  18354339.0934   18354343.7144
  18666675.075   -12306563.59349  -9575787.87049  18666675.2674   18666678.8034
  21637078.670    -7917986.59049  -6155312.99849  21637079.9924   21637084.5344
  21850049.177    -5776837.01149  -4480093.78749  21850050.0124   21850054.5914
  21090718.698     4700053.92749   3672364.83649  21090719.2874   21090725.3584
 94 11 19  1 33 59.9930000  0  8 27 22 19 18 29 28 31 14
  22171610.235    -7478090.95049  -5812770.06149  22171602.7934   22171607.7484
  21567230.966     1551779.01449   1215583.83649  21567230.6834   21567235.1424
  19229972.526   -24977335.75349 -19447708.58349  19229972.9814   19229977.8414
  18339508.112   -24778054.36649 -19272488.24849  18339508.3194   18339512.8614
  18664133.558   -12319925.25349  -9586199.54649  18664132.7944   18664136.4924
  21619336.188    -8011234.86849  -6227973.95849  21619335.3124   21619340.5574
  21825596.126    -5905334.11249  -4580221.35649  21825596.9454   21825602.4854
  21103178.546     4765526.68049   3723382.54949  21103178.7954   21103183.9864
 94 11 19  1 34 29.9930000  0  8 27 22 19 18 29 28 31 14
  22148285.897    -7600621.15749  -5908248.07149  22148286.4104   22148290.9364
  21577955.396     1608114.99949   1259482.04249  21577951.2474   21577955.1784
  19214079.835   -25060868.26249 -19512798.82749  19214077.4604   19214082.2474
  18324750.400   -24855614.94549 -19332925.05449  18324749.1034   18324753.5854
  18661674.989   -12332840.27249  -9596263.19349  18661674.9514   18661678.6004
  21601669.544    -8104067.91249  -6300311.35449  21601670.0084   21601674.4494
  21801172.696    -6033671.75649  -4680224.62449  21801174.6524   21801180.6744
  21115675.828     4831198.75249   3774555.58149  21115675.9534   21115681.3134
 94 11 19  1 34 59.9930000  0  8 27 22 19 18 29 28 31 14
  22124997.098    -7723008.50249  -6003614.75949  22124996.2254   22125001.7634
  21588726.139     1664710.39749   1303582.36349  21588720.5814   21588725.0904
  19198240.892   -25144097.12349 -19577652.45949  19198239.1804   19198244.1204
  18310068.248   -24932777.09649 -19393051.39149  18310065.4794   18310069.9424
  18659298.206   -12345328.02649  -9605993.91249  18659298.5894   18659302.1774
  21584085.409    -8196480.37349  -6372321.04249  21584084.3614   21584088.8804
  21776784.343    -6161860.96849  -4780112.23849  21776782.3544   21776787.2174
  21128213.703     4897075.96049   3825888.45449  21128211.8244   21128217.3264
 94 11 19  1 35 29.9930000  0  8 27 22 19 18 29 28 31 14
  22101740.090    -7845241.42149  -6098861.11549  22101737.0064   22101741.2874
  21599542.843     1721571.90849   1347890.04049  21599540.9344   21599545.6504
  19182462.245   -25227027.77349 -19642273.72349  19182458.0934   19182463.3114
  18295461.924   -25009527.18549 -19452856.64649  18295460.5074   18295465.0334
  18656999.111   -12357412.47649  -9615410.36549  18656998.8754   18657002.6254
  21566579.885    -8288468.07149  -6443999.72349  21566579.8974   21566583.9584
  21752417.540    -6289904.67549  -4879886.50349  21752415.6744   21752420.8854
  21140789.760     4963163.49049   3877385.20049  21140787.9784   21140793.5644
 94 11 19  1 35 59.9930000  0  8 27 22 19 18 29 28 31 14
  22078510.516    -7967330.99049  -6193995.77349  22078503.5514   22078508.6344
  21610411.214     1778697.85049   1392403.76249  21610411.4744   21610416.4074
  19166730.177   -25309668.97849 -19706669.44849  19166731.7454   19166737.0574
  18280938.559   -25085850.67049 -19512329.48449  18280936.4884   18280941.0584
  18654776.394   -12369091.75549  -9624511.10649  18654776.4764   18654779.9994
  21549158.851    -8380028.39349  -6515345.41049  21549156.4834   21549160.6794
  21728080.358    -6417790.41949  -4979537.70449  21728080.4684   21728084.9074
  21153400.997     5029453.94249   3929040.07549  21153402.6014   21153408.0084
 94 11 19  1 36 29.9930000  0  8 27 22 19 18 29 28 31 14
  22055300.099    -8089274.97049  -6289016.98549  22055297.3834   22055303.3594
  21621332.870     1836068.27749   1437107.99349  21621328.7454   21621333.5354
  19151056.076   -25392028.56349 -19770845.73149  19151059.5724   19151064.2874
  18266498.548   -25161729.99649 -19571456.22349  18266497.4504   18266501.6244
  18652632.018   -12380362.34749  -9633293.38749  18652631.7734   18652635.3394
  21531815.297    -8471159.50949  -6586356.63449  21531814.9494   21531819.3254
  21703773.538    -6545515.23549  -5079063.48549  21703774.8504   21703779.6444
  21166056.401     5095938.54649   3980846.24549  21166054.2614   21166059.1604
 94 11 19  1 36 59.9930000  0  8 27 22 19 18 29 28 31 14
  22032117.045    -8211080.99649  -6383930.70049  22032118.0924   22032124.1224
  21632296.535     1893677.90949   1481998.61049  21632291.5014   21632296.3454
  19135434.073   -25474127.30049 -19834818.75149  19135436.5954   19135441.5994
  18252146.643   -25237152.83249 -19630227.25349  18252144.9604   18252149.0094
  18650564.861   -12391219.91449  -9641753.83549  18650565.5484   18650569.2954
  21514557.369    -8561856.59849  -6657029.65049  21514555.4964   21514559.5214
  21679500.230    -6673082.05149  -5178466.14749  21679499.2944   21679504.2454
  21178743.766     5162611.39049   4032799.10149  21178741.9404   21178746.8584
 94 11 19  1 37 29.9930000  0  8 27 22 19 18 29 28 31 14
  22008956.275    -8332763.23449  -6478747.97049  22008963.5444   22008969.4324
  21643300.546     1951535.01949   1527082.07749  21643301.3134   21643306.3554
  19119864.450   -25555980.75449 -19898600.63949  19119860.3634   19119865.2714
  18237877.409   -25312120.33649 -19688643.47749  18237879.0744   18237883.3114
  18648581.618   -12401647.38449  -9649879.13749  18648581.3834   18648584.8274
  21497378.848    -8652118.80449  -6727363.82049  21497378.9204   21497383.2864
  21655261.904    -6800464.15849  -5277724.88449  21655259.4874   21655264.3324
  21191463.984     5229454.32149   4084884.48449  21191461.4924   21191466.4524
 94 11 19  1 37 59.9930000  0  8 27 22 19 18 29 28 31 14
  21985829.380    -8454321.55249  -6573468.68849  21985831.2284   21985838.7764
  21654360.266     2009629.83349   1572350.77949  21654356.3454   21654360.9174
  19104335.617   -25637588.18049 -19962190.82849  19104330.9554   19104335.6504
  18223701.754   -25386629.47449 -19746702.53949  18223700.2914   18223704.6634
  18646681.414   -12411626.31649  -9657654.92449  18646682.2384   18646686.2044
  21480287.777    -8741941.25049  -6797355.29949  21480286.3704   21480291.6444
  21631060.851    -6927651.65549  -5376831.99149  21631056.8354   21631061.3054
  21204217.110     5296470.43849   4137104.80649  21204214.0594   21204219.2454
 94 11 19  1 38 29.9920000  0  8 27 22 19 18 29 28 31 14
  21962723.473    -8575749.71749  -6668087.96149  21962724.6944   21962731.0454
  21665456.323     2067967.30249   1617808.55649  21665457.4644   21665462.1424
  19088850.081   -25718951.41849 -20025590.73449  19088848.0024   19088852.5934
  18209609.909   -25460691.33249 -19804413.06249  18209606.7224   18209611.1844
  18644870.850   -12421151.44449  -9665077.10749  18644869.7984   18644873.6374
  21463281.217    -8831317.83649  -6866999.34949  21463279.0384   21463282.9954
  21606890.200    -7054637.24749  -5475781.75149  21606891.2744   21606895.9814
  21216999.548     5363653.93149   4189455.57849  21216998.9334   21217003.7514
 94 11 19  1 38 59.9920000  0  8 27 22 19 18 29 28 31 14
  21939645.725    -8697062.43649  -6762617.30949  21939639.5414   21939645.7154
  21676610.082     2126560.73749   1663465.78949  21676607.3984   21676611.9654
  19073409.210   -25800067.73349 -20088798.23649  19073412.1404   19073416.9594
  18195594.966   -25534321.00849 -19861786.82649  18195595.4294   18195599.8314
  18643144.787   -12430221.26449  -9672144.50349  18643144.0704   18643147.5274
  21446355.703    -8920250.27049  -6936297.31549  21446355.5804   21446358.9314
  21582768.423    -7181403.62749  -5574560.67349  21582768.3584   21582774.1454
  21229817.111     5431003.69649   4241935.90849  21229815.0054   21229820.0324
 94 11 19  1 39 29.9920000  0  8 27 22 19 18 29 28 31 14
  21916569.966    -8818257.55549  -6857055.03349  21916577.1754   21916582.6474
  21687802.212     2185391.50149   1709307.95049  21687802.5914   21687807.4394
  19058030.946   -25880918.93549 -20151799.15949  19058026.4634   19058031.4904
  18181667.486   -25607524.96649 -19918828.86549  18181665.2234   18181669.7804
  18641504.486   -12438841.47049  -9678861.54749  18641503.3974   18641507.2154
  21429520.462    -9008734.20849  -7005245.80449  21429517.2384   21429520.8884
  21558690.398    -7307937.00149  -5673158.05049  21558690.4804   21558695.4784
  21242660.772     5498509.20949   4294537.57049  21242661.2794   21242666.2144
 94 11 19  1 39 59.9920000  0  8 27 22 19 18 29 28 31 14
  21893531.464    -8939335.54649  -6951401.49349  21893537.1974   21893542.6284
  21699042.592     2244451.79249   1755328.95149  21699041.0204   21699046.3994
  19042691.002   -25961501.27749 -20214590.58349  19042692.2874   19042697.0624
  18167818.059   -25680299.73849 -19975536.46449  18167816.7964   18167821.2054
  18639947.710   -12447016.10549  -9685231.40049  18639948.2084   18639951.9704
  21412767.943    -9096764.65949  -7073840.91149  21412765.7684   21412770.6004
  21534654.046    -7434262.61749  -5771593.58349  21534650.8984   21534656.5814
  21255538.101     5566177.53149   4347266.12649  21255537.9894   21255543.1234
 94 11 19  1 40 29.9920000  0  8 27 22 19 18 29 28 31 14
  21870513.066    -9060307.72049  -7045665.49149  21870515.9954   21870522.4704
  21710320.588     2303730.03149   1801519.78049  21710321.4054   21710326.7524
  19027406.714   -26041813.46349 -20277171.49749  19027409.1394   19027414.1164
  18154049.321   -25752649.02849 -20031912.52349  18154048.9734   18154053.4934
  18638475.296   -12454753.66749  -9691260.66949  18638475.3114   18638479.1164
  21396098.845    -9184345.25349  -7142085.50249  21396099.5104   21396103.3074
  21510650.165    -7560383.46549  -5869869.52549  21510650.8534   21510656.1464
  21268443.130     5633987.61849   4400105.14549  21268442.3904   21268446.6184
 94 11 19  1 40 59.9920000  0  8 27 22 19 18 29 28 31 14
  21847519.200    -9181170.57949  -7139844.32749  21847516.1974   21847522.9814
  21721643.324     2363206.41349   1847865.01449  21721639.2374   21721644.7804
  19012184.974   -26121838.66049 -20339528.77749  19012181.1354   19012186.0954
  18140364.198   -25824567.22749 -20087952.66349  18140363.5294   18140367.9444
  18637086.640   -12462056.89649  -9696951.50849  18637085.6494   18637089.3684
  21379518.197    -9271474.24049  -7209978.19649  21379519.6154   21379523.0044
  21486690.246    -7686301.36749  -5967987.33649  21486689.3834   21486695.0814
  21281372.137     5701942.22049   4453056.76449  21281373.0984   21281378.4644
 94 11 19  1 41 29.9920000  0  8 27 22 19 18 29 28 31 14
  21824543.506    -9301920.39849  -7233935.06249  21824539.0114   21824545.0734
  21732995.711     2422869.79549   1894355.93849  21732992.9064   21732998.2924
  18997007.506   -26201580.25349 -20401665.07049  18997006.9604   18997011.8334
  18126761.677   -25896052.22849 -20143655.25149  18126760.4754   18126764.6214
  18635775.805   -12468937.24249  -9702312.83049  18635776.5394   18635780.2104
  21363026.094    -9358153.74049  -7277520.63449  21363024.9144   21363029.4004
  21462765.528    -7812036.11949  -6065962.42749  21462763.2194   21462768.4314
  21294331.996     5770051.00349   4506128.49849  21294333.4304   21294339.1334
 94 11 19  1 41 59.9920000  0  8 27 22 19 18 29 28 31 14
  21801589.284    -9422545.41349  -7327928.54749  21801584.2304   21801590.8744
  21744384.450     2482726.69249   1940997.66649  21744383.3144   21744388.5984
  18981885.062   -26281039.34749 -20463581.22449  18981886.1224   18981891.1654
  18113241.180   -25967100.87249 -20199017.82649  18113240.1684   18113244.5484
  18634549.440   -12475388.96949  -9707340.15849  18634548.7254   18634552.5724
  21346618.604    -9444380.77149  -7344710.50349  21346616.1224   21346621.1504
  21438874.745    -7937584.97849  -6163792.66649  21438872.2464   21438877.1564
  21307329.111     5838325.35949   4559329.27149  21307325.6284   21307331.5184
 94 11 19  1 42 29.9920000  0  8 27 22 19 18 29 28 31 14
  21778658.250    -9543029.49249  -7421812.20449  21778656.2674   21778663.5004
  21755812.989     2542774.14649   1987787.88849  21755809.6844   21755815.1644
  18966831.576   -26360192.15549 -20525258.71449  18966824.0554   18966828.9384
  18099801.921   -26037716.12049 -20254042.68549  18099802.4954   18099806.8144
  18633405.226   -12481403.91149  -9712027.13249  18633404.2444   18633407.9474
  21330291.938    -9530150.09649  -7411543.72049  21330294.9554   21330299.0784
  21415022.466    -8062919.61449  -6261455.98549  21415021.5554   21415026.4894
  21320346.893     5906768.88449   4612661.88349  21320349.9094   21320355.6004
 94 11 19  1 42 59.9920000  0  8 27 22 19 18 29 28 31 14
  21755754.150    -9663364.16849  -7515579.42949  21755757.2604   21755764.6204
  21767276.644     2603013.89349   2034727.94849  21767273.3204   21767278.4144
  18951819.369   -26439045.66649 -20586702.98949  18951818.5664   18951823.5504
  18086446.943   -26107904.25349 -20308734.72649  18086446.2594   18086450.5484
  18632341.370   -12486987.09049  -9716377.67149  18632341.7244   18632345.4984
  21314060.032    -9615463.25449  -7478021.47349  21314060.6274   21314064.9584
  21391212.623    -8188046.64649  -6358957.51649  21391210.5254   21391215.8934
  21333407.110     5975386.59749   4666130.24549  21333407.2304   21333413.0834
 94 11 19  1 43 29.9920000  0  8 27 22 19 18 29 28 31 14
  21732890.097    -9783543.68549  -7609225.76449  21732888.8214   21732895.2104
  21778777.159     2663459.82649   2081828.67749  21778776.0024   21778780.8864
  18936867.371   -26517608.38349 -20647920.67149  18936868.5404   18936873.5714
  18073174.692   -26177653.15349 -20363084.50549  18073173.3394   18073177.8314
  18631363.494   -12492128.06149  -9720383.62949  18631363.7124   18631367.0844
  21297915.932    -9700315.88749  -7544140.36549  21297912.9414   21297917.6724
  21367441.972    -8312963.85049  -6456295.55249  21367439.9404   21367444.8454
  21346499.051     6044178.07949   4719734.00349  21346498.1324   21346504.0524
 94 11 19  1 43 59.9920000  0  8 27 22 19 18 29 28 31 14
  21710056.757    -9903571.52849  -7702753.90149  21710048.6484   21710054.0454
  21790320.933     2724114.20649   2129091.83749  21790317.8324   21790323.1184
  18921976.546   -26595881.54049 -20708912.73149  18921973.5944   18921978.3784
  18059984.816   -26246965.38349 -20417094.03049  18059983.6464   18059987.9774
  18630472.404   -12496816.57349  -9724037.02249  18630470.9094   18630475.0734
  21281852.276    -9784708.78849  -7609901.05249  21281853.8284   21281857.6274
  21343710.692    -8437662.31849  -6553463.14249  21343710.5974   21343715.4194
  21359617.466     6113118.04149   4773453.45249  21359616.9364   21359622.2794
 94 11 19  1 44 29.9920000  0  8 27 22 19 18 29 28 31 14
  21687232.092   -10023453.28949  -7796168.21849  21687235.1564   21687241.5054
  21801902.083     2784975.58149   2176516.29349  21801899.6774   21801904.9944
  18907134.769   -26673877.06749 -20769688.44049  18907131.6804   18907136.4334
  18046876.764   -26315847.31749 -20470768.25949  18046875.8214   18046880.0934
  18629663.256   -12501063.56449  -9727346.37949  18629662.9804   18629666.9254
  21265881.551    -9868641.45649  -7675303.11349  21265881.6254   21265887.0394
  21320023.577    -8562141.01049  -6650459.47549  21320022.7134   21320027.7054
  21372761.290     6182188.86949   4827274.91049  21372760.8774   21372765.8044
 94 11 19  1 44 59.9920000  0  8 27 22 19 18 29 28 31 14
  21664446.462   -10143197.03949  -7889475.01849  21664449.2174   21664455.0124
  21813518.733     2846049.09749   2224106.03149  21813521.5284   21813526.7834
  18892337.347   -26751620.34349 -20830267.60049  18892337.4974   18892342.3174
  18033853.879   -26384293.97149 -20524103.31349  18033851.0164   18033855.2704
  18628939.333   -12504869.11149  -9730311.74649  18628939.0974   18628942.7174
  21249998.739    -9952108.23449  -7740342.10549  21249998.6234   21250003.2524
  21296378.892    -8686402.40249  -6747286.48649  21296376.2394   21296381.4904
  21385929.028     6251387.57949   4881195.96649  21385928.7914   21385934.5614
 94 11 19  1 45 29.9920000  0  8 27 22 19 18 29 28 31 14
  21641687.191   -10262819.22549  -7982687.05849  21641685.4924   21641690.9374
  21825185.582     2907330.42449   2271857.70149  21825182.9704   21825187.9674
  18877591.879   -26829110.52149 -20890649.54249  18877591.5254   18877596.3554
  18020911.488   -26452295.87849 -20577091.80249  18020910.7214   18020914.8904
  18628301.315   -12508223.01849  -9732925.18949  18628300.6714   18628304.5324
  21234204.605   -10035104.66049  -7805014.62449  21234205.3454   21234209.6874
  21272776.758    -8810430.11649  -6843931.42549  21272775.3834   21272779.6904
  21399120.874     6320707.96349   4935211.82649  21399120.2104   21399125.6464
 94 11 19  1 45 59.9920000  0  8 27 22 19 18 29 28 31 14
  21618941.830   -10382321.75949  -8075805.88449  21618944.3634   21618950.6394
  21836884.297     2968809.97649   2319763.83149  21836882.4704   21836887.6914
  18862894.547   -26906345.81249 -20950832.86749  18862894.2554   18862898.8654
  18008057.224   -26519855.13449 -20629735.37449  18008054.5734   18008058.8504
  18627745.623   -12511140.19649  -9735198.32349  18627745.5924   18627749.4124
  21218502.614   -10117625.22949  -7869316.35249  21218502.2474   21218506.4404
  21249221.012    -8934209.08749  -6940382.53249  21249220.3604   21249225.8404
  21412331.133     6390141.61049   4989315.95049  21412332.6644   21412338.1714
 94 11 19  1 46 29.9920000  0  8 27 22 19 18 29 28 31 14
  21596227.650   -10501707.25249  -8168833.50249  21596226.6704   21596232.5564
  21848618.965     3030475.28849   2367814.73449  21848616.9704   21848621.6604
  18848241.201   -26983338.24349 -21010826.94649  18848243.1534   18848247.9704
  17995284.007   -26586961.84649 -20682026.30649  17995284.5124   17995288.8884
  18627272.453   -12513629.47349  -9737138.03149  18627271.9424   18627275.8344
  21202893.276   -10199668.17949  -7933245.89849  21202889.8474   21202894.4694
  21225713.717    -9057735.36849  -7036636.74049  21225713.9174   21225719.7134
  21425566.823     6459692.89149   5043511.74649  21425567.9914   21425573.1464
 94 11 19  1 46 59.9920000  0  8 27 22 19 18 29 28 31 14
  21573531.492   -10620975.04949  -8261769.41949  21573531.0904   21573536.4824
  21860385.470     3092319.39649   2416004.95649  21860385.6634   21860390.3404
  18833643.319   -27060078.83949 -21070624.78949  18833639.7624   18833644.6614
  17982604.852   -26653599.35049 -20733951.63049  17982603.9974   17982608.1754
  18626882.182   -12515681.80049  -9738737.25449  18626881.0574   18626885.0754
  21187368.790   -10281232.99649  -7996802.89149  21187368.5384   21187373.8474
  21202256.064    -9181007.50149  -7132692.92349  21202256.4104   21202260.5484
  21438826.862     6529366.87649   5097803.15649  21438826.3614   21438831.6134
 94 11 19  1 47 29.9920000  0  8 27 22 19 18 29 28 31 14
  21550859.919   -10740107.68449  -8354600.01949  21550861.3164   21550866.5354
  21872188.796     3154337.15949   2464330.49649  21872186.9494   21872191.6894
  18819086.448   -27136557.96149 -21130218.89449  18819086.4124   18819091.1634
  17970017.640   -26719749.66649 -20785497.33249  17970015.8544   17970020.1804
  18626573.151   -12517300.16949  -9739998.32849  18626573.0794   18626577.1314
  21171935.584   -10362314.60649  -8059983.33349  21171938.9554   21171944.3114
  21178849.687    -9304021.98949  -7228548.31649  21178847.4024   21178851.6914
  21452107.561     6599165.43449   5152191.61149  21452108.8424   21452113.9994
 94 11 19  1 47 59.9920000  0  8 27 22 19 18 29 28 31 14
  21528220.805   -10859099.14649  -8447320.60449  21528217.5244   21528223.4204
  21884019.078     3216515.05249   2512780.81949  21884019.0544   21884023.5694
  18804585.884   -27212788.07949 -21189618.97249  18804580.1744   18804584.8354
  17957519.960   -26785424.86949 -20836672.81549  17957518.3644   17957522.5894
  18626345.754   -12518494.96449  -9740929.34149  18626346.0214   18626349.9194
  21156601.577   -10442919.82249  -8122792.55949  21156600.2534   21156605.6454
  21155483.351    -9426801.45749  -7324220.60749  21155483.2674   21155488.4694
  21465413.524     6669071.67449   5206663.96549  21465411.6174   21465416.9614
 94 11 19  1 48 29.9920000  0  8 27 22 19 18 29 28 31 14
  21505604.072   -10977961.41649  -8539940.52949  21505597.9324   21505604.5364
  21895883.312     3278850.76849   2561354.11549  21895881.5094   21895885.8654
  18790119.192   -27288773.16149 -21248828.10649  18790120.5304   18790125.4164
  17945111.621   -26850631.33249 -20887483.03749  17945109.9064   17945114.1534
  18626202.318   -12519247.63349  -9741515.83449  18626202.6244   18626206.7444
  21141351.484   -10523049.76249  -8185231.43949  21141352.3934   21141357.0404
  21132159.294    -9549357.65349  -7419718.91349  21132161.0044   21132167.3354
  21478735.726     6739092.27449   5261225.44849  21478736.7094   21478741.0904
 94 11 19  1 48 59.9920000  0  8 27 22 19 18 29 28 31 14
  21483005.625   -11096701.97449  -8632465.62749  21483003.4864   21483008.2624
  21907774.467     3341341.82849   2610048.44549  21907772.7344   21907777.8244
  18775710.303   -27364503.41149 -21307838.67949  18775709.7334   18775714.6024
  17932790.306   -26915376.93649 -20937934.14449  17932789.3684   17932793.4894
  18626144.070   -12519553.43949  -9741754.12649  18626144.4224   18626148.4364
  21126195.701   -10602704.20049  -8247299.82349  21126194.1424   21126198.8944
  21108882.766    -9671697.69449  -7515048.77049  21108881.2664   21108886.3084
  21492085.787     6809225.85149   5315874.99049  21492082.4444   21492086.7754
 94 11 19  1 49 29.9920000  0  8 27 22 19 18 29 28 31 14
  21460429.867   -11215329.45349  -8724902.59249  21460429.4824   21460434.3244
  21919696.624     3403990.35649   2658865.45849  21919694.4164   21919699.2654
  18761343.792   -27439986.32149 -21366656.52049  18761345.5614   18761350.4584
  17920552.717   -26979678.56349 -20988039.30649  17920553.1904   17920557.2264
  18626171.316   -12519420.55949  -9741650.59049  18626169.8334   18626173.9924
  21111128.953   -10681884.68949  -8308998.87849  21111127.1694   21111131.6034
  21085643.285    -9793817.12749  -7610206.74449  21085642.4604   21085647.1874
  21505448.610     6879461.86049   5370604.31249  21505448.4754   21505452.5394
 94 11 19  1 49 59.9920000  0  8 27 22 19 18 29 28 31 14
  21437878.192   -11333853.11049  -8817258.65649  21437873.9814   21437880.1994
  21931647.349     3466799.10049   2707807.33549  21931646.7484   21931651.2384
  18747033.107   -27515214.36449 -21425275.76549  18747030.1094   18747034.9444
  17908398.183   -27043555.57249 -21037813.59549  17908397.4624   17908401.7234
  18626281.143   -12518837.46349  -9741196.23849  18626280.9414   18626284.7884
  21096151.233   -10760588.32149  -8370326.33549  21096150.2614   21096154.4824
  21062450.837    -9915690.51049  -7705172.99749  21062450.2394   21062456.0714
  21518831.525     6949793.72549   5425408.31349  21518832.5264   21518836.7054
 94 11 19  1 50 29.9920000  0  8 27 22 19 18 29 28 31 14
  21415351.226   -11452269.21449  -8909530.89149  21415340.9864   21415346.4074
  21943632.139     3529779.15849   2756882.72049  21943631.6434   21943636.1614
  18732765.333   -27590187.53249 -21483696.40549  18732763.3054   18732768.2644
  17896322.512   -27107011.63949 -21087259.87449  17896322.3564   17896326.7604
  18626475.403   -12517818.29949  -9740402.09849  18626474.8334   18626478.7344
  21081266.437   -10838813.34249  -8431280.90749  21081264.2144   21081269.0904
  21039313.337   -10037290.93849  -7799926.50849  21039310.9914   21039316.3304
  21532236.665     7020229.97449   5480293.64849  21532236.0624   21532239.7444
 94 11 19  1 50 59.9920000  0  8 27 22 19 18 29 28 31 14
  21392831.345   -11570548.77049  -9001696.74149  21392832.6384   21392837.9864
  21955650.377     3592931.74849   2806092.51549  21955648.9014   21955653.6434
  18718549.174   -27664901.95049 -21541915.41649  18718545.6044   18718550.4464
  17884329.120   -27170044.97349 -21136376.75149  17884327.6684   17884331.9634
  18626749.505   -12516381.38349  -9739282.43049  18626748.2994   18626752.1534
  21066471.659   -10916555.69549  -8491859.32949  21066470.0894   21066475.6134
  21016225.843   -10158600.56649  -7894453.46649  21016226.4034   21016231.5084
  21545656.217     7090754.26349   5535247.62749  21545656.8214   21545660.0934
 94 11 19  1 51 29.9920000  0  8 27 22 19 18 29 28 31 14
  21370350.379   -11688685.00449  -9093750.89549  21370352.5234   21370357.5134
  21967701.617     3656250.49049   2855431.80249  21967698.0324   21967702.5624
  18704372.656   -27739370.30849 -21599942.69249  18704374.5434   18704379.4864
  17872411.505   -27232663.02949 -21185170.04049  17872411.7244   17872415.9514
  18627098.939   -12514538.51149  -9737846.43349  18627099.0934   18627102.8984
  21051769.554   -10993815.54349  -8552061.76149  21051768.3594   21051772.7244
  20993195.589   -10279611.18749  -7988747.44149  20993198.9884   20993204.1844
  21559096.283     7161362.01949   5590266.60249  21559092.5944   21559096.4924
 94 11 19  1 51 59.9920000  0  8 27 22 19 18 29 28 31 14
  21347901.519   -11806681.11749  -9185695.84949  21347897.8264   21347903.3874
  21979773.815     3719724.00549   2904891.71949  21979776.3214   21979781.7224
  18690252.421   -27813593.41849 -21657778.87449  18690250.2114   18690255.2484
  17860578.580   -27294854.05249 -21233630.57749  17860577.1884   17860581.4284
  18627525.388   -12512295.00249  -9736098.26149  18627525.9694   18627529.9124
  21037161.557   -11070592.15549  -8611887.66649  21037157.8054   21037162.6174
  20970227.727   -10400333.21949  -8082816.52749  20970226.7194   20970231.7954
  21572548.637     7232058.72449   5645354.90749  21572545.3984   21572550.1954
 94 11 19  1 52 29.9920000  0  8 27 22 19 18 29 28 31 14
  21325475.462   -11924549.01149  -9277540.89849  21325468.8414   21325474.0634
  21991885.096     3783347.32249   2954468.33749  21991883.8704   21991888.6444
  18676173.442   -27887577.47049 -21715428.77749  18676171.5294   18676176.5694
  17848830.924   -27356591.25149 -21281737.48849  17848828.8924   17848833.1104
  18628028.511   -12509655.35549  -9734041.40649  18628028.3624   18628032.0554
  21022642.843   -11146884.63549  -8671336.33049  21022640.1554   21022645.3964
  20947303.715   -10520794.61549  -8176682.52549  20947303.1214   20947308.6994
  21586011.860     7302840.12449   5700509.23249  21586014.4414   21586019.1604
 94 11 19  1 52 59.9920000  0  8 27 22 19 18 29 28 31 14
  21303059.678   -12042302.12449  -9369296.51349  21303061.2084   21303065.7364
  22004018.245     3847095.78849   3004142.50749  22004014.6834   22004019.2974
  18662144.351   -27961315.78649 -21772887.19649  18662139.8904   18662144.7464
  17837170.826   -27417854.86549 -21329475.37249  17837170.9704   17837175.2224
  18628610.409   -12506599.54949  -9731660.27149  18628609.7834   18628613.5154
  21008210.970   -11222690.58249  -8730405.86849  21008214.3684   21008219.9664
  20924422.587   -10641013.80949  -8270359.77049  20924426.3664   20924431.4794
  21599502.306     7373702.78049   5755726.89549  21599499.6024   21599504.2654
 94 11 19  1 53 29.9920000  0  8 27 22 19 18 29 28 31 14
  21280672.503   -12159979.67549  -9460993.24449  21280668.5114   21280672.7954
  22016167.280     3910953.02549   3053901.41949  22016166.0374   22016171.3584
  18648156.124   -28034813.37049 -21830158.03249  18648153.8314   18648158.5974
  17825605.915   -27478634.49149 -21376836.11749  17825604.9724   17825609.2274
  18629272.769   -12503113.24049  -9728943.67149  18629273.1064   18629277.2104
  20993883.563   -11298013.09549  -8789098.71349  20993881.4994   20993885.8824
  20901591.942   -10761006.30749  -8363860.37249  20901592.6274   20901598.0844
  21613000.144     7444649.06349   5811009.67149  21612999.8374   21613004.9494
 94 11 19  1 53 59.9920000  0  8 27 22 19 18 29 28 31 14
  21258287.080   -12277586.27349  -9552634.68149  21258287.8554   21258293.0184
  22028341.265     3974916.18449   3103742.84649  22028337.9524   22028342.9384
  18634214.514   -28108064.06249 -21887236.48549  18634214.6244   18634219.4424
  17814132.654   -27538915.98249 -21423808.69949  17814133.7164   17814138.0924
  18630019.496   -12499194.05049  -9725889.77349  18630018.8304   18630022.9824
  20979635.491   -11372851.17449  -8847414.11049  20979640.9824   20979645.4194
  20878800.350   -10880770.38549  -8457182.98649  20878801.8474   20878807.1044
  21626513.855     7515660.55549   5866343.29649  21626512.4374   21626517.9184
 94 11 19  1 54 29.9920000  0  8 27 22 19 18 29 28 31 14
  21235926.922   -12395107.61049  -9644209.69849  21235924.2864   21235929.5844
  22040530.576     4038982.52549   3153664.68449  22040529.0114   22040533.5754
  18620322.514   -28181067.60449 -21944122.34849  18620322.6304   18620327.3594
  17802755.779   -27598709.24149 -21470400.85249  17802755.4174   17802759.6454
  18630846.811   -12494839.79749  -9722496.86249  18630847.5804   18630851.4204
  20965494.400   -11447201.56849  -8905349.46549  20965491.4654   20965497.0694
  20856055.970   -11000291.17449  -8550316.01549  20856057.3114   20856062.8824
  21640039.526     7586727.21549   5921719.91949  21640036.1394   21640041.6534
 94 11 19  1 54 59.9920000  0  8 27 22 19 18 29 28 31 14
  21213584.519   -12512522.27949  -9735701.59649  21213580.7614   21213585.9034
  22052741.704     4103156.41749   3203670.33149  22052740.9604   22052746.1664
  18606478.473   -28253813.23549 -22000807.24249  18606479.6264   18606484.2634
  17791466.339   -27658036.00549 -21516629.50549  17791466.0174   17791470.2514
  18631759.013   -12490059.79949  -9718772.20049  18631757.2364   18631761.1624
  20951444.491   -11521060.62549  -8962901.94549  20951437.5594   20951441.6054
  20833364.284   -11119558.17849  -8643251.30249  20833362.3084   20833367.3614
  21653570.548     7657852.84449   5977142.49149  21653570.7654   21653576.3914
 94 11 19  1 55 29.9920000  0  8 27 22 19 18 29 28 31 14
  21191260.307   -12629824.32349  -9827105.73749  21191258.6834   21191263.9154
  22064978.236     4167463.99449   3253780.15349  22064978.1254   22064983.2994
  18592685.515   -28326301.95949 -22057291.95149  18592685.2594   18592689.8724
  17780262.857   -27716918.60449 -21562512.05049  17780260.7274   17780265.3064
  18632744.786   -12484873.22749  -9714730.73449  18632744.2014   18632748.0914
  20937474.283   -11594428.28649  -9020071.53049  20937475.0224   20937480.4084
  20810718.945   -11238547.22149  -8735969.99949  20810719.0614   20810724.3154
  21667111.796     7729027.32749   6032603.10849  21667114.7834   21667120.3484
 94 11 19  1 55 59.9920000  0  8 27 22 19 18 29 28 31 14
  21168966.986   -12746985.55149  -9918400.14849  21168964.1234   21168968.4924
  22077242.313     4231913.43349   3304000.50149  22077242.6884   22077247.9274
  18578939.258   -28398533.88949 -22113576.55649  18578939.8004   18578944.5884
  17769137.975   -27775371.74549 -21608059.94049  17769137.3924   17769141.8294
  18633808.756   -12479290.44349  -9710380.52549  18633806.5924   18633810.5414
  20923604.269   -11667300.96249  -9076855.38649  20923608.0454   20923612.8434
  20788134.767   -11357244.00549  -8828460.95449  20788131.3614   20788136.8874
  21680667.912     7800247.14449   6088099.06149  21680667.1744   21680673.1024
 94 11 19  1 56 29.9920000  0  8 27 22 19 18 29 28 31 14
  21146697.464   -12864008.28949 -10009586.65249  21146694.8064   21146699.7124
  22089533.805     4296495.70849   3354324.33949  22089532.1434   22089537.1394
  18565239.642   -28470522.77949 -22169671.78049  18565240.9634   18565245.7084
  17758094.684   -27833409.47249 -21653284.13949  17758093.2004   17758097.6644
  18634944.982   -12473308.46049  -9705719.25149  18634944.9604   18634948.7554
  20909832.226   -11739681.19949  -9133255.55449  20909834.6554   20909839.4924
  20765593.965   -11475659.11349  -8920732.44549  20765598.3394   20765603.2444
  21694229.803     7871513.23749   6143631.07749  21694228.9994   21694234.8154
 94 11 19  1 56 59.9920000  0  8 27 22 19 18 29 28 31 14
  21124454.925   -12980900.89749 -10100671.76749  21124451.3304   21124456.0064
  22101851.845     4361215.83749   3404755.61449  22101848.1314   22101853.2114
  18551590.484   -28542265.70949 -22225575.34349  18551588.6794   18551593.5794
  17747132.201   -27891015.85949 -21698172.23149  17747131.2184   17747135.5804
  18636161.554   -12466919.24849  -9700740.65449  18636160.7134   18636164.5174
  20896157.975   -11811561.29349  -9189265.98649  20896155.4204   20896161.6364
  20743123.885   -11593777.85549  -9012773.00349  20743121.1014   20743126.0634
  21707798.125     7942812.19449   6199188.69649  21707796.7244   21707802.4054
 94 11 19  1 57 29.9910000  0  8 27 22 19 18 29 28 31 14
  21102230.458   -13097670.09849 -10191660.72649  21102230.5444   21102235.0094
  22114190.801     4426066.42549   3455288.52349  22114188.3704   22114193.8194
  18537983.479   -28613770.12949 -22281293.05049  18537981.5854   18537986.4214
  17736258.157   -27948167.09149 -21742705.65749  17736255.6594   17736260.1584
  18637457.612   -12460109.14549  -9695434.09249  18637456.6784   18637460.5764
  20882571.254   -11882933.78549  -9244880.89349  20882574.5404   20882578.9434
  20720702.014   -11711575.52549  -9104563.34849  20720704.9584   20720710.2354
  21721367.260     8014125.45049   6254757.48849  21721367.0464   21721372.7464
 94 11 19  1 57 59.9910000  0  8 27 22 19 18 29 28 31 14
  21080026.777   -13214334.78649 -10282568.23449  21080029.9364   21080034.7014
  22126549.961     4491016.75949   3505899.14949  22126548.0184   22126553.6714
  18524417.940   -28685055.14249 -22336839.79749  18524416.7174   18524421.3734
  17725470.396   -28004845.90749 -21786870.96649  17725470.1374   17725474.4864
  18638833.951   -12452871.27949  -9689794.21349  18638834.1384   18638837.9754
  20869087.580   -11953803.24949  -9300103.83349  20869088.0104   20869093.4844
  20698345.484   -11829073.03749  -9196119.81549  20698345.5474   20698350.9074
  21734940.748     8085447.41649   6310333.02849  21734939.3714   21734945.3484
 94 11 19  1 58 29.9910000  0  8 27 22 19 18 29 28 31 14
  21057846.768   -13330910.59249 -10373406.50349  21057846.8614   21057851.2394
  22138931.478     4556064.37349   3556585.59249  22138926.1044   22138931.1314
  18510894.504   -28756121.11449 -22392215.86049  18510893.4514   18510898.1144
  17714778.383   -28061039.99649 -21830658.56949  17714776.6214   17714781.0504
  18640294.320   -12445209.13649  -9683823.72949  18640292.1794   18640296.0194
  20855698.550   -12024167.27549  -9354932.93149  20855698.8294   20855703.9074
  20676044.066   -11946260.82149  -9287434.93849  20676045.4144   20676050.7024
  21748518.489     8156776.35749   6365914.01549  21748513.3374   21748518.5354
 94 11 19  1 58 59.9910000  0  8 27 22 19 18 29 28 31 14
  21035680.757   -13447403.77349 -10464180.38649  21035678.0304   21035683.4344
  22151324.875     4621206.97449   3607346.06449  22151322.7984   22151327.8474
  18497417.260   -28826951.60249 -22447408.43349  18497414.7744   18497419.4204
  17704176.431   -28116748.50949 -21874067.80349  17704175.6864   17704180.1024
  18641829.902   -12437127.68249  -9677526.50349  18641829.9734   18641833.7784
  20842403.181   -12094023.74049  -9409366.51949  20842405.3524   20842410.3154
  20653802.730   -12063127.32749  -9378499.71749  20653806.8554   20653811.6374
  21762090.508     8228122.53349   6421508.40149  21762090.2924   21762095.7614
 94 11 19  1 59 29.9910000  0  8 27 22 19 18 29 28 31 14
  21013525.693   -13563805.64249 -10554883.12149  21013527.8244   21013533.3484
  22163736.154     4686442.09549   3658178.62649  22163736.4344   22163741.3794
  18483980.350   -28897542.87849 -22502414.60549  18483981.7224   18483986.3194
  17693667.640   -28171972.63549 -21917099.59249  17693666.8504   17693671.3004
  18643449.897   -12428618.96549  -9670896.34849  18643449.0534   18643453.0084
  20829211.629   -12163370.62049  -9463403.03849  20829209.4784   20829213.7054
  20631630.806   -12179680.30949  -9469320.20049  20631627.3734   20631631.9964
  21775676.283     8299508.19249   6477133.55449  21775674.5524   21775679.5994
 94 11 19  1 59 59.9910000  0  8 27 22 19 18 29 28 31 14
  20991398.284   -13680098.96949 -10645501.27949  20991398.1934   20991403.1144
  22176166.874     4751759.58149   3709075.37149  22176166.1894   22176170.8474
  18470599.152   -28967881.05649 -22557223.55849  18470596.6304   18470601.2904
  17683249.523   -28226720.07549 -21959759.93549  17683248.8504   17683253.2044
  18645151.581   -12419683.43849  -9663933.61049  18645149.6154   18645153.2584
  20816109.614   -12232209.31049  -9517043.55549  20816109.0714   20816114.7394
  20609511.148   -12295917.18649  -9559894.37149  20609508.0224   20609512.7694
  21789268.941     8370952.79849   6532804.64749  21789269.7824   21789274.8464
 94 11 19  2  0 29.9910000  0  8 27 22 19 18 29 28 31 14
  20969290.215   -13796273.25849 -10736026.66249  20969290.5894   20969295.6294
  22188617.170     4817180.31849   3760052.55349  22188615.5274   22188620.3564
  18457265.388   -29037946.72249 -22611820.16249  18457263.5344   18457268.2474
  17672922.586   -28280994.42049 -22002051.62849  17672920.7454   17672925.1514
  18646930.092   -12410319.26349  -9656636.86449  18646931.2174   18646935.2934
  20803108.739   -12300536.90749  -9570285.82149  20803107.5784   20803111.6654
  20587444.608   -12411840.50449  -9650224.20149  20587448.7004   20587453.4704
  21802882.004     8442463.78049   6588527.48649  21802878.3644   21802882.9244
 94 11 19  2  0 59.9910000  0  8 27 22 19 18 29 28 31 14
  20947207.632   -13912311.83349 -10826446.30049  20947209.1744   20947214.2774
  22201084.471     4882694.67149   3811102.67849  22201082.5434   22201087.1944
  18443979.632   -29107739.18249 -22666203.88249  18443982.6494   18443987.3284
  17662684.783   -28334791.65749 -22043971.54949  17662683.7614   17662687.9304
  18648794.387   -12400528.71049  -9649007.88449  18648794.4994   18648798.3644
  20790205.205   -12368351.65749  -9623128.49449  20790202.8784   20790206.9534
  20565450.743   -12527457.80049  -9740315.55949  20565447.0504   20565452.1534
  21816495.140     8514023.17949   6644288.04249  21816495.1004   21816500.5724
 94 11 19  2  1 29.9910000  0  8 27 22 19 18 29 28 31 14
  20925153.726   -14028197.24149 -10916746.58049  20925157.0664   20925162.1474
  22213571.162     4948320.36749   3862239.55649  22213570.3964   22213575.2444
  18430753.602   -29177275.14549 -22720387.73649  18430750.3524   18430755.0024
  17652541.626   -28388100.50949 -22085510.92049  17652539.3834   17652543.5634
  18650737.454   -12390313.86449  -9641048.26849  18650738.1824   18650742.0624
  20777399.198   -12435646.75549  -9675566.19849  20777396.8014   20777401.7274
  20543510.476   -12642755.92949  -9830158.23549  20543506.6764   20543511.6434
  21830118.964     8585618.02949   6700076.20649  21830119.4484   21830124.0054
 94 11 19  2  1 59.9910000  0  8 27 22 19 18 29 28 31 14
  20903137.747   -14143936.84049 -11006933.25149  20903133.0434   20903137.5394
  22226082.638     5014060.55749   3913465.66049  22226080.7744   22226085.1634
  18417565.725   -29246558.94449 -22774375.09549  18417566.0574   18417570.8284
  17642487.880   -28440924.18849 -22126672.22349  17642487.2564   17642491.6074
  18652761.735   -12379687.27649  -9632767.82349  18652760.4214   18652764.5664
  20764684.340   -12502421.81349  -9727598.69349  20764689.4994   20764694.2844
  20521630.924   -12757741.45349  -9919757.30049  20521625.7884   20521630.5164
  21843747.969     8657238.46949   6755884.27649  21843748.3084   21843753.0774
 94 11 19  2  2 29.9910000  0  8 27 22 19 18 29 28 31 14
  20881131.037   -14259547.63049 -11097019.55049  20881132.4194   20881137.3374
  22238616.986     5079929.03549   3964791.70649  22238614.9634   22238619.4104
  18404422.574   -29315608.95549 -22828180.28449  18404426.3664   18404431.0774
  17632527.990   -28493264.14849 -22167456.60949  17632527.3244   17632531.5174
  18654859.986   -12368660.31449  -9624175.40849  18654859.1134   18654862.9664
  20752087.008   -12568672.72049  -9779222.75449  20752082.6284   20752087.4164
  20499805.028   -12872427.89749 -10009123.33749  20499801.6004   20499806.2634
  21857378.360     8728871.63949   6811702.31349  21857379.8614   21857384.3604
 94 11 19  2  2 59.9910000  0  7 27 19 18 29 28 31 14
  20859154.214   -14375036.44849 -11187010.79549  20859155.9194   20859160.7224
  18391330.296   -29384443.45649 -22881817.54949  18391327.3904   18391332.0244
  17622657.399   -28545141.24949 -22207880.32149  17622655.3364   17622659.7054
  18657032.843   -12357240.26449  -9615276.67649  18657032.1794   18657035.9964
  20739576.369   -12634401.91449  -9830440.28049  20739574.7784   20739579.5314
  20478039.855   -12986799.67249 -10098244.17049  20478037.3734   20478041.9584
  21871018.550     8800503.68449   6867519.50949  21871010.5784   21871015.7204
 94 11 19  2  3 29.9910000  0  7 27 19 18 29 28 31 14
  20837198.744   -14490415.33949 -11276916.38449  20837200.0464   20837204.7224
  18378272.661   -29453048.43349 -22935275.96249  18378272.5154   18378277.1104
  17612872.690   -28596560.96049 -22247947.63949  17612870.4114   17612874.8254
  18659281.363   -12345423.41549  -9606068.75749  18659280.6754   18659284.6294
  20727168.934   -12699606.26049  -9881248.83649  20727166.8044   20727171.2094
  20456336.546   -13100848.59549 -10187113.42549  20456334.4784   20456339.2624
  21884651.384     8872148.10549   6923346.31049  21884643.9434   21884649.7604
 94 11 19  2  3 59.9910000  0  7 27 19 18 29 28 31 14
  20815258.530   -14605701.26749 -11366749.53449  20815261.7514   20815266.6264
  18365263.181   -29521405.91249 -22988541.52349  18365264.5344   18365269.2014
  17603172.638   -28647525.37849 -22287660.17649  17603172.3754   17603176.5984
  18661607.445   -12333196.62449  -9596541.39749  18661607.6824   18661611.5294
  20714860.703   -12764282.93649  -9931646.24849  20714859.1994   20714864.2314
  20434690.027   -13214584.08649 -10275738.45349  20434691.1654   20434695.9424
  21898283.398     8943810.06849   6979186.77849  21898280.5214   21898286.2644
 94 11 19  2  4 29.9910000  0  7 27 19 18 29 28 31 14
  20793347.612   -14720890.35549 -11456507.22549  20793342.2484   20793347.1274
  18352302.083   -29589514.72049 -23041613.31549  18352303.8084   18352308.4014
  17593562.352   -28698030.83149 -22327015.07549  17593561.5704   17593565.8564
  18664014.282   -12320558.97749  -9586693.89149  18664012.3354   18664016.2554
  20702654.922   -12828430.16449  -9981631.06649  20702651.8124   20702657.2234
  20413109.021   -13327990.30649 -10364106.89549  20413110.6394   20413115.5384
  21911918.056     9015480.55049   7035033.89549  21911918.6844   21911924.2484
 94 11 19  2  4 59.9910000  0  7 27 19 18 29 28 31 14
  20771444.141   -14835977.32849 -11546185.34749  20771441.1914   20771446.1424
  18339392.404   -29657363.59249 -23094482.56249  18339392.6514   18339397.2894
  17584038.851   -28748072.68349 -22366008.71849  17584038.6814   17584043.1334
  18666496.837   -12307498.66749  -9576517.03649  18666497.7094   18666501.4284
  20690543.821   -12892048.05149 -10031203.44649  20690546.1654   20690550.6934
  20391598.349   -13441054.50149 -10452208.82149  20391594.9914   20391599.7824
  21925560.552     9087158.76049   7090887.04749  21925558.4264   21925564.5464
 94 11 19  2  5 29.9910000  0  7 27 19 18 29 28 31 14
  20749560.600   -14950960.22149 -11635782.36449  20749560.8074   20749565.4374
  18326533.812   -29724939.72549 -23147139.28649  18326533.1784   18326537.7754
  17574613.297   -28797611.78749 -22404610.61749  17574611.9254   17574616.1614
  18669068.098   -12293998.22649  -9565997.22049  18669066.8114   18669070.5034
  20678546.637   -12955128.77749 -10080357.23249  20678541.9804   20678547.7444
  20370149.618   -13553771.70149 -10540040.38049  20370146.0864   20370150.3704
  21939202.068     9158854.94149   7146754.19249  21939202.2684   21939207.0384
 94 11 19  2  5 59.9910000  0  7 27 19 18 29 28 31 14
  20727704.303   -15065834.45349 -11725294.70549  20727701.3664   20727705.8364
  18313720.171   -29792263.16749 -23199599.10649  18313722.0024   18313726.6684
  17565282.700   -28846643.99049 -22442817.53049  17565281.4844   17565285.7174
  18671722.027   -12280051.90749  -9555129.97449  18671720.6334   18671724.5154
  20666639.201   -13017674.83249 -10129094.39449  20666640.2774   20666644.7484
  20348765.448   -13666136.41749 -10627597.29249  20348763.7044   20348767.8074
  21952849.699     9230558.23149   7202626.88449  21952846.8584   21952851.6504
 94 11 19  2  6 29.9910000  0  7 27 19 18 29 28 31 14
  20705860.836   -15180590.80249 -11814715.19749  20705863.8234   20705868.3544
  18300957.632   -29859346.91949 -23251872.15549  18300956.4114   18300961.1694
  17556050.847   -28895160.94949 -22480622.95949  17556048.9314   17556053.1234
  18674457.640   -12265669.79149  -9543923.13949  18674457.1944   18674461.2314
  20654838.484   -13079688.98849 -10177417.10049  20654838.9434   20654844.2744
  20327450.955   -13778129.31049 -10714864.44849  20327452.1044   20327456.3444
  21966494.693     9302259.66349   7258498.12049  21966491.9124   21966496.0584
 94 11 19  2  6 59.9910000  0  7 27 19 18 29 28 31 14
  20684046.456   -15295227.72149 -11904042.60849  20684048.8594   20684054.0184
  18288234.799   -29926189.87049 -23303957.56949  18288236.6174   18288241.3964
  17546917.625   -28943156.02749 -22518021.71349  17546915.6714   17546920.0924
  18677280.567   -12250840.60349  -9532367.94049  18677279.3104   18677283.0304
  20643141.723   -13141171.75349 -10225325.72749  20643140.2844   20643144.2944
  20306206.486   -13889754.69349 -10801845.24949  20306210.1244   20306214.7454
  21980133.858     9373958.10149   7314367.02249  21980134.6784   21980140.8374
 94 11 19  2  7 29.9910000  0  7 27 19 18 29 28 31 14
  20662262.183   -15409743.42349 -11993275.57849  20662257.1484   20662262.2684
  18275564.381   -29992798.40849 -23355860.32249  18275561.3354   18275566.0924
  17537883.557   -28990626.51449 -22555011.71049  17537882.3804   17537886.8064
  18680185.307   -12235568.53849  -9520467.64349  18680185.6104   18680189.4304
  20631537.458   -13202118.17049 -10272816.44249  20631541.5604   20631546.2684
  20285035.869   -14001008.40849 -10888536.41549  20285039.4834   20285044.0274
  21993778.557     9445658.51449   7370237.48849  21993779.1294   21993784.2324
 94 11 19  2  7 59.9910000  0  7 27 19 18 29 28 31 14
  20640487.024   -15524120.34549 -12082400.41249  20640491.7384   20640496.8934
  18262929.813   -30059174.76249 -23407582.15749  18262930.3014   18262935.0494
  17528945.944   -29037594.00849 -22591609.75549  17528944.9184   17528949.0504
  18683173.761   -12219867.12349  -9508232.78449  18683173.4834   18683177.3104
  20620050.873   -13262525.97149 -10319887.44049  20620046.8474   20620051.4374
  20263948.355   -14111892.50249 -10974939.57149  20263938.7624   20263943.5094
  22007426.178     9517364.88849   7426112.61149  22007424.1604   22007429.1954
 94 11 19  2  8 29.9910000  0  7 27 19 18 29 28 31 14
  20618754.628   -15638359.19149 -12171417.64549  20618753.3864   20618758.3444
  18250345.732   -30125317.89149 -23459122.25349  18250343.7694   18250348.5054
  17520103.998   -29084056.99949 -22627814.69049  17520103.2374   17520107.4424
  18686239.339   -12203749.16549  -9495673.34949  18686240.6064   18686244.4324
  20608658.241   -13322391.03649 -10366535.50949  20608654.7864   20608659.1264
  20242914.259   -14222412.79149 -11061059.24649  20242907.4914   20242912.2454
  22021071.842     9589074.75049   7481990.41249  22021069.9454   22021075.2724
 94 11 19  2  8 59.9910000  0  7 27 19 18 29 28 31 14
  20597032.025   -15752457.16449 -12260325.11949  20597040.8174   20597046.3254
  18237806.164   -30191215.31549 -23510470.89049  18237803.9184   18237808.6054
  17511356.389   -29130028.02849 -22663636.27549  17511354.9974   17511359.4034
  18689386.832   -12187219.08649  -9482792.77649  18689386.1064   18689390.0294
  20597370.346   -13381707.05549 -10412755.76749  20597367.5524   20597371.8324
  20221953.111   -14332581.49749 -11146904.95949  20221943.7374   20221947.8874
  22034716.496     9660792.96649   7537874.72849  22034717.4214   22034722.7614
 94 11 19  2  9 29.9910000  0  6 27 19 18 29 28 31
  20575359.863   -15866411.65549 -12349120.78049  20575356.1964   20575361.5304
  18225311.688   -30256868.27749 -23561629.03649  18225310.6294   18225315.2594
  17502700.378   -29175515.96049 -22699081.40949  17502698.9254   17502703.3324
  18692606.970   -12170299.94449  -9469609.04249  18692605.6594   18692609.7174
  20586182.422   -13440468.70649 -10458544.05649  20586184.8884   20586189.8944
  20201036.944   -14442388.61549 -11232468.93349  20201047.5374   20201051.4834
 94 11 19  2  9 59.9910000  0  6 27 19 18 29 28 31
  20553698.757   -15980218.48949 -12437801.40349  20553699.1164   20553704.3314
  18212863.707   -30322276.91649 -23612596.80249  18212863.5794   18212868.3194
  17494134.451   -29220525.14649 -22734153.50849  17494134.0004   17494138.2494
  18695899.900   -12152995.02949  -9456124.70449  18695898.7824   18695902.8474
  20575109.537   -13498675.66649 -10503900.11849  20575108.8944   20575113.2524
  20180223.178   -14551829.38449 -11317747.44449  20180221.5594   20180226.2814
 94 11 19  2 10 29.9910000  0  6 27 19 18 29 28 31
  20532068.904   -16093897.12549 -12526382.11849  20532066.9024   20532071.9664
  18200463.193   -30387442.85549 -23663375.45249  18200462.8184   18200467.5974
  17485662.048   -29265053.54749 -22768850.96549  17485660.6424   17485665.0164
  18699265.229   -12135297.19549  -9442334.19049  18699266.4044   18699270.5364
  20564135.769   -13556329.33949 -10548825.04749  20564138.0274   20564142.5204
  20159475.389   -14660901.44349 -11402738.60549  20159465.7084   20159470.7134
 94 11 19  2 10 59.9910000  0  6 27 19 18 29 28 31
  20510456.314   -16207452.22049 -12614866.58249  20510458.2224   20510462.9704
  18188108.661   -30452365.80649 -23713964.75749  18188108.4314   18188113.2834
  17477277.887   -29309109.19849 -22803180.04749  17477277.1364   17477281.4564
  18702708.990   -12117202.86949  -9428234.73749  18702709.4924   18702713.8224
  20553274.458   -13613431.07649 -10593319.87949  20553271.3434   20553276.3034
  20138787.302   -14769592.06449 -11487432.56449  20138782.7234   20138787.9724
 94 11 19  2 11 29.9910000  0  6 27 19 18 29 28 31
  20488868.353   -16320898.67349 -12703266.38849  20488869.6214   20488875.5524
  18175797.815   -30517057.29749 -23764373.70749  18175798.1244   18175802.7684
  17468988.061   -29352675.72549 -22837127.99249  17468986.6504   17468991.1224
  18706230.408   -12098702.98449  -9413819.25449  18706230.4504   18706234.0424
  20542510.785   -13669985.09549 -10637387.93849  20542509.7524   20542513.6524
  20118175.038   -14877878.26649 -11571811.36349  20118176.1184   20118181.7934
 94 11 19  2 11 59.9910000  0  6 27 19 18 29 28 31
  20467295.637   -16434244.97349 -12791588.16149  20467300.9814   20467306.1064
  18163531.191   -30581513.36849 -23814599.20749  18163532.5834   18163537.0724
  17460794.178   -29395734.17549 -22870680.04049  17460792.6514   17460797.2604
  18709831.399   -12079778.28649  -9399072.75049  18709831.3064   18709835.7084
  20531853.014   -13725989.91549 -10681028.03949  20531852.6084   20531856.8164
  20097643.764   -14985751.58849 -11655868.45849  20097649.4414   20097653.5634
 94 11 19  2 12 29.9910000  0  6 27 19 18 29 28 31
  20445749.261   -16547498.78249 -12879837.86449  20445749.5044   20445754.8044
  18151312.563   -30645722.43549 -23864632.23749  18151314.0134   18151318.4744
  17452700.610   -29438270.44849 -22903825.18449  17452698.4114   17452702.9314
  18713512.552   -12060430.19449  -9383996.33949  18713513.0704   18713517.2804
  20521297.744   -13781446.14949 -10724240.66449  20521299.2004   20521303.5654
  20077202.306   -15093210.48149 -11739602.62449  20077200.0244   20077205.4544
 94 11 19  2 12 59.9910000  0  6 27 19 18 29 28 31
  20424214.915   -16660655.90949 -12968012.23149  20424216.2934   20424220.8954
  18139142.893   -30709680.72049 -23914469.85449  18139143.1814   18139147.7144
  17444704.400   -29480278.60649 -22936558.82049  17444704.7064   17444709.0264
  18717270.516   -12040672.71749  -9368600.92049  18717273.0164   18717276.9634
  20510849.984   -13836350.03949 -10767022.91149  20510851.9064   20510855.8324
  20056823.336   -15200250.27349 -11823010.21749  20056831.8944   20056836.2304
 94 11 19  2 13 29.9910000  0  6 27 19 18 29 28 31
  20402702.455   -16773699.71549 -13056098.29449  20402704.6644   20402709.3214
  18127023.816   -30773382.51049 -23964107.60249  18127020.9944   18127025.5484
  17436814.471   -29521742.18649 -22968868.10949  17436814.3174   17436818.7884
  18721112.223   -12020499.84249  -9352881.80349  18721111.8784   18721115.8904
  20500503.861   -13890697.79949 -10809371.80949  20500509.5294   20500514.3464
  20036534.588   -15306886.66749 -11906103.47749  20036539.3184   20036543.8614
 94 11 19  2 13 59.9910000  0  6 27 19 18 29 28 31
  20381226.358   -16886606.78049 -13144077.80849  20381219.3744   20381224.4374
  18114951.080   -30836821.96049 -24013540.92649  18114948.7824   18114953.3664
  17429024.902   -29562679.15249 -23000767.04249  17429024.2834   17429028.8904
  18725029.579   -11999918.79449  -9336844.63549  18725027.8074   18725032.2734
  20490275.619   -13944487.99549 -10851286.24649  20490273.5634   20490278.1914
  20016328.283   -15413150.44549 -11988906.38849  20016317.6134   20016322.9244
 94 11 19  2 14 29.9910000  0  6 27 19 18 29 28 31
  20359761.558   -16999365.67349 -13231941.86849  20359761.6804   20359767.1474
  18102930.598   -30900002.19649 -24062772.26649  18102926.0874   18102930.6494
  17421330.733   -29603114.80649 -23032275.34149  17421329.6034   17421334.1894
  18729025.490   -11978923.66349  -9320484.81549  18729023.4254   18729027.5034
  20480143.653   -13997719.95949 -10892765.68149  20480143.6114   20480148.7034
  19996169.313   -15519057.50449 -12071431.33349  19996164.0444   19996169.5144
 94 11 19  2 14 59.9910000  0  6 27 19 18 29 28 31
  20338332.789   -17111950.81049 -13319670.53549  20338337.7544   20338342.6604
  18090950.344   -30962934.65649 -24111810.53249  18090950.6444   18090955.1214
  17413730.695   -29643055.31349 -23063397.81949  17413729.0774   17413733.6064
  18733100.454   -11957499.56849  -9303790.72649  18733100.3974   18733104.2534
  20470120.664   -14050387.26249 -10933805.13249  20470121.7134   20470125.7004
  19976079.078   -15624602.42049 -12153674.10149  19976079.7774   19976084.7274
 94 11 19  2 15 29.9910000  0  6 27 19 18 29 28 31
  20316948.345   -17224361.86449 -13407263.54749  20316946.7694   20316951.6664
  18079019.078   -31025624.67649 -24160659.88549  18079020.9854   18079025.5414
  17406222.738   -29682507.82149 -23094140.03449  17406221.7314   17406226.2384
  18737258.976   -11935637.39849  -9286755.28549  18737260.6054   18737264.5194
  20460210.869   -14102491.61549 -10974405.91849  20460206.2394   20460211.4254
  19956065.703   -15729782.47049 -12235632.55249  19956064.7514   19956069.8574
 94 11 19  2 15 59.9910000  0  7 27 19 18 29 28 31  2
  20295581.340   -17336625.61049 -13494741.77649  20295583.5654   20295588.5364
  18067139.636   -31088074.29249 -24209321.90149  18067137.1414   18067141.8334
  17398805.376   -29721483.62349 -23124510.78449  17398804.6954   17398809.0944
  18741506.469   -11913338.72749  -9269379.70649  18741503.7454   18741507.9084
  20450404.470   -14154032.73649 -11014567.81449  20450398.2384   20450402.7954
  19936126.005   -15834568.99649 -12317284.37649  19936124.6924   19936129.5864
  22236409.901    -1744906.21459  -1343833.90359  22236409.7494   22236416.7324
 94 11 19  2 16 29.9900000  0  7 27 19 18 29 28 31  2
  20274246.394   -17448754.36749 -13582114.81349  20274245.8624   20274251.3934
  18055300.751   -31150285.02549 -24257797.78249  18055298.8704   18055303.6274
  17391483.739   -29759962.38949 -23154494.23849  17391482.6694   17391486.9864
  18745834.191   -11890597.07149  -9251658.95549  18745831.7324   18745835.5064
  20440699.061   -14205007.18649 -11054288.16149  20440698.4734   20440702.6134
  19916269.755   -15938923.55049 -12398599.57349  19916266.6094   19916271.4174
  22210269.558    -1882286.12249  -1450883.16349  22210268.6984   22210274.7184
 94 11 19  2 16 59.9900000  0  7 27 19 18 29 28 31  2
  20252931.782   -17560771.52149 -13669400.89149  20252929.3364   20252935.0144
  18043509.016   -31212248.30149 -24306080.83249  18043507.5824   18043512.2334
  17384258.800   -29797929.20549 -23184078.77949  17384257.9634   17384262.2774
  18750242.291   -11867428.64549  -9233605.65049  18750240.2464   18750244.2264
  20431102.171   -14255418.37149 -11093569.59549  20431105.1654   20431110.0674
  19896498.926   -16042830.45349 -12479565.96649  19896493.4384   19896498.5004
  22184150.521    -2019548.38649  -1557840.73449  22184147.9334   22184153.6164
 94 11 19  2 17 29.9900000  0  7 27 19 18 29 28 31  2
  20231620.762   -17672711.74749 -13756627.01849  20231628.0604   20231632.9524
  18031762.747   -31273961.41349 -24354168.95549  18031763.8924   18031768.6154
  17377130.687   -29835384.20949 -23213264.49449  17377130.4744   17377134.7454
  18754728.252   -11843854.72449  -9215236.37849  18754726.0304   18754730.0124
  20421621.777   -14305269.26349 -11132414.42549  20421619.1984   20421622.5554
  19876807.995   -16146289.02649 -12560183.00849  19876806.1214   19876811.0314
  22158057.368    -2156668.35749  -1664687.42149  22158055.7944   22158061.5954
 94 11 19  2 17 59.9900000  0  7 27 19 18 29 28 31  2
  20210343.931   -17784561.83049 -13843782.91249  20210344.0894   20210348.5424
  18020068.472   -31335419.44749 -24402058.32249  18020068.8664   18020073.5114
  17370102.291   -29872317.27149 -23242043.50349  17370101.9274   17370106.4254
  18759288.980   -11819871.73649  -9196548.34949  18759290.3254   18759294.2064
  20412244.791   -14354555.06149 -11170818.94749  20412240.2074   20412245.1224
  19857205.657   -16249286.18649 -12640440.51149  19857206.3334   19857211.1774
  22131994.458    -2293626.70049  -1771408.16249  22131993.6134   22131999.7284
 94 11 19  2 18 29.9900000  0  7 27 19 18 29 28 31  2
  20189084.219   -17896308.73349 -13930858.40149  20189078.8054   20189083.5614
  18008420.330   -31396628.49049 -24449753.67049  18008421.1824   18008425.7704
  17363174.107   -29908731.35749 -23270418.12649  17363172.7724   17363177.2104
  18763926.079   -11795497.15949  -9177555.18949  18763928.4724   18763932.4754
  20402972.762   -14403279.66649 -11208786.16249  20402968.4434   20402972.1064
  19837694.348   -16351843.79549 -12720355.51149  19837689.9514   19837695.2054
  22105968.161    -2430408.29649  -1877991.17849  22105964.4444   22105970.8884
 94 11 19  2 18 59.9900000  0  6 27 19 18 29 28 31
  20167836.330   -18007951.76249 -14017852.96149  20167833.8514   20167838.9044
  17996819.361   -31457603.20149 -24497266.42049  17996818.0174   17996822.6174
  17356341.286   -29944642.81449 -23298401.08349  17356339.1784   17356343.5604
  18768634.156   -11770759.32449  -9158278.97649  18768636.0354   18768639.7094
  20393809.499   -14451440.59249 -11246314.16649  20393803.0474   20393808.2664
  19818254.008   -16453987.79449 -12799948.20649  19818252.4214   19818257.9134
 94 11 19  2 19 29.9900000  0  6 27 19 18 29 28 31
  20146611.306   -18119478.95549 -14104757.25249  20146611.2354   20146615.9334
  17985256.547   -31518369.57649 -24544616.82949  17985254.6334   17985259.1354
  17349601.378   -29980051.96649 -23325992.63149  17349600.9294   17349605.4374
  18773415.547   -11745657.34349  -9138719.00349  18773412.8954   18773416.5514
  20384746.856   -14499038.15749 -11283403.15049  20384746.0944   20384749.9794
  19798894.308   -16555735.03749 -12879231.75049  19798890.7644   19798895.8314
 94 11 19  2 19 59.9900000  0  6 27 19 18 29 28 31
  20125418.773   -18230873.24249 -14191557.97449  20125413.9844   20125418.4584
  17973733.655   -31578924.40249 -24591802.39549  17973731.3574   17973735.8354
  17342959.976   -30014960.69449 -23353194.23849  17342958.1914   17342962.5534
  18778260.247   -11720180.94749  -9118867.27349  18778260.9804   18778264.4044
  20375795.422   -14546069.44349 -11320050.91749  20375796.1954   20375800.6234
  19779604.893   -16657086.35149 -12958206.76149  19779604.3634   19779609.6694
 94 11 19  2 20 29.9900000  0  6 27 19 18 29 28 31
  20104237.165   -18342151.61849 -14278268.38349  20104238.2634   20104242.7254
  17962248.791   -31639271.84349 -24638826.36949  17962247.6374   17962252.2084
  17336413.126   -30049361.21849 -23379999.83849  17336411.8624   17336416.3024
  18783177.354   -11694343.88749  -9098734.52049  18783177.2744   18783181.3564
  20366950.672   -14592531.65749 -11356255.22749  20366954.8644   20366959.4954
  19760391.338   -16758042.96049 -13036874.23749  19760392.6754   19760397.7754
 94 11 19  2 20 59.9900000  0  6 27 19 18 29 28 31
  20083080.638   -18453323.34849 -14364895.69249  20083082.5624   20083087.5064
  17950805.279   -31699409.11749 -24685686.57449  17950804.0034   17950808.5634
  17329964.636   -30083247.13949 -23406404.45949  17329963.7884   17329967.9694
  18788162.807   -11668134.23849  -9078311.44649  18788165.0404   18788168.8394
  20358223.814   -14638428.76649 -11392019.18449  20358220.2294   20358225.0304
  19741262.136   -16858580.61649 -13115215.22649  19741261.0924   19741266.2934
 94 11 19  2 21 29.9900000  0  7 27 19 18 16 29 28 31
  20061951.478   -18564385.48749 -14451437.59949  20061948.5644   20061953.1544
  17939406.154   -31759303.92049 -24732357.84549  17939406.3024   17939410.8594
  17323619.042   -30116598.08949 -23432392.21949  17323617.4994   17323621.5074
  21957702.544    -5756838.34959  -4467475.39159  21957702.6464   21957708.0194
  18793232.078   -11641519.77349  -9057572.92049  18793229.7554   18793233.2924
  20349598.534   -14683757.98249 -11427340.65949  20349595.0484   20349600.0504
  19722218.238   -16958659.40649 -13193198.68649  19722216.6414   19722221.5544
 94 11 19  2 21 59.9900000  0  7 27 19 18 16 29 28 31
  20040830.433   -18675348.93149 -14537902.60249  20040833.0184   20040837.0124
  17928058.503   -31818938.02649 -24778825.97249  17928058.3584   17928062.9874
  17317370.673   -30149424.37449 -23457971.14849  17317370.5234   17317374.7264
  21936049.732    -5870629.54349  -4556143.83849  21936049.6684   21936054.8384
  18798369.965   -11614498.62649  -9036517.49849  18798371.4754   18798375.2594
  20341079.712   -14728524.08649 -11462223.31449  20341076.0184   20341080.8454
  19703268.231   -17058253.84749 -13270804.71949  19703264.1854   19703269.6864
 94 11 19  2 22 29.9900000  0  7 27 19 18 16 29 28 31
  20019740.260   -18786210.97449 -14624288.59649  20019736.5074   20019740.9954
  17916762.421   -31878305.90249 -24825086.64849  17916760.8834   17916765.4814
  17311224.926   -30181727.77649 -23483142.63949  17311223.5024   17311227.6874
  21914469.581    -5984056.33849  -4644528.32149  21914465.5354   21914470.0774
  18803591.317   -11587070.15649  -9015144.68749  18803591.2894   18803594.9644
  20332670.130   -14772727.84449 -11496667.80449  20332664.8094   20332669.5454
  19684413.775   -17157352.70149 -13348024.58049  19684406.4204   19684411.3984
 94 11 19  2 22 59.9900000  0  7 27 19 18 16 29 28 31
  19998663.986   -18896955.26949 -14710582.84249  19998662.7124   19998667.0724
  17905516.756   -31937394.80049 -24871129.93849  17905516.5624   17905521.2204
  17305176.834   -30213506.49549 -23507905.29149  17305176.1474   17305180.3964
  21892951.568    -6097110.86949  -4732622.75849  21892950.8834   21892957.0804
  18808890.820   -11559222.10549  -8993444.92049  18808890.3434   18808894.2954
  20324367.170   -14816371.10249 -11530675.52549  20324359.7154   20324364.2184
  19665645.687   -17255962.36049 -13424863.26649  19665641.7944   19665646.9034
 94 11 19  2 23 29.9900000  0  8 27 19 18 16 29 28 31  2
  19977612.094   -19007567.86449 -14796774.45549  19977613.6324   19977618.0724
  17894324.004   -31996217.28549 -24916965.63549  17894323.2394   17894327.8374
  17299228.508   -30244767.59749 -23532264.59549  17299227.5104   17299231.6474
  21871512.444    -6209774.68149  -4820412.67749  21871511.6784   21871517.2604
  18814266.386   -11530962.61549  -8971424.55949  18814267.7854   18814271.8704
  20316163.977   -14859455.35149 -11564247.67049  20316160.9104   20316165.4664
  19646963.583   -17354110.76949 -13501342.51149  19646964.4484   19646969.5104
  21847258.058     -157988.94319
 94 11 19  2 23 59.9900000  0  8 27 19 18 16 29 28 31  2
  19956596.079   -19118035.03349 -14882852.74949  19956592.3974   19956596.9254
  17883176.201   -32054795.60649 -24962611.07849  17883176.1014   17883180.7534
  17293378.324   -30275510.59549 -23556220.17849  17293377.0674   17293381.5124
  21850150.766    -6322036.94049  -4907889.73849  21850149.2054   21850154.2614
  18819721.240   -11502299.95449  -8949090.03949  18819722.2664   18819726.5374
  20308067.660   -14901975.66149 -11597380.36549  20308069.7074   20308074.3634
  19628373.956   -17451817.22349 -13577477.38549  19628371.4934   19628376.5254
  21821534.245     -293145.76859   -197602.23659  21821534.3354   21821543.7364
 94 11 19  2 24 29.9900000  0  8 27 19 18 16 29 28 31  2
  19935603.820   -19228350.79149 -14968813.06049  19935600.0264   19935604.5584
  17872071.759   -32113142.43849 -25008076.13749  17872073.0354   17872077.6394
  17287628.065   -30305723.12249 -23579762.40349  17287627.9634   17287632.1794
  21828871.668    -6433875.15249  -4995036.39849  21828867.6044   21828872.0014
  18825248.458   -11473244.95949  -8926449.80049  18825251.4894   18825255.6174
  20300082.445   -14943931.52549 -11630073.24249  20300085.4134   20300089.7974
  19609862.617   -17549105.95549 -13653286.75149  19609858.3464   19609863.1014
  21795841.519     -428170.52149   -302816.31549  21795840.5884   21795847.8284
 94 11 19  2 24 59.9900000  0  8 27 19 18 16 29 28 31  2
  19914635.272   -19338516.99249 -15054656.83449  19914636.0434   19914640.6144
  17861010.574   -32171280.43849 -25053378.47349  17861009.8804   17861014.3774
  17281980.427   -30335405.83649 -23602891.79049  17281979.3034   17281983.6244
  21807666.121    -6545276.08449  -5081842.30349  21807668.0104   21807673.5644
  18830852.963   -11443808.88949  -8903512.62649  18830852.7324   18830857.0724
  20292210.106   -14985323.66249 -11662326.85249  20292209.3394   20292213.5644
  19591417.929   -17645990.11249 -13728780.87849  19591421.7214   19591426.5284
  21770173.813     -563070.55149   -407933.18149  21770170.5134   21770177.4314
 94 11 19  2 25 29.9900000  0  8 27 19 18 16 29 28 31  2
  19893696.948   -19448548.94749 -15140396.00249  19893697.6504   19893702.6074
  17849987.820   -32229212.01349 -25098519.95749  17849985.9984   17849990.5144
  17276428.288   -30364581.31949 -23625625.93749  17276427.6964   17276431.9814
  21786553.608    -6656239.78249  -5168307.49149  21786551.7944   21786558.0804
  18836522.529   -11413996.79949  -8880282.44249  18836526.0774   18836529.9444
  20284438.533   -15026147.82649 -11694137.87849  20284440.3784   20284444.4784
  19573058.798   -17742458.56049 -13803951.06949  19573064.3784   19573069.0154
  21744528.199     -697832.38849   -512942.39149  21744526.1474   21744533.2184
 94 11 19  2 25 59.9900000  0  8 27 19 18 16 29 28 31  2
  19872780.448   -19558477.24249 -15226054.39849  19872778.8744   19872784.0234
  17839004.856   -32286928.87149 -25143494.12649  17839002.7654   17839007.3294
  17270969.572   -30393262.38449 -23647974.82549  17270969.6914   17270974.2484
  21765517.701    -6766775.62449  -5254439.27849  21765518.2254   21765523.6924
  18842269.901   -11383813.66249  -8856763.13349  18842269.5004   18842273.6344
  20276780.354   -15066406.77149 -11725508.49249  20276779.4544   20276784.0304
  19554784.982   -17838508.24749 -13878794.96049  19554786.5184   19554791.2184
  21718909.261     -832450.59049   -617839.67649  21718908.5624   21718915.7194
 94 11 19  2 26 29.9900000  0  8 27 19 18 16 29 28 31  2
  19851878.752   -19668304.63149 -15311634.17049  19851879.5084   19851884.4154
  17828061.302   -32344418.78449 -25188291.45649  17828062.6564   17828067.1534
  17265605.623   -30421456.59049 -23669944.34849  17265604.5794   17265608.9134
  21744565.788    -6876885.18549  -5340238.91849  21744565.0394   21744569.6484
  18848083.572   -11353260.46649  -8832955.46149  18848083.4614   18848087.6924
  20269222.505   -15106101.19149 -11756439.19149  20269226.3764   20269230.2474
  19536598.839   -17934123.32149 -13953300.19049  19536591.9274   19536596.6604
  21693322.221     -966909.41249   -722612.75249  21693322.7244   21693329.0364
 94 11 19  2 26 59.9900000  0  8 27 19 18 16 29 28 31  2
  19831002.316   -19778032.26449 -15397136.20249  19830999.2424   19831003.6534
  17817169.969   -32401668.01049 -25232901.23949  17817168.4304   17817172.9344
  17260332.498   -30449163.83649 -23691534.40849  17260332.0314   17260336.3824
  21723692.276    -6986574.47249  -5425711.08749  21723691.2164   21723697.1064
  18853969.068   -11322331.80349  -8808855.22949  18853969.1094   18853973.3624
  20261780.920   -15145225.70849 -11786925.83049  20261780.3784   20261785.1164
  19518476.495   -18029278.23649 -14027446.85449  19518484.3184   19518488.8664
  21667770.075    -1101194.00049   -827250.09149  21667768.1894   21667776.7094
 94 11 19  2 27 29.9900000  0  8 27 19 18 16 29 28 31  2
  19810132.473   -19887665.28749 -15482564.51849  19810136.5094   19810140.8144
  17806322.781   -32458662.93849 -25277312.86149  17806322.6124   17806326.9874
  17255157.220   -30476366.63749 -23712731.39649  17255155.6514   17255160.0124
  21702897.496    -7095847.01449  -5510858.52749  21702898.1934   21702903.7054
  18859926.598   -11291016.30249  -8784453.57449  18859928.2694   18859932.6434
  20254451.238   -15183779.70749 -11816967.90049  20254444.4734   20254448.3524
  19500471.448   -18123954.72349 -14101220.71749  19500467.6924   19500472.6874
  21642247.434    -1235301.79549   -931749.61049  21642247.8224   21642256.9974
 94 11 19  2 27 59.9900000  0  8 27 19 18 16 29 28 31  2
  19789294.871   -19997189.13349 -15567907.75049  19789294.7744   19789299.3114
  17795524.620   -32515424.12649 -25321542.35649  17795521.2614   17795525.7114
  17250081.368   -30503043.35149 -23733518.45149  17250078.9234   17250083.5104
  21682180.255    -7204708.46949  -5595685.59549  21682181.6784   21682187.4454
  18865964.734   -11259314.39949  -8759750.80649  18865960.8614   18865964.9374
  20247212.713   -15221765.65649 -11846567.34649  20247215.3024   20247219.5744
  19482538.531   -18218141.96749 -14174613.34349  19482544.5194   19482549.6234
  21616759.468    -1369253.90849  -1036127.81249  21616757.9764   21616765.3304
 94 11 19  2 28 29.9900000  0  8 27 19 18 16 29 28 31  2
  19768481.621   -20106585.06449 -15653151.31249  19768477.4214   19768482.2864
  17784763.206   -32571955.57949 -25365592.83149  17784763.8334   17784768.1694
  17245106.820   -30529178.12849 -23753883.21749  17245105.7714   17245110.3044
  21661545.676    -7313156.98549  -5680190.90449  21661544.4884   21661550.7494
  18872064.346   -11227232.00349  -8734751.54749  18872065.7864   18872070.1754
  20240091.125   -15259181.03749 -11875722.18349  20240095.9314   20240099.9244
  19464726.657   -18311830.20149 -14247617.12849  19464716.2474   19464721.0564
  21591295.056    -1503060.53449  -1140392.70249  21591297.3874   21591302.0124
 94 11 19  2 28 59.9900000  0  8 27 19 18 16 29 28 31  2
  19747682.373   -20215868.12849 -15738306.93249  19747681.6664   19747686.2774
  17774046.971   -32628267.25449 -25409472.05149  17774048.0604   17774052.3754
  17240237.318   -30554769.23849 -23773824.34749  17240235.5964   17240240.2844
  21640989.354    -7421182.62449  -5764366.74349  21640988.1454   21640994.5224
  18878244.276   -11194762.03849  -8709450.30349  18878244.7524   18878248.9344
  20233081.313   -15296028.78949 -11904434.71249  20233084.0514   20233087.7674
  19446978.786   -18405028.13049 -14320238.87149  19446981.3714   19446986.0264
  21565865.385    -1636735.52149  -1244555.05049  21565858.1464   21565864.5054
 94 11 19  2 29 29.9900000  0  8 27 19 18 16 29 28 31  2
  19726913.621   -20325032.55149 -15823370.09149  19726908.3904   19726912.8894
  17763371.031   -32684365.83849 -25453185.22749  17763372.7864   17763377.2744
  17235470.104   -30579823.00549 -23793346.76249  17235468.2224   17235472.9524
  21620512.962    -7528774.49949  -5848204.55649  21620514.2874   21620519.9144
  18884499.461   -11161895.44449  -8683839.98949  18884499.2724   18884503.2114
  20226178.593   -15332304.81649 -11932701.73649  20226180.6574   20226184.6494
  19429340.067   -18497741.94249 -14392483.37349  19429338.2244   19429343.4164
  21540449.272    -1770266.67249  -1348605.27249  21540447.4704   21540454.7634
 94 11 19  2 29 59.9900000  0  8 27 19 18 16 29 28 31  2
  19706156.898   -20434081.95349 -15908343.62649  19706156.7044   19706161.6094
  17752738.629   -32740247.81549 -25496729.61549  17752738.7484   17752743.1614
  17230798.497   -30604365.96349 -23812471.14449  17230797.9854   17230802.4144
  21600124.785    -7635925.03249  -5931698.45049  21600123.9544   21600130.2954
  18890823.227   -11128659.13249  -8657941.58149  18890823.7544   18890827.7184
  20219381.863   -15368013.56949 -11960526.73149  20219385.7184   20219389.7944
  19411796.155   -18589984.87249 -14464360.96549  19411785.3254   19411789.8474
  21515063.132    -1903651.40449  -1452541.37749  21515067.7824   21515070.9924
 94 11 19  2 30 29.9900000  0  7 27 19 18 16 29 28 31
  19685426.030   -20543023.64149 -15993233.22749  19685425.6784   19685430.5934
  17742148.519   -32795900.03649 -25540094.97549  17742148.4024   17742152.8694
  17226223.626   -30628406.96349 -23831204.39049  17226223.0384   17226227.6754
  21579823.183    -7742612.97749  -6014831.90149  21579821.7074   21579827.7114
  18897219.949   -11095048.37149  -8631751.39349  18897219.6324   18897223.7144
  20212702.123   -15403150.88449 -11987906.44649  20212698.7584   20212703.2914
  19394322.761   -18681763.98949 -14535877.13849  19394320.3104   19394325.4794
 94 11 19  2 30 59.9900000  0  7 27 19 18 16 29 28 31
  19664721.220   -20651857.63649 -16078038.91349  19664715.4214   19664720.3884
  17731604.520   -32851313.54549 -25583274.32849  17731603.6904   17731608.1254
  17221742.560   -30651955.81249 -23849554.14749  17221741.9564   17221746.5384
  21559611.500    -7848828.65049  -6097597.36549  21559609.5874   21559615.5814
  18903692.753   -11061062.62549  -8605269.00749  18903687.1164   18903691.2444
  20206123.437   -15437715.12749 -12014839.62849  20206121.5954   20206125.8034
  19376945.367   -18773073.50349 -14607027.38649  19376944.7724   19376949.1934
 94 11 19  2 31 29.9900000  0  7 27 19 18 16 29 28 31
  19644032.067   -20760567.86149 -16162748.15649  19644028.6694   19644033.4184
  17721107.276   -32906470.37549 -25626253.67049  17721107.7854   17721112.1864
  17217355.238   -30675007.65349 -23867516.63349  17217355.5974   17217359.7694
  21539487.144    -7954575.66449  -6179997.61649  21539486.5464   21539492.3724
  18910219.784   -11026727.01049  -8578514.00349  18910220.8364   18910225.0914
  20199652.931   -15471702.47349 -12041323.26649  20199654.0354   20199658.5884
  19359661.789   -18863900.88549 -14677801.95149  19359660.0584   19359665.2454
 94 11 19  2 31 59.9900000  0  8 27 19 18 16 29 28 31  2
  19623365.212   -20869150.65649 -16247358.11449  19623366.1564   19623370.8424
  17710660.506   -32961369.49249 -25669032.19449  17710660.5774   17710664.9964
  17213067.354   -30697547.86949 -23885080.44549  17213066.3324   17213070.7304
  21519453.384    -8059856.75349  -6262034.81249  21519452.1094   21519457.8314
  18916822.721   -10992050.76949  -8551493.58349  18916819.8154   18916823.6324
  20193300.816   -15505111.45949 -12067356.23849  20193296.5184   20193300.8344
  19342470.815   -18954230.21349 -14748188.41449  19342471.5634   19342476.3784
  21413871.409      -46213.00719
 94 11 19  2 32 29.9900000  0  8 27 19 18 16 29 28 31  2
  19602724.182   -20977608.51849 -16331870.71249  19602726.9944   19602731.5934
  17700261.331   -33016020.74249 -25711617.57149  17700260.9614   17700265.2934
  17208877.440   -30719571.07449 -23902241.38349  17208875.2174   17208879.6764
  21499504.550    -8164685.25449  -6343719.37249  21499504.0894   21499510.4734
  18923481.781   -10957022.24949  -8524198.64249  18923485.7274   18923489.1184
  20187052.801   -15537943.58849 -12092939.71449  20187049.0454   20187053.3954
  19325381.432   -19044047.48849 -14818175.87449  19325380.2124   19325385.2694
  21388672.477     -178685.772 9   -111045.63159                  21388675.3414
 94 11 19  2 32 59.9900000  0  8 27 19 18 16 29 28 31  2
  19582113.524   -21085936.82049 -16416282.36049  19582112.9134   19582117.4724
  17689908.645   -33070422.04149 -25754008.19049  17689908.7154   17689913.1174
  17204784.444   -30741071.48149 -23918994.95349  17204783.8484   17204788.2944
  21479642.737    -8269074.32349  -6425061.49249  21479639.2034   21479644.8364
  18930212.548   -10921651.16949  -8496636.78449  18930216.3234   18930220.6964
  20180907.446   -15570200.27349 -12118074.78849  20180910.9124   20180914.5384
  19308387.779   -19133344.21649 -14887757.72249  19308387.5384   19308392.0964
  21363493.733     -310989.35359   -214139.23849  21363494.1004   21363499.6784
 94 11 19  2 33 29.9900000  0  8 27 19 18 16 29 28 31  2
  19561523.689   -21194148.34149 -16500603.01149  19561520.7774   19561525.7424
  17679601.569   -33124595.90749 -25796221.58949  17679599.9624   17679604.3094
  17200792.665   -30762046.30849 -23935338.98449  17200792.4104   17200797.0334
  21459860.311    -8373034.24649  -6506069.22649  21459856.4614   21459862.6744
  18937013.708   -10885927.46849  -8468800.16949  18937014.4454   18937018.7964
  20174880.696   -15601884.08149 -12142763.46649  20174881.1354   20174885.2984
  19291482.150   -19222128.88049 -14956940.56249  19291492.1464   19291497.3434
  21338348.471     -443133.49349   -317108.66449  21338348.4984   21338354.1274
 94 11 19  2 33 59.9900000  0  8 27 19 18 16 29 28 31  2
  19540952.315   -21302253.05249 -16584840.44149  19540949.3814   19540953.9504
  17669332.730   -33178557.31549 -25838269.43549  17669331.2494   17669335.6554
  17196901.446   -30782497.83149 -23951275.23549  17196900.6584   17196905.0414
  21440155.480    -8476565.27349  -6586742.74349  21440155.0164   21440160.2574
  18943885.684   -10849825.99749  -8440669.16749  18943884.4254   18943888.3544
  20168959.149   -15632994.01449 -12167004.97949  20168961.5504   20168965.6744
  19274694.843   -19310413.04849 -15025733.39849  19274692.6984   19274696.9764
  21313233.516     -575115.64049   -419951.86749  21313233.2204   21313238.6864
 94 11 19  2 34 29.9900000  0  8 27 19 18 16 29 28 31  2
  19520404.410   -21410244.19849 -16668989.37149  19520399.2874   19520403.7794
  17659105.535   -33232301.60049 -25880148.09149  17659104.0764   17659108.5564
  17193109.900   -30802425.45149 -23966803.25649  17193108.5504   17193113.0304
  21420539.715    -8579653.06149  -6667070.87249  21420538.2604   21420543.9444
  18950830.902   -10813331.89749  -8412232.21449  18950829.0614   18950832.5644
  20163152.922   -15663527.10249 -12190796.97949  20163151.3864   20163155.2584
  19257989.707   -19398215.13849 -15094150.60049  19257984.2164   19257989.3024
  21288152.175     -706913.90349   -522651.78049  21288152.4544   21288158.1974
 94 11 19  2 34 59.9900000  0  8 27 19 18 16 29 28 31  2
  19499873.501   -21518109.37049 -16753040.14349  19499873.0644   19499877.9134
  17648920.799   -33285824.18549 -25921853.99949  17648918.9694   17648923.6204
  17189418.157   -30821823.56749 -23981918.67949  17189417.3864   17189421.6184
  21401008.291    -8682289.09849  -6747047.00349  21401007.1404   21401012.7444
  18957853.409   -10776442.41149  -8383487.18949  18957848.7614   18957852.6704
  20157450.697   -15693481.37349 -12214137.96549  20157450.9694   20157455.0754
  19241368.023   -19485551.22549 -15162204.67449  19241365.2094   19241369.3084
  21263114.005     -838517.34649   -625199.88249  21263109.7204   21263115.3684
 94 11 19  2 35 29.9900000  0  8 27 19 18 16 29 28 31  2
  19479369.583   -21625848.58349 -16836992.75549  19479370.9804   19479375.8164
  17638778.815   -33339120.57549 -25963383.64649  17638777.0634   17638781.6944
  17185826.064   -30840696.86649 -23996625.15349  17185825.9064   17185830.2194
  21381564.577    -8784472.06149  -6826670.09349  21381562.0394   21381567.9754
  18964942.985   -10739148.89649  -8354427.33649  18964945.7634   18964949.3904
  20151860.761   -15722856.75549 -12237027.86949  20151861.2084   20151865.3074
  19224835.777   -19572428.72049 -15229901.40949  19224832.7214   19224837.8214
  21238101.483     -969923.03049   -727593.88549  21238103.2884   21238109.4754
 94 11 19  2 35 59.9900000  0  8 27 19 18 16 29 28 31  2
  19458899.929   -21733437.91549 -16920828.57949  19458897.3244   19458902.2774
  17628680.937   -33392178.45749 -26004727.44649  17628680.4404   17628685.1904
  17182336.214   -30859039.10449 -24010917.81949  17182335.5254   17182339.8914
  21362200.474    -8886188.34449  -6905929.49549  21362206.0314   21362212.5424
  18972124.869   -10701454.21849  -8325054.86649  18972118.8534   18972122.5664
  20146386.453   -15751649.34849 -12259463.65249  20146382.2834   20146386.5984
  19208402.542   -19658825.73149 -15297223.74049  19208391.6304   19208396.6394
  21213139.403    -1101129.00049   -829832.25549  21213135.8194   21213141.9934
 94 11 19  2 36 29.9890000  0  8 27 19 18 16 29 28 31  2
  19438452.739   -21840862.35449 -17004535.92149  19438455.3184   19438459.8834
  17618632.453   -33444985.91649 -26045876.11249  17618631.5064   17618636.3144
  17178949.952   -30876836.23149 -24024785.72049  17178948.7254   17178953.1914
  21342935.780    -8987426.24149  -6984816.13949  21342942.1744   21342947.0024
  18979371.137   -10663373.55049  -8295381.64249  18979365.1814   18979369.0914
  20141014.484   -15779855.55349 -12281442.50949  20141014.5544   20141018.8544
  19192050.175   -19744708.17549 -15364145.11449  19192049.0494   19192053.6264
  21188206.475    -1232138.02249   -931917.19449  21188205.2054   21188212.1964
 94 11 19  2 36 59.9890000  0  8 27 19 18 16 29 28 31  2
  19418041.712   -21948139.24849 -17088128.29049  19418041.1744   19418045.7194
  17608632.782   -33497537.18349 -26086825.14249  17608631.3834   17608636.0234
  17175666.232   -30894091.65549 -24038231.51049  17175665.2544   17175669.6804
  21323767.156    -9088199.13049  -7063340.44249  21323765.8144   21323771.2984
  18986682.553   -10624913.98549  -8265413.17949  18986684.2814   18986687.4444
  20135759.607   -15807475.37549 -12302964.44249  20135758.5204   20135763.0374
  19175822.426   -19830047.25349 -15430643.07049  19175809.1344   19175814.0204
  21163310.204    -1362973.80349  -1033867.11349  21163308.5114   21163315.2284
 94 11 19  2 37 29.9890000  0  8 27 19 18 16 29 28 31  2
  19397653.182   -22055273.88249 -17171609.80649  19397653.8194   19397658.5074
  17598681.073   -33549839.27649 -26127580.00849  17598678.6054   17598683.2234
  17172484.733   -30910806.01949 -24051255.70849  17172484.4934   17172489.0654
  21304679.037    -9188497.79249  -7141495.24549  21304679.5654   21304684.4464
  18994072.991   -10586090.12749  -8235160.84249  18994072.0914   18994075.3624
  20130616.296   -15834508.25549 -12324029.01649  20130614.1094   20130618.5914
  19159681.925   -19914817.25749 -15496697.60349  19159677.6274   19159683.1174
  21138442.619    -1493629.94349  -1135677.01849  21138443.8974   21138451.5654
 94 11 19  2 37 59.9890000  0  8 27 19 18 16 29 28 31  2
  19377297.101   -22162265.38849 -17254979.80249  19377294.0824   19377298.8464
  17588774.204   -33601899.30249 -26168146.26349  17588771.9674   17588776.5064
  17169407.654   -30926977.69349 -24063857.02349  17169407.2294   17169411.6264
  21285693.629    -9288310.94249  -7219271.71349  21285685.6704   21285689.8904
  19001524.485   -10546922.24249  -8204640.44749  19001524.9714   19001528.8274
  20125585.536   -15860956.89049 -12344638.33749  20125581.5724   20125585.3594
  19143649.765   -19999012.92149 -15562304.59449  19143655.8734   19143660.5554
  21113617.985    -1624095.87749  -1237338.75249  21113619.1574   21113624.6494
 94 11 19  2 38 29.9890000  0  8 27 19 18 16 29 28 31  2
  19356956.664   -22269131.93149 -17338252.41949  19356958.0534   19356962.6794
  17578912.767   -33653710.97849 -26208518.99749  17578912.4624   17578917.0744
  17166432.524   -30942616.24049 -24076042.90349  17166431.2904   17166435.7464
  21266781.957    -9387636.64649  -7296668.31049  21266783.3874   21266790.3424
  19009040.196   -10507425.65749  -8173863.91949  19009041.0504   19009044.6304
  20120666.905   -15886820.63749 -12364791.89949  20120659.7904   20120664.0004
  19127749.945   -20082650.26149 -15627476.52749  19127740.6744   19127744.7434
  21088831.742    -1754365.77549  -1338847.74949  21088829.4414   21088834.9984
 94 11 19  2 38 59.9890000  0  8 27 19 18 16 29 28 31  2
  19336644.998   -22375886.01649 -17421437.40849  19336643.2714   19336648.0334
  17569097.281   -33705285.39949 -26248706.86249  17569098.1984   17569102.7814
  17163553.544   -30957743.51449 -24087830.40349  17163552.7014   17163556.9834
  21247973.511    -9486478.39149  -7373687.81549  21247976.0854   21247980.4714
  19016621.354   -10467597.99349  -8142829.39849  19016620.0464   19016623.5654
  20115851.475   -15912103.29649 -12384492.66249  20115848.8334   20115852.9104
  19111928.547   -20165754.99749 -15692233.44849  19111926.0364   19111930.8844
  21064076.497    -1884436.99649  -1440201.90949  21064076.8334   21064083.2474
 94 11 19  2 39 29.9890000  0  8 27 19 18 16 29 28 31  2
  19316347.300   -22482515.09549 -17504525.00049  19316352.7564   19316357.0994
  17559328.149   -33756628.28649 -26288714.30249  17559327.8804   17559332.4744
  17160774.028   -30972351.27349 -24099213.08649  17160772.9464   17160777.3754
  21229259.186    -9584826.19749  -7450322.46949  21229260.0814   21229264.8964
  19024267.521   -10427432.49749  -8111531.64549  19024263.4944   19024267.0724
  20111147.975   -15936800.85549 -12403737.51049  20111149.0474   20111152.8884
  19096214.855   -20248340.37849 -15756585.67449  19096210.9264   19096215.2704
  21039364.748    -2014299.62749  -1541393.51349  21039364.9194   21039371.0964
 94 11 19  2 39 59.9890000  0  8 27 19 18 16 29 28 31  2
  19296086.339   -22589022.66549 -17587517.89949  19296085.1364   19296089.4724
  17549606.612   -33807725.88749 -26328530.61549  17549604.3484   17549608.9364
  17158093.907   -30986441.74849 -24110192.68749  17158091.6684   17158096.0224
  21210639.462    -9682690.39849  -7526580.26649  21210638.4534   21210642.1764
  19031978.608   -10386913.96249  -8079958.80149  19031973.9674   19031977.4854
  20106561.429   -15960914.95249 -12422527.70849  20106560.0214   20106564.1674
  19080589.706   -20330420.68249 -15820544.34049  19080591.2724   19080596.2434
  21014689.135    -2143965.68649  -1642431.94749  21014690.9614   21014696.3804
 94 11 19  2 40 29.9890000  0  8 27 19 18 16 29 28 31  2
  19275843.984   -22695417.45349 -17670422.92049  19275838.3964   19275843.2714
  17539927.627   -33858580.56649 -26368157.62749  17539926.9414   17539931.4914
  17155509.779   -31000013.73549 -24120768.26949  17155508.9944   17155513.1334
  21192105.471    -9780082.10549  -7602469.89349  21192105.0974   21192110.0344
  19039749.234   -10346027.33849  -8048099.10949  19039754.5314   19039757.6964
  20102086.026   -15984446.50949 -12440863.98249  20102082.5154   20102086.4964
  19065066.611   -20411991.78049 -15884106.20849  19065069.0824   19065073.8434
  20990054.491    -2273451.11149  -1743329.67549  20990049.9414   20990056.3174
 94 11 19  2 40 59.9890000  0  8 27 19 18 16 29 28 31  2
  19255613.238   -22801685.01949 -17753228.81249  19255616.4454   19255621.2984
  17530296.019   -33909187.04949 -26407591.25349  17530296.9324   17530301.4644
  17153027.667   -31013057.16049 -24130931.98349  17153026.8344   17153031.4114
  21173661.384    -9876998.89749  -7677989.43849  21173662.0744   21173667.0604
  19047609.608   -10304758.36949  -8015941.49249  19047607.5054   19047611.1294
  20097716.538   -16007397.09849 -12458747.54749  20097714.3774   20097719.0104
  19049640.685   -20493033.91849 -15947255.90149  19049646.8154   19049651.9944
  20965447.119    -2402744.16949  -1844077.50849  20965446.4904   20965452.4654
 94 11 19  2 41 29.9890000  0  8 27 19 18 16 29 28 31  2
  19235419.530   -22907806.65749 -17835920.99349  19235422.1824   19235427.0394
  17520720.651   -33959524.20549 -26446815.00649  17520718.0694   17520722.6034
  17150649.655   -31025552.77349 -24140668.83849  17150649.0224   17150653.5154
  21155308.995    -9973428.52249  -7753129.41249  21155312.6834   21155317.6144
  19055531.259   -10263101.57349  -7983481.69049  19055534.4294   19055538.4134
  20093465.661   -16029761.64149 -12476174.46249  20093458.5404   20093462.9114
  19034317.975   -20573524.70949 -16009975.98549  19034330.0754   19034335.3494
  20940887.108    -2531825.34749  -1944660.25549  20940883.1574   20940888.4624
 94 11 19  2 41 59.9890000  0  8 27 19 18 16 29 28 31  2
  19215260.222   -23013786.01049 -17918502.29749  19215255.1734   19215259.7324
  17511191.828   -34009595.87749 -26485831.89549  17511189.8404   17511194.4514
  17148375.365   -31037508.51949 -24149985.01949  17148374.1164   17148378.4174
  21137056.273   -10069362.98149  -7827883.52349  21137056.3474   21137061.6834
  19063542.063   -10221064.16549  -7950725.29849  19063533.9474   19063537.8884
  20089314.156   -16051541.05749 -12493145.42749  20089314.2894   20089318.6004
  19019125.826   -20653453.71949 -16072258.31849  19019120.1204   19019125.2394
  20916360.237    -2660692.15349  -2045075.94449  20916360.3664   20916366.4084
 94 11 19  2 42 29.9890000  0  8 27 19 18 16 29 28 31  2
  19195115.753   -23119623.21649 -18000972.84349  19195115.0794   19195119.6544
  17501707.320   -34059429.51549 -26524663.29849  17501706.6534   17501711.2744
  17146201.734   -31048928.59549 -24158883.77549  17146200.8544   17146205.3494
  21118900.882   -10164790.96549  -7902242.98149  21118897.1294   21118901.4714
  19071607.994   -10178663.09449  -7917685.52949  19071602.6564   19071606.6224
  20085279.303   -16072740.76049 -12509664.66749  20085280.2874   20085284.1454
  19004016.302   -20732815.61149 -16134098.74349  19004018.1284   19004023.2024
  20891881.092    -2789339.47349  -2145320.56149  20891880.1334   20891885.2344
 94 11 19  2 42 59.9890000  0  8 27 19 18 16 29 28 31  2
  19175007.895   -23225302.77049 -18083320.54149  19175004.9414   19175009.5194
  17492270.511   -34109021.78849 -26563306.62249  17492269.5874   17492274.2254
  17144128.838   -31059822.65449 -24167372.66149  17144127.5714   17144132.1514
  21100834.682   -10259699.69549  -7976197.82749  21100835.8874   21100841.8404
  19079740.035   -10135897.48949  -7884361.70249  19079740.6424   19079744.5184
  20081357.375   -16093353.57649 -12525726.58449  20081357.5744   20081361.6404
  18989027.313   -20811605.70549 -16195493.60049  18989024.5594   18989030.3144
  20867441.290    -2917756.68849  -2245385.89649  20867442.7814   20867448.4664
 94 11 19  2 43 29.9890000  0  8 27 19 18 16 29 28 31  2
  19154922.495   -23330841.92049 -18165558.83249  19154921.4594   19154925.9954
  17482875.033   -34158398.99449 -26601782.37149  17482873.3474   17482878.0114
  17142155.932   -31070196.33649 -24175456.05649  17142153.6604   17142158.2814
  21082874.625   -10354102.15749  -8049758.18049  21082872.0154   21082877.4184
  19087945.209   -10092779.46749  -7850763.27949  19087945.7094   19087949.7324
  20077544.367   -16113386.82749 -12541336.89949  20077545.5664   20077549.8084
  18974137.762   -20889854.94049 -16256467.00849  18974134.1784   18974139.1624
  20843044.182    -3045977.56749  -2345298.23049  20843043.6914   20843048.6804
 94 11 19  2 43 59.9890000  0  8 27 19 18 16 29 28 31  2
  19134862.285   -23436251.25349 -18247695.98149  19134862.9054   19134867.3314
  17473516.542   -34207574.79749 -26640101.17549  17473515.6534   17473520.2434
  17140279.052   -31080052.50849 -24183136.19649  17140277.9764   17140282.4724
  21065001.234   -10448003.06749  -8122927.72149  21065003.1464   21065008.7134
  19096224.221   -10049313.69349  -7816893.87249  19096216.9934   19096220.9744
  20073843.754   -16132841.53849 -12556496.41249  20073843.2014   20073847.7834
  18959341.821   -20967572.79849 -16317026.36749  18959344.9214   18959350.3054
  20818684.887    -3174016.22249  -2445068.58149  20818678.8324   20818684.2384
 94 11 19  2 44 29.9890000  0  8 27 19 18 16 29 28 31  2
  19114830.457   -23541523.20549 -18329726.06949  19114830.2174   19114834.8224
  17464200.667   -34256532.31049 -26678249.88149  17464199.3234   17464203.8554
  17138505.033   -31089377.65749 -24190402.55149  17138503.6894   17138508.0094
  21047227.280   -10541401.75749  -8195705.93249  21047230.2184   21047236.0124
  19104553.646   -10005500.39449  -7782753.66249  19104554.3454   19104558.4134
  20070252.337   -16151715.65349 -12571203.50949  20070251.5784   20070256.5364
  18944653.292   -21044759.28649 -16377171.66249  18944656.8474   18944661.7644
  20794350.928    -3301863.91649  -2544690.12149  20794350.3684   20794355.8694
 94 11 19  2 44 59.9890000  0  8 27 19 18 16 29 28 31  2
  19094823.913   -23646664.73949 -18411654.53149  19094822.2644   19094826.9944
  17454930.861   -34305248.98049 -26716210.92749  17454928.9354   17454933.3824
  17136832.431   -31098163.75549 -24197248.86949  17136831.5604   17136835.9214
  21029551.555   -10634304.44849  -8268097.63749  21029551.6194   21029556.3474
  19112960.066    -9961340.83849  -7748343.63049  19112957.7154   19112961.6964
  20066774.045   -16170009.25549 -12585458.25149  20066770.8524   20066775.2154
  18930070.655   -21121410.76449 -16436900.06649  18930070.2104   18930075.8814
  20770065.516    -3429524.48249  -2644165.82249  20770056.7984   20770062.2674
 94 11 19  2 45 29.9890000  0  8 27 19 18 16 29 28 31  2
  19074838.469   -23751679.82949 -18493484.46649  19074838.6694   19074843.4364
  17445706.865   -34353713.35049 -26753975.37049  17445706.4434   17445710.7934
  17135267.450   -31106387.38549 -24203656.89649  17135266.8474   17135271.1124
  21011970.190   -10726703.18649  -8340096.64849  21011968.5954   21011973.6594
  19121422.720    -9916843.43649  -7713670.35449  19121425.2744   19121429.6944
  20063401.814   -16187721.74049 -12599260.18449  20063400.0194   20063404.0174
  18915589.736   -21197515.32149 -16496202.30549  18915588.0984   18915593.3334
  20745792.432    -3556982.23449  -2743483.49649  20745804.2824   20745807.6724
 94 11 19  2 45 59.9890000  0  8 27 19 18 16 29 28 31  2
  19054884.349   -23856553.23649 -18575204.00949  19054881.9604   19054886.5684
  17436536.272   -34401911.19849 -26791532.12449  17436534.8664   17436539.2604
  17133807.098   -31114063.69049 -24209638.44149  17133805.8134   17133810.5014
  20994486.324   -10818588.04049  -8411695.24449  20994483.0994   20994488.7924
  19129951.012    -9872015.19249  -7678739.28649  19129955.8584   19129960.4934
  20060140.525   -16204854.41449 -12612610.30449  20060139.7014   20060143.7264
  18901206.132   -21273051.34949 -16555061.53249  18901214.6514   18901219.2504
  20721595.279    -3684209.32649  -2842621.39349  20721592.3074   20721597.8404
 94 11 19  2 46 29.9890000  0  8 27 19 18 16 29 28 31  2
  19034951.911   -23961273.38049 -18656804.12749  19034954.3944   19034958.9454
  17427414.290   -34449840.99749 -26828880.02249  17427414.2124   17427418.5034
  17132449.700   -31121196.49249 -24215196.47949  17132448.7614   17132453.2554
  20977101.885   -10909942.40649  -8482880.46649  20977099.2844   20977104.4924
  19138546.554    -9826862.24949  -7643555.19649  19138548.2064   19138552.3824
  20056986.997   -16221405.08349 -12625506.92149  20056989.9304   20056994.7914
  18886951.628   -21348003.24749 -16613465.59449  18886951.1634   18886956.6204
  20697429.697    -3811198.32249  -2941573.86049  20697425.5054   20697432.2304
 94 11 19  2 46 59.9890000  0  8 27 19 18 16 29 28 31  2
  19015052.784   -24065844.48149 -18738288.09649  19015055.0484   19015059.9304
  17418342.648   -34497507.54849 -26866022.79049  17418343.3834   17418347.7284
  17131192.790   -31127798.68949 -24220341.05849  17131192.3814   17131196.7564
  20959817.179   -11000773.81249  -8553658.18149  20959814.6024   20959819.5444
  19147199.933    -9781377.55349  -7608112.58949  19147203.5854   19147207.9024
  20053953.635   -16237370.95249 -12637947.85249  20053951.8244   20053956.4734
  18872794.442   -21422374.45149 -16671417.17049  18872798.6644   18872804.0534
  20673305.732    -3937953.64149  -3040344.22749  20673304.5824   20673311.3684
 94 11 19  2 47 29.9890000  0  8 27 19 18 16 29 28 31  2
  18995186.488   -24170262.73149 -18819652.96449  18995184.8794   18995189.6604
  17409321.509   -34544925.64149 -26902971.94949  17409320.1194   17409324.5504
  17130034.846   -31133891.08049 -24225088.38049  17130033.0154   17130037.5714
  20942628.854   -11091090.13649  -8624034.53849  20942627.7304   20942633.3224
  19155918.462    -9735563.22849  -7572413.13349  19155921.7864   19155926.4534
  20051017.267   -16252757.24149 -12649937.16349  20051023.7174   20051028.4454
  18858758.484   -21496173.35549 -16728922.79349  18858755.4764   18858761.0394
  20649229.042    -4064476.13249  -3138933.19749  20649228.5844   20649235.0444
 94 11 19  2 47 59.9890000  0  8 27 19 18 16 29 28 31  2
  18975346.279   -24274535.53849 -18900904.50349  18975342.5314   18975347.1924
  17400340.182   -34592104.28049 -26939734.53049  17400342.3404   17400346.7494
  17128971.388   -31139478.63249 -24229442.32649  17128969.7884   17128974.2964
  20925538.162   -11180896.48349  -8694013.51149  20925538.2064   20925543.2694
  19164705.073    -9689406.91049  -7536447.20249  19164704.9534   19164709.7564
  20048208.586   -16267562.74249 -12661473.90649  20048206.5394   20048210.8054
  18844821.550   -21569399.73249 -16785982.28649  18844821.2464   18844826.1974
  20625199.147    -4190774.75749  -3237347.72649  20625195.0304   20625200.8024
 94 11 19  2 48 29.9890000  0  8 27 19 18 16 29 28 31  2
  18955527.320   -24378686.25049 -18982060.89149  18955523.3784   18955528.2394
  17391411.063   -34639052.17049 -26976317.29849  17391408.3774   17391412.8124
  17128005.351   -31144548.72949 -24233393.06949  17128004.9094   17128009.3924
  20908547.190   -11270199.00949  -8763599.89749  20908544.2914   20908549.6454
  19173554.035    -9642898.89149  -7500207.22549  19173555.4184   19173559.9214
  20045501.956   -16281788.88949 -12672559.20249  20045499.4124   20045503.5784
  18831008.662   -21642059.80549 -16842600.51449  18830994.3134   18831000.0024
  20601202.031    -4316867.87249  -3335602.11349  20601200.1904   20601205.9854
 94 11 19  2 48 59.9890000  0  8 27 19 18 16 29 28 31  2
  18935733.428   -24482718.01149 -19063124.60049  18935726.7494   18935731.5954
  17382521.094   -34685762.28549 -27012714.80049  17382519.8414   17382524.3454
  17127139.969   -31149094.35449 -24236935.13549  17127139.9524   17127144.6064
  20891647.099   -11359013.16249  -8832805.73149  20891643.4234   20891649.0974
  19182480.156    -9596018.51149  -7463677.08049  19182476.2524   19182480.5964
  20042905.189   -16295435.81649 -12683193.16449  20042902.7854   20042907.1584
  18817283.357   -21714160.44049 -16898782.80449  18817273.8684   18817279.1984
  20577244.392    -4442752.44749  -3433694.02149  20577244.9944   20577250.9504
 94 11 19  2 49 29.9890000  0  8 27 19 18 16 29 28 31  2
  18915954.104   -24586616.03249 -19144084.09549  18915955.5584   18915960.3194
  17373676.911   -34732235.27149 -27048927.50549  17373676.3744   17373680.6804
  17126377.427   -31153106.09849 -24240061.18249  17126376.5794   17126380.7964
  20874838.983   -11447328.24149  -8901622.68149  20874837.6064   20874843.7944
  19191467.554    -9548769.78549  -7426859.90649  19191467.4464   19191472.0664
  20040413.512   -16308503.59849 -12693375.84149  20040415.8214   20040420.4114
  18803658.816   -21785683.71949 -16954515.21649  18803663.7784   18803668.6384
  20553332.109    -4568422.32149  -3531618.60749  20553331.2384   20553336.9104
 94 11 19  2 49 59.9890000  0  8 27 19 18 16 29 28 31  2
  18896217.058   -24690375.08149 -19224935.30049  18896210.8664   18896215.7724
  17364877.522   -34778473.60949 -27084957.37949  17364877.3084   17364881.7044
  17125715.096   -31156579.87949 -24242768.03649  17125715.3624   17125720.1424
  20858129.949   -11535136.43249  -8970044.65849  20858128.8834   20858133.5144
  19200524.907    -9501160.37649  -7389761.69449  19200527.3424   19200531.6804
  20038038.236   -16320990.75349 -12703106.09549  20038039.3464   20038043.6324
  18790161.872   -21856627.55949 -17009796.13549  18790163.5754   18790168.4374
  20529460.008    -4693875.15549  -3629374.07549  20529458.2184   20529463.8544
 94 11 19  2 50 29.9890000  0  8 27 19 18 16 29 28 31  2
  18876499.095   -24793989.59649 -19305673.88749  18876493.7144   18876498.3684
  17356125.152   -34824482.53349 -27120808.48649  17356122.2284   17356126.5754
  17125155.666   -31159529.17449 -24245066.19749  17125154.5274   17125158.9364
  20841517.006   -11622442.94149  -9038075.69849  20841514.7784   20841520.0734
  19209653.974    -9453210.97649  -7352398.54249  19209651.8324   19209656.2784
  20035771.055   -16332905.87649 -12712390.57849  20035772.3704   20035776.3834
  18776770.474   -21927007.48449 -17064637.63049  18776770.6554   18776775.4614
  20505626.365    -4819114.61949  -3726963.26649  20505625.5514   20505631.5424
 94 11 19  2 50 59.9890000  0  8 27 19 18 16 29 28 31  2
  18856808.886   -24897435.10249 -19386280.77149  18856808.4064   18856813.4674
  17347414.982   -34870246.23249 -27156468.51749  17347413.7154   17347418.0584
  17124695.268   -31161944.77149 -24246948.49049  17124694.5204   17124699.0674
  20824997.990   -11709248.25749  -9105716.21949  20824996.2714   20825001.3174
  19218835.831    -9404931.43249  -7314778.13849  19218839.1794   19218843.3404
  20033614.834   -16344244.65149 -12721225.98349  20033614.3914   20033619.0544
  18763487.705   -21996812.85549 -17119031.41549  18763487.0324   18763492.0844
  20481833.570    -4944125.05849  -3824373.99649  20481837.0984   20481842.6654
 94 11 19  2 51 29.9890000  0  8 27 19 18 16 29 28 31  2
  18837155.636   -25000719.31649 -19466761.97749  18837154.0654   18837159.1714
  17338749.102   -34915775.46249 -27191945.83449  17338749.8004   17338754.1994
  17124337.432   -31163829.27249 -24248416.94649  17124336.0844   17124340.6664
  20808575.059   -11795545.35149  -9172960.70249  20808574.5034   20808579.9424
  19228079.604    -9356347.25349  -7276920.35149  19228084.5144   19228088.6884
  20031562.661   -16355011.04949 -12729615.38649  20031565.3904   20031570.6144
  18750310.308   -22066037.84649 -17172972.95149  18750313.4544   18750319.0504
  20458097.902    -5068900.98849  -3921601.97649  20458092.9654   20458098.6524
 94 11 19  2 51 59.9890000  0  8 27 19 18 16 29 28 31  2
  18817532.868   -25103856.45549 -19547128.58549  18817527.6614   18817532.7874
  17330132.652   -34961061.62249 -27227233.75749  17330132.0324   17330136.4174
  17124081.499   -31165174.15049 -24249464.91549  17124080.3004   17124084.6274
  20792252.769   -11881324.66149  -9239801.71349  20792251.0254   20792256.8274
  19237390.842    -9307465.06449  -7238830.34649  19237386.4204   19237390.6244
  20029624.303   -16365205.87449 -12737559.39449  20029625.4984   20029630.3574
  18737247.270   -22134691.03449 -17226468.92349  18737248.9994   18737254.4704
  20434399.229    -5193448.89849  -4018652.28349  20434391.9784   20434397.9674
 94 11 19  2 52 29.9890000  0  8 27 19 18 16 29 28 31  2
  18797932.737   -25206852.98449 -19627385.62749  18797928.1624   18797933.1684
  17321564.136   -35006098.30249 -27262327.28149  17321561.8874   17321566.3444
  17123927.244   -31165981.52449 -24250094.04549  17123926.4504   17123930.9444
  20776025.609   -11966589.44549  -9306241.80349  20776026.2154   20776031.2394
  19246744.823    -9258277.93049  -7200502.73549  19246746.9524   19246750.4874
  20027797.928   -16374834.16049 -12745061.94149  20027793.4664   20027797.7444
  18724287.472   -22202764.86949 -17279513.45149  18724295.6044   18724300.9654
  20410736.234    -5317770.31749  -4115526.08949  20410734.8054   20410740.2024
 94 11 19  2 52 59.9890000  0  8 27 19 18 16 29 28 31  2
  18778359.569   -25309711.80249 -19707535.35949  18778354.9254   18778359.7664
  17313039.480   -35050880.77449 -27297222.71249  17313039.9174   17313044.4094
  17123875.115   -31166256.47149 -24250308.30249  17123874.4054   17123878.7104
  20759899.192   -12051336.82449  -9372278.73149  20759898.7164   20759904.9144
  19256168.448    -9208783.13749  -7161935.37849  19256165.4274   19256169.3084
  20026066.619   -16383895.91049 -12752123.05349  20026068.4484   20026073.3274
  18711466.398   -22270237.86849 -17332089.80649  18711456.4074   18711460.6814
  20387127.782    -5441862.76549  -4212221.47849  20387121.2334   20387126.2794
 94 11 19  2 53 29.9890000  0  8 27 19 18 16 29 28 31  2
  18758809.761   -25412441.82249 -19787584.72049  18758806.1554   18758810.6274
  17304567.158   -35095407.51249 -27331918.86349  17304566.9174   17304571.4274
  17123922.216   -31166006.24249 -24250113.33149  17123921.7454   17123926.4484
  20743875.900   -12135540.84349  -9437892.23849  20743875.7654   20743881.1154
  19265639.724    -9158972.58149  -7123121.97049  19265643.5304   19265648.0034
  20024456.994   -16392386.76549 -12758739.29649  20024453.0984   20024457.8524
  18698725.758   -22337108.13349 -17384196.49049  18698731.1584   18698735.7624
  20363562.761    -5565721.28149  -4308734.53549  20363551.1114   20363557.0634
 94 11 19  2 53 59.9890000  0  8 27 19 18 16 29 28 31  2
  18739279.091   -25515048.08749 -19867537.65949  18739280.7714   18739285.2754
  17296143.763   -35139673.62049 -27366411.94049  17296143.1254   17296147.7734
  17124068.544   -31165239.05549 -24249515.53849  17124068.0374   17124072.4584
  20727958.803   -12219201.90149  -9503082.67549  20727955.0684   20727961.5274
  19275187.927    -9108834.28349  -7084053.20749  19275185.0014   19275188.8304
  20022945.938   -16400308.35349 -12764911.95249  20022945.7824   20022950.2094
  18686114.566   -22403384.18849 -17435840.15749  18686118.6654   18686124.3684
  20340033.013    -5689359.94849  -4405076.31049  20340024.5454   20340029.8694
 94 11 19  2 54 29.9890000  0  8 27 19 18 16 29 28 31  2
  18719781.826   -25617529.07049 -19947392.96649  18719779.1814   18719783.7564
  17287769.126   -35183684.10049 -27400705.81949  17287768.2064   17287772.7384
  17124311.750   -31163964.75949 -24248522.59549  17124310.3924   17124315.0274
  20712132.136   -12302328.81749  -9567856.89349  20712136.3764   20712142.0594
  19284789.777    -9058356.30549  -7044719.73749  19284790.8404   19284794.3694
  20021545.793   -16407663.06849 -12770642.89949  20021546.4764   20021550.5754
  18673625.693   -22469063.94049 -17487019.17349  18673620.1254   18673625.6104
  20316545.614    -5812761.58649  -4501233.39649  20316540.8144   20316546.8154
 94 11 19  2 54 59.9890000  0  8 27 19 18 16 29 28 31  2
  18700304.542   -25719882.87449 -20027149.16149  18700301.9774   18700306.4544
  17279443.331   -35227437.82649 -27434799.63049  17279442.2584   17279446.6954
  17124651.819   -31162174.02549 -24247127.23349  17124651.0494   17124655.6244
  20696422.694   -12384907.45049  -9632203.87949  20696422.3574   20696428.1874
  19294467.155    -9007532.34849  -7005116.65849  19294462.2684   19294465.7834
  20020257.756   -16414446.19849 -12775928.44849  20020255.5534   20020259.8674
  18661232.173   -22534156.37649 -17537740.53049  18661233.6894   18661239.2064
  20293109.094    -5935916.69049  -4597198.38849  20293105.5914   20293111.0314
 94 11 19  2 55 29.9890000  0  8 27 19 18 16 29 28 31  2
  18680850.306   -25822111.50149 -20106807.82649  18680848.4154   18680852.8424
  17271166.502   -35270931.52449 -27468690.82249  17271165.6694   17271170.1164
  17125093.340   -31159854.94949 -24245320.17749  17125092.3824   17125096.9284
  20680816.810   -12466932.35249  -9696119.37549  20680812.9254   20680818.9504
  19304200.916    -8956365.43249  -6965246.35349  19304199.0274   19304202.9214
  20019074.661   -16420658.43149 -12780769.15449  20019073.3664   20019077.7694
  18648951.815   -22598676.73249 -17588016.12049  18648955.7764   18648961.6314
  20269715.791    -6058832.88449  -4692977.21949  20269715.4774   20269721.3244
 94 11 19  2 55 59.9890000  0  8 27 19 18 16 29 28 31  2
  18661424.648   -25924200.25049 -20186357.50149  18661421.6404   18661426.1684
  17262936.589   -35314176.98549 -27502388.58549  17262936.4974   17262940.9144
  17125636.139   -31157003.77849 -24243098.49949  17125634.8794   17125639.7574
  20665304.185   -12548426.08649  -9759620.99049  20665306.7984   20665311.7284
  19313993.998    -8904869.05149  -6925119.33949  19313998.6674   19314002.1594
  20018003.255   -16426302.75849 -12785167.32149  20017999.4194   20018003.5094
  18636777.874   -22662614.15749 -17637837.46649  18636789.0414   18636794.3394
  20246369.774    -6181513.78349  -4788572.70149  20246370.2284   20246375.5934
 94 11 19  2 56 29.9890000  0  8 27 19 18 16 29 28 31  2
  18642028.223   -26026130.66949 -20265783.79749  18642024.8034   18642029.4434
  17254753.025   -35357178.95949 -27535896.61849  17254753.3284   17254757.9524
  17126279.933   -31153622.60049 -24240463.83149  17126278.3714   17126282.9834
  20649897.397   -12629395.05249  -9822713.68249  20649898.1304   20649903.3054
  19323855.052    -8853072.81849  -6884758.66749  19323855.2784   19323858.6854
  20017028.933   -16431382.08949 -12789125.23749  20017032.6234   20017037.2214
  18624748.260   -22725960.17749 -17687197.99049  18624734.9734   18624740.0464
  20223070.228    -6303955.04649  -4883981.46349  20223069.7044   20223075.6904
 94 11 19  2 56 59.9880000  0  8 27 19 18 16 29 28 31  2
  18622659.864   -26127898.24949 -20345083.19949  18622659.0624   18622663.8394
  17246614.692   -35399943.04249 -27569219.27849  17246615.7144   17246620.2214
  17127022.905   -31149717.85449 -24237421.18249  17127021.7264   17127025.9954
  20634590.971   -12709841.14849  -9885398.94149  20634590.8664   20634595.5424
  19333765.441    -8800997.64149  -6844180.63049  19333764.7614   19333768.1344
  20016174.650   -16435898.45249 -12792644.48449  20016172.9514   20016177.8714
  18612807.507   -22788710.37549 -17736094.23849  18612793.6734   18612799.1754
  20199815.328    -6426176.85849  -4979219.23249  20199812.6534   20199818.1424
 94 11 19  2 57 29.9880000  0  8 27 19 18 16 29 28 31  2
  18603324.853   -26229512.45349 -20424263.08449  18603322.8044   18603327.4554
  17238522.090   -35442480.74149 -27602365.53449  17238520.8864   17238525.3674
  17127863.698   -31145298.50849 -24233977.54749  17127862.3654   17127867.3514
  20619376.779   -12789783.09349  -9947691.36249  20619378.1974   20619382.7544
  19343723.895    -8748659.87449  -6803397.96449  19343723.7074   19343727.5984
  20015416.154   -16439855.79649 -12795728.13349  20015419.9524   20015424.6744
  18600967.133   -22850858.99949 -17784521.73349  18600967.2174   18600972.4664
  20176592.529    -6548191.72749  -5074295.73949  20176593.4224   20176598.8584
 94 11 19  2 57 59.9880000  0  8 27 19 18 16 29 28 31  2
  18584018.662   -26330958.23049 -20503311.73449  18584018.2454   18584022.8364
  17230469.583   -35484799.26349 -27635341.01649  17230468.0504   17230472.6074
  17128801.651   -31140376.60849 -24230142.32149  17128799.1854   17128803.6994
  20604257.404   -12869220.18149 -10009590.37349  20604261.9854   20604265.5994
  19353728.305    -8696057.63749  -6762409.24249  19353733.8684   19353737.8094
  20014772.140   -16443254.17949 -12798376.22049  20014773.2544   20014777.9654
  18589261.182   -22912402.26649 -17832477.51049  18589256.0524   18589261.1074
  20153414.808    -6669984.46949  -5169199.14949  20153416.9874   20153422.0284
 94 11 19  2 58 29.9880000  0  8 27 19 18 16 29 28 31  2
  18564742.959   -26432244.80749 -20582236.33149  18564744.0264   18564748.7104
  17222460.248   -35526888.37749 -27668137.72649  17222458.7154   17222463.1634
  17129831.094   -31134958.32649 -24225920.29849  17129830.2614   17129834.6604
  20589245.682   -12948131.63849 -10071079.82149  20589246.0194   20589249.9534
  19363801.261    -8643162.70949  -6721192.44549  19363799.6314   19363803.3824
  20014233.918   -16446092.06149 -12800587.54649  20014233.7824   20014238.2054
  18577659.459   -22973352.51749 -17879971.19649  18577657.3614   18577662.8074
  20130284.089    -6791553.65249  -5263928.36749  20130282.9084   20130287.9554
 94 11 19  2 58 59.9880000  0  8 27 19 18 16 29 28 31  2
  18545496.350   -26533396.15949 -20661055.54949  18545495.5534   18545500.1704
  17214492.504   -35568751.41049 -27700758.26949  17214492.6644   17214497.0634
  17130956.570   -31129045.18549 -24221312.67949  17130955.4114   17130960.1824
  20574332.479   -13026518.65049 -10132160.60349  20574329.6044   20574332.5214
  19373922.096    -8589954.12049  -6679731.22349  19373924.7904   19373928.6814
  20013798.626   -16448375.53949 -12802366.87649  20013799.1804   20013803.5864
  18566162.514   -23033719.22049 -17927010.17049  18566169.7074   18566175.3034
  20107194.112    -6912905.63949  -5358488.34649  20107190.7404   20107195.1354
 94 11 19  2 59 29.9880000  0  8 27 19 18 16 29 28 31  2
  18526274.638   -26634406.94049 -20739765.23649  18526273.9624   18526278.5714
  17206570.882   -35610373.27049 -27733190.89049  17206572.2294   17206576.6084
  17132177.470   -31122634.18549 -24216317.11149  17132175.5824   17132180.1704
  20559517.210   -13104369.39649 -10192823.50149  20559514.1594   20559518.6534
  19384114.208    -8536423.87249  -6638019.34949  19384111.0704   19384114.9474
  20013474.229   -16450102.23849 -12803712.36549  20013470.3464   20013475.0694
  18554793.978   -23093499.32449 -17973592.05649  18554794.2504   18554799.5334
  20084144.735    -7034024.79349  -5452866.88749  20084142.2794   20084147.9774
 94 11 19  2 59 59.9880000  0  8 27 19 18 16 29 28 31  2
  18507079.133   -26735281.30249 -20818368.63049  18507078.1464   18507082.8344
  17198700.425   -35651747.89949 -27765430.86349  17198698.8964   17198703.2794
  17133491.040   -31115725.87249 -24210934.01949  17133489.9734   17133494.5574
  20544801.997   -13181681.00149 -10253066.30549  20544802.4884   20544806.2514
  19394357.861    -8482570.19149  -6596055.45349  19394359.1434   19394362.9364
  20013250.053   -16451277.03649 -12804627.78249  20013247.0094   20013251.5534
  18543523.235   -23152701.06949 -18019723.27449  18543528.6524   18543533.6274
  20061140.263    -7154921.86649  -5547072.35449  20061136.3334   20061141.4944
 94 11 19  3  0 29.9880000  0  8 27 19 18 16 29 28 31  2
  18487904.980   -26836041.43349 -20896883.00149  18487904.0064   18487908.7014
  17190875.212   -35692866.88549 -27797471.63549  17190874.3904   17190878.8104
  17134902.820   -31108305.08449 -24205151.61249  17134902.2304   17134906.8534
  20530192.439   -13258455.95949 -10312890.95749  20530191.2044   20530197.8314
  19404667.262    -8428397.10149  -6553842.67949  19404667.7564   19404671.9314
  20013127.146   -16451900.94049 -12805113.93949  20013127.7834   20013132.5374
  18532377.147   -23211312.48649 -18065394.49749  18532375.3324   18532380.1234
  20038172.636    -7275598.39549  -5641105.96349  20038171.8464   20038177.7194
 94 11 19  3  0 59.9880000  0  8 27 19 18 16 29 28 31  2
  18468752.303   -26936685.92249 -20975307.27149  18468751.9714   18468756.6574
  17183098.952   -35733725.18549 -27829309.27549  17183099.1254   17183103.4924
  17136414.869   -31100363.23649 -24198963.17249  17136413.5664   17136418.0694
  20515682.459   -13334695.54649 -10372298.43249  20515684.0794   20515688.6964
  19415038.315    -8373922.54249  -6511394.98849  19415033.9994   19415038.1774
  20013116.936   -16451974.87449 -12805171.55749  20013114.1704   20013118.4404
  18521351.877   -23269315.66649 -18110591.77149  18521337.6624   18521342.4044
  20015253.623    -7396041.90349  -5734958.02549  20015252.3834   20015257.8654
 94 11 19  3  1 29.9880000  0  8 27 19 18 16 29 28 31  2
  18449618.110   -27037202.19049 -21053631.62049  18449624.2614   18449629.0324
  17175374.694   -35774328.32649 -27860948.08349  17175372.5314   17175376.9714
  17138025.006   -31091898.87849 -24192367.57649  17138024.4034   17138029.0244
  20501280.071   -13410392.76849 -10431283.27749  20501279.5774   20501284.0574
  19425455.411    -8319156.61149  -6468720.25549  19425455.7484   19425460.0024
  20013204.943   -16451498.03249 -12804799.97949  20013204.7224   20013209.1014
  18510421.247   -23326703.92449 -18155309.88349  18510416.9444   18510421.8644
  19992380.865    -7516242.47849  -5828620.80949  19992379.1214   19992384.5404
 94 11 19  3  1 59.9880000  0  8 27 19 18 16 29 28 31  2
  18430524.606   -27137582.03249 -21131849.65749  18430522.4234   18430527.4824
  17167692.340   -35814692.28549 -27892400.51949  17167691.6584   17167696.1234
  17139736.483   -31082907.62349 -24185361.42349  17139735.2614   17139739.5624
  20486975.969   -13485548.31349 -10489846.04049  20486977.2494   20486983.3064
  19435935.698    -8264096.55649  -6425816.32549  19435933.0514   19435937.2294
  20013401.266   -16450471.96749 -12804000.45249  20013399.8714   20013404.0914
  18499608.932   -23383469.75549 -18199542.99049  18499615.0774   18499619.6214
  19969556.959    -7636195.62049  -5922090.76449  19969552.7184   19969558.2864
 94 11 19  3  2 29.9880000  0  8 27 19 18 16 29 28 31  2
  18411450.465   -27237808.41449 -21209948.12249  18411449.9394   18411454.8014
  17160056.255   -35854814.34549 -27923664.46549  17160056.5294   17160060.9484
  17141547.929   -31073391.95549 -24177946.62649  17141546.3944   17141550.8334
  20472785.530   -13560154.54749 -10547980.77149  20472780.4064   20472786.2644
  19446467.941    -8208735.58049  -6382677.93149  19446467.8184   19446472.4314
  20013698.443   -16448895.61449 -12802772.11849  20013699.9774   20013704.0234
  18488933.706   -23439605.05449 -18243284.76949  18488932.4664   18488937.7864
  19946781.454    -7755886.21749  -6015356.13849  19946776.1134   19946782.2614
 94 11 19  3  2 59.9880000  0  8 27 19 18 16 29 28 31  2
  18392414.842   -27337847.09149 -21287900.31949  18392413.3244   18392418.2034
  17152466.089   -35894700.61749 -27954744.67849  17152466.5714   17152471.0404
  17143453.528   -31063367.56749 -24170135.42949  17143453.7474   17143458.3534
  20458690.971   -13634202.21349 -10605680.25049  20458690.0094   20458694.9344
  19457061.109    -8153084.26349  -6339313.28349  19457057.8364   19457062.4344
  20014107.165   -16446768.56249 -12801114.68349  20014104.8024   20014108.7904
  18478371.157   -23495113.69649 -18286538.24749  18478369.5334   18478374.8344
  19924051.165    -7875310.59149  -6108414.07149  19924050.6344   19924056.3544
 94 11 19  3  3 29.9880000  0  8 27 19 18 16 29 28 31  2
  18373415.510   -27437692.07149 -21365701.58949  18373413.3274   18373418.1774
  17144922.137   -35934354.01249 -27985643.42649  17144920.6984   17144925.2914
  17145458.792   -31052842.26049 -24161933.90749  17145456.6264   17145460.8724
  20444705.754   -13707699.04549 -10662950.50449  20444704.4304   20444709.0054
  19467702.685    -8097149.23849  -6295727.56549  19467702.2864   19467706.5924
  20014610.733   -16444092.02349 -12799029.05549  20014614.0424   20014618.4124
  18467919.648   -23550007.70749 -18329312.79549  18467923.6814   18467928.5794
  19901372.293    -7994482.37049  -6201275.19249  19901373.3214   19901378.8314
 94 11 19  3  3 59.9880000  0  8 27 19 18 16 29 28 31  2
  18354451.659   -27537352.82649 -21443359.30649  18354448.4244   18354453.4454
  17137424.503   -35973754.21649 -28016344.88949  17137423.1414   17137427.6514
  17147557.090   -31041812.46249 -24153339.28049  17147555.6694   17147560.2294
  20430822.003   -13780641.17049 -10719788.53549  20430823.6624   20430828.8754
  19478405.227    -8040928.55149  -6251919.23949  19478400.8014   19478404.9044
  20015230.144   -16440864.75849 -12796514.31049  20015228.6054   20015233.2544
  18457596.971   -23604287.97349 -18371609.09349  18457594.2594   18457599.2034
  19878745.976    -8113396.89449  -6293935.86449  19878744.5844   19878749.3154
 94 11 19  3  4 29.9880000  0  8 27 19 18 16 29 28 31  2
  18335511.611   -27636846.34649 -21520886.70549  18335515.6824   18335520.3004
  17129977.755   -36012890.27349 -28046840.52349  17129975.5954   17129980.2894
  17149751.406   -31030272.44649 -24144347.08349  17149751.3694   17149756.2464
  20417048.073   -13853026.29249 -10776192.52849  20417049.3154   20417053.9434
  19489156.122    -7984436.38349  -6207899.40249  19489150.6744   19489155.4964
  20015946.700   -16437085.87849 -12793569.73049  20015946.9574   20015952.0844
  18447373.300   -23657964.59849 -18413435.02349  18447379.8904   18447384.7054
  19856171.307    -8232051.41149  -6386393.92349  19856165.5304   19856170.9254
 94 11 19  3  4 59.9880000  0  8 27 19 18 16 29 28 31  2
  18316611.949   -27736191.28849 -21598298.33049  18316610.9374   18316615.4584
  17122577.434   -36051772.44049 -28077138.31049  17122576.6244   17122581.1964
  17152045.751   -31018221.06349 -24134956.41349  17152044.8124   17152048.9604
  20403382.907   -13924866.55849 -10832171.95949  20403378.8864   20403383.6774
  19499954.676    -7927679.24849  -6163673.08349  19499951.2894   19499955.7584
  20016770.602   -16432756.50149 -12790196.18349  20016771.1074   20016775.2264
  18437287.022   -23711041.76549 -18454793.84349  18437279.7464   18437284.4154
  19833633.852    -8350452.91149  -6478654.81049  19833634.0804   19833639.3754
 94 11 19  3  5 29.9880000  0  8 27 19 18 16 29 28 31  2
  18297726.217   -27835424.01449 -21675622.51049  18297727.5574   18297732.0404
  17115227.138   -36090403.08349 -28107240.10849  17115225.6144   17115230.0754
  17154438.975   -31005647.00349 -24125158.46349  17154437.3304   17154442.0214
  20389807.855   -13996177.39649 -10887738.85249  20389808.2354   20389813.5484
  19510809.852    -7870642.15249  -6119228.61149  19510805.2474   19510809.5024
  20017701.921   -16427883.62349 -12786399.13649  20017698.3794   20017702.8344
  18427285.548   -23763528.06149 -18495692.24549  18427292.4414   18427296.7894
  19811147.608    -8468607.58049  -6570723.36149  19811150.6454   19811155.8694
 94 11 19  3  5 59.9880000  0  8 27 19 18 16 29 28 31  2
  18278864.752   -27934545.29949 -21752859.86349  18278865.3564   18278869.8284
  17107920.584   -36128787.67049 -28137150.18149  17107921.2174   17107925.6714
  17156931.004   -30992549.62249 -24114952.73049  17156930.1174   17156934.4574
  20376339.631   -14066958.37249 -10942892.87149  20376338.4794   20376344.2644
  19521715.356    -7813323.73649  -6074564.91849  19521712.4534   19521716.6564
  20018729.428   -16422469.08749 -12782180.01849  20018728.7644   20018732.8544
  18417415.835   -23815405.92549 -18536116.55249  18417420.2264   18417424.5794
  19788715.788    -8586512.17749  -6662597.05349  19788713.7244   19788719.2144
 94 11 19  3  6 29.9880000  0  8 27 19 18 16 29 28 31  2
  18260031.969   -28033526.36849 -21829987.94749  18260029.7564   18260034.5244
  17100663.017   -36166939.89849 -28166879.19049  17100661.0914   17100665.5334
  17159520.696   -30978938.99249 -24104347.05149  17159519.9264   17159524.5484
  20362968.675   -14137215.97849 -10997639.07649  20362969.7434   20362974.9224
  19532674.463    -7755726.16349  -6029683.70849  19532673.0934   19532677.1674
  20019861.603   -16416508.64149 -12777535.50349  20019863.4634   20019867.6104
  18407676.650   -23866660.35249 -18576055.05849  18407666.6414   18407671.3804
  19766328.164    -8704168.58249  -6754277.33449  19766324.7624   19766329.4814
 94 11 19  3  6 59.9880000  0  8 27 19 18 16 29 28 31  2
  18241229.989   -28132356.60549 -21906998.51049  18241222.9914   18241227.6574
  17093446.782   -36204861.13249 -28196428.20349  17093444.9124   17093449.3674
  17162206.128   -30964828.65549 -24093352.00649  17162204.7144   17162209.3604
  20349702.769   -14206945.92249 -11051974.10149  20349700.6044   20349705.4884
  19543680.946    -7697843.07549  -5984579.99849  19543687.7894   19543691.9334
  20021100.904   -16410007.98249 -12772470.04549  20021100.4794   20021104.7824
  18398047.937   -23917278.66749 -18615497.89449  18398034.1284   18398039.1854
  19743989.081    -8821581.23049  -6845767.68449  19743981.6824   19743986.6974
 94 11 19  3  7 29.9880000  0  8 27 19 18 16 29 28 31  2
  18222444.180   -28231025.40849 -21983883.27349  18222446.9724   18222451.6124
  17086274.700   -36242540.45249 -28225788.71749  17086274.8614   17086279.3114
  17164985.593   -30950222.57649 -24081970.64949  17164984.5864   17164988.9744
  20336540.665   -14276122.60849 -11105878.01349  20336535.4024   20336541.7234
  19554763.773    -7639680.14349  -5939258.24849  19554756.3674   19554760.3164
  20022444.609   -16402968.59049 -12766984.79949  20022439.7874   20022443.8784
  18388528.599   -23967254.48349 -18654440.07349  18388524.0294   18388528.6914
  19721688.127    -8938749.80549  -6937067.85649  19721685.0714   19721690.2204
 94 11 19  3  7 59.9880000  0  8 27 19 18 16 29 28 31  2
  18203706.961   -28329516.99549 -22060629.94449  18203704.6984   18203709.1314
  17079151.088   -36279978.22649 -28254961.00849  17079150.7654   17079155.0604
  17167853.872   -30935144.32549 -24070221.38349  17167853.3704   17167858.3654
  20323481.677   -14344730.31149 -11159338.58549  20323480.8474   20323485.9274
  19565876.269    -7581261.62849  -5893737.35749  19565873.1084   19565876.8114
  20023884.119   -16395396.52049 -12761084.48449  20023880.2714   20023884.6944
  18379132.871   -24016593.96449 -18692886.40949  18379134.7374   18379140.0174
  19699435.194    -9055680.69449  -7028182.82549  19699433.6574   19699439.3104
 94 11 19  3  8 29.9880000  0  8 27 19 18 16 29 28 31  2
  18184997.043   -28427835.35649 -22137241.64449  18184995.4684   18184999.8734
  17072075.647   -36317162.01849 -28283935.39649  17072074.8714   17072079.1684
  17170816.203   -30919585.74749 -24058097.83949  17170814.4744   17170819.1334
  20310540.549   -14412751.98749 -11212342.49149  20310536.3714   20310542.0544
  19577038.116    -7522586.31549  -5848016.37949  19577038.4884   19577042.7574
  20025427.891   -16387291.95749 -12754769.23949  20025422.9044   20025427.0254
  18369873.552   -24065320.79649 -18730855.36149  18369862.9184   18369867.3554
  19677231.461    -9172364.79449  -7119105.47849  19677229.2034   19677234.7994
 94 11 19  3  8 59.9880000  0  8 27 19 18 16 29 28 31  2
  18166316.243   -28526003.51549 -22213736.29649  18166314.6224   18166319.0754
  17065049.922   -36354083.05749 -28312705.04549  17065048.9434   17065053.5604
  17173869.903   -30903534.81849 -24045590.64349  17173869.0664   17173873.5264
  20297702.625   -14480183.75549 -11264886.74249  20297704.1364   20297710.5814
  19588244.576    -7463655.14349  -5802096.00749  19588252.4194   19588256.6684
  20027064.530   -16378659.08049 -12748042.31749  20027065.5274   20027069.2424
  18360708.936   -24113437.15449 -18768348.62449  18360706.6644   18360710.8664
  19655076.006    -9288800.13449  -7209834.28949  19655072.0684   19655077.9174
 94 11 19  3  9 29.9880000  0  8 27 19 18 16 29 28 31  2
  18147662.618   -28624036.46849 -22290125.59449  18147659.3724   18147663.9644
  17058071.597   -36390754.66949 -28341280.33249  17058070.7794   17058075.0974
  17177015.951   -30886999.62949 -24032706.10249  17177015.5564   17177020.0024
  20284979.444   -14547054.80849 -11316994.06349  20284979.4544   20284985.8524
  19599507.569    -7404481.85849  -5755986.97549  19599512.8724   19599516.9364
  20028812.898   -16369506.40849 -12740910.35749  20028807.4234   20028811.2864
  18351668.551   -24160961.31749 -18805380.43649  18351663.2124   18351667.6994
  19632958.079    -9404998.21749  -7300378.24749  19632960.7594   19632966.4444
 94 11 19  3  9 59.9880000  0  8 27 19 18 16 29 28 31  2
  18129025.810   -28721945.96449 -22366418.69649  18129027.9464   18129032.3064
  17051138.157   -36427195.34749 -28369675.67249  17051136.1004   17051140.6094
  17180254.224   -30869986.68349 -24019449.27549  17180252.9634   17180257.8994
  20272353.121   -14613407.10249 -11368697.16049  20272352.9114   20272358.9014
  19610811.157    -7345079.58949  -5709699.49749  19610816.5884   19610820.7024
  20030639.285   -16359849.12549 -12733385.19949  20030645.1434   20030648.9904
  18342725.183   -24207905.35249 -18841960.19849  18342729.6804   18342734.5994
  19610893.555    -9520962.25949  -7390739.82849  19610893.5524   19610898.9454
 94 11 19  3 10 29.9880000  0  8 27 19 18 16 29 28 31  2
  18110411.741   -28819755.37649 -22442633.81349  18110415.3314   18110419.8784
  17044243.270   -36463420.75849 -28397903.26449  17044242.7734   17044247.1974
  17183580.982   -30852503.89149 -24005826.33849  17183579.8704   17183584.6554
  20259820.375   -14679267.54949 -11420017.00549  20259820.0414   20259826.0864
  19622157.414    -7285460.19849  -5663242.86649  19622162.3804   19622165.8824
  20032580.766   -16349700.78849 -12725477.40149  20032576.5514   20032580.5044
  18333896.697   -24254273.18649 -18878090.98149  18333906.1154   18333911.1624
  19588872.407    -9636692.84849  -7480919.47649  19588871.1064   19588876.5754
 94 11 19  3 10 59.9880000  0  8 27 19 18 16 29 28 31  2
  18091831.583   -28917434.69049 -22518747.55549  18091827.4084   18091832.2194
  17037394.372   -36499413.33449 -28425949.43749  17037393.5664   17037398.0204
  17186999.340   -30834536.70049 -23991825.94249  17186999.0084   17187003.4534
  20247384.834   -14744618.08049 -11470939.50949  20247383.9614   20247389.8464
  19633556.813    -7225595.52249  -5616595.08749  19633554.1594   19633557.7164
  20034601.366   -16339038.24849 -12717168.92349  20034604.9864   20034609.1104
  18325189.829   -24300022.27949 -18913739.61949  18325200.6584   18325205.4104
  19566896.893    -9752182.82249  -7570911.63149  19566893.6404   19566899.3414
 94 11 19  3 11 29.9880000  0  8 27 19 18 16 29 28 31  2
  18073265.935   -29014969.88449 -22594748.99949  18073267.1754   18073271.7394
  17030592.247   -36535169.69849 -28453811.54349  17030589.3374   17030593.8494
  17190511.351   -30816085.00149 -23977448.00849  17190510.0954   17190514.8754
  20235048.737   -14809445.19549 -11521454.16049  20235048.0454   20235054.6204
  19644997.200    -7165473.13349  -5569746.52649  19644994.4814   19644999.3194
  20036730.166   -16327859.29949 -12708458.04149  20036732.4634   20036736.6214
  18316610.999   -24345159.02149 -18948911.09849  18316611.5714   18316616.3744
  19544965.240    -9867425.33249  -7660710.98049  19544964.0634   19544969.4984
 94 11 19  3 11 59.9880000  0  8 27 19 18 16 29 28 31  2
  18054741.960   -29112351.30249 -22670630.61449  18054736.1434   18054740.6594
  17023831.384   -36570690.15549 -28481489.82449  17023830.1614   17023834.5924
  17194115.478   -30797145.39749 -23962689.88749  17194114.2854   17194119.1774
  20222819.102   -14873725.28649 -11571542.56149  20222815.7934   20222822.0704
  19656487.446    -7105092.01249  -5522696.32949  19656485.0924   19656489.2204
  20038957.650   -16316162.58949 -12699343.71949  20038958.7594   20038962.0734
  18308132.433   -24389677.95449 -18983601.16149  18308139.9324   18308144.5804
  19523076.465    -9982408.09949  -7750307.92649  19523083.2454   19523088.7844
 94 11 19  3 12 29.9880000  0  8 27 19 18 16 29 28 31  2
  18036229.435   -29209581.93649 -22746394.73849  18036234.0354   18036238.3164
  17017116.629   -36605972.87849 -28508982.85749  17017115.8574   17017120.3254
  17197810.691   -30777726.24649 -23947558.09449  17197809.4814   17197814.4254
  20210689.918   -14937451.40649 -11621199.29149  20210689.1004   20210695.1034
  19668026.577    -7044447.98749  -5475441.24349  19668025.0844   19668029.1504
  20041283.064   -16303948.52449 -12689826.26449  20041282.6394   20041286.2944
  18299789.452   -24433584.27349 -19017813.87449  18299784.1044   18299789.3224
  19501258.183   -10097144.03049  -7839712.52949  19501249.1254   19501255.3674
 94 11 19  3 12 59.9880000  0  8 27 19 18 16 29 28 31  2
  18017766.246   -29306646.29149 -22822029.28649  18017763.2564   18017767.5024
  17010447.792   -36641016.70149 -28536289.74249  17010447.2624   17010451.7014
  17201598.652   -30757818.49449 -23932045.57849  17201597.8284   17201602.5714
  20198666.952   -15000627.89649 -11670427.73249  20198667.3764   20198673.0164
  19679619.857    -6983527.06949  -5427970.40449  19679618.2694   19679621.2874
  20043707.327   -16291214.87549 -12679903.93149  20043705.5614   20043709.4654
  18291535.374   -24476880.10749 -19051550.88249  18291545.5404   18291550.6084
  19479466.775   -10211630.59349  -7928922.82349  19479463.6754   19479469.0404
 94 11 19  3 13 29.9880000  0  8 27 19 18 16 29 28 31  2
  17999321.405   -29403551.45849 -22897539.79949  17999322.7034   17999327.0034
  17003821.857   -36675832.96049 -28563419.29949  17003821.9004   17003826.4464
  17205478.374   -30737428.64449 -23916157.38949  17205478.0484   17205482.6024
  20186748.833   -15063261.76649 -11719233.35249  20186748.2914   20186754.5764
  19691262.920    -6922341.69149  -5380293.50049  19691260.8574   19691265.0334
  20046230.879   -16277967.08849 -12669580.97549  20046226.5544   20046230.8694
  18283423.265   -24519566.43149 -19084812.94849  18283422.2084   18283426.9894
  19457727.542   -10325850.69349  -8017925.48549  19457727.9524   19457733.7964
 94 11 19  3 13 59.9880000  0  8 27 19 18 16 29 28 31  2
  17980917.157   -29500294.40949 -22972923.91049  17980913.0564   17980917.5054
  16997241.095   -36710420.57349 -28590370.68849  16997240.1334   16997244.5824
  17209449.496   -30716566.35349 -23899901.07149  17209447.7424   17209452.7864
  20174932.449   -15125360.92549 -11767622.32049  20174931.4564   20174937.0114
  19702952.893    -6860911.35349  -5332425.77049  19702951.2424   19702955.3394
  20048845.333   -16264207.46249 -12658859.18449  20048845.1164   20048848.4634
  18275417.708   -24561622.93649 -19117584.24149  18275419.2974   18275424.2724
  19436047.069   -10439811.65649  -8106726.22949  19436042.0034   19436047.5884
 94 11 19  3 14 29.9880000  0  8 27 19 18 16 29 28 31  2
  17962536.400   -29596861.79549 -23048171.21649  17962537.0084   17962541.3684
  16990705.979   -36744770.30249 -28617136.71049  16990703.7914   16990708.3644
  17213510.253   -30695227.42249 -23883273.35049  17213508.7344   17213513.3604
  20163220.105   -15186928.76849 -11815597.26549  20163215.0244   20163221.6724
  19714689.493    -6799236.56849  -5284367.51049  19714687.4164   19714691.0514
  20051566.284   -16249938.37249 -12647740.40249  20051560.0504   20051565.1464
  18267524.730   -24603041.28449 -19149858.28649  18267537.9864   18267542.7984
  19414400.571   -10553526.13049  -8195334.90849  19414403.1484   19414408.3774
 94 11 19  3 14 59.9880000  0  8 27 19 18 16 29 28 31  2
  17944196.874   -29693237.88349 -23123269.46249  17944197.2604   17944201.7044
  16984214.095   -36778880.54649 -28643716.12049  16984212.8084   16984217.1714
  17217662.827   -30673401.44449 -23866266.10649  17217661.9244   17217666.7364
  20151605.296   -15247945.38749 -11863142.70349  20151604.1294   20151610.2864
  19726471.717    -6737319.19249  -5236120.20749  19726469.9744   19726473.0574
  20054372.984   -16235156.53849 -12636222.09849  20054372.9734   20054376.2574
  18259790.741   -24643801.96449 -19181619.84649  18259781.5464   18259786.5804
  19392816.124   -10666987.27849  -8283746.18749  19392812.2654   19392817.4014
 94 11 19  3 15 29.9880000  0  8 27 19 18 16 29 28 31  2
  17925889.855   -29789429.52949 -23198223.98149  17925892.5484   17925897.0104
  16977767.568   -36812755.71449 -28670112.35949  16977766.5604   16977771.0874
  17221904.405   -30651107.06749 -23848893.88349  17221904.2114   17221909.4084
  20140100.175   -15308396.52549 -11910247.49549  20140101.0224   20140106.9754
  19738290.340    -6675191.14449  -5187708.75849  19738292.2064   19738296.1184
  20057282.335   -16219871.37049 -12624311.57549  20057281.3614   20057286.0264
  18252147.715   -24683914.19249 -19212876.12749  18252148.2284   18252153.2854
  19371263.985   -10780218.56949  -8371978.36149  19371264.7924   19371270.4224
 94 11 19  3 15 59.9880000  0  8 27 19 18 16 29 28 31  2
  17907626.680   -29885426.38649 -23273026.72149  17907625.1254   17907629.4104
  16971370.864   -36846369.03949 -28696304.56249  16971370.1114   16971374.5654
  17226238.600   -30628336.67449 -23831150.74449  17226237.7334   17226242.2234
  20128707.192   -15368283.85949 -11956912.97349  20128704.9654   20128711.4034
  19750156.535    -6612842.81149  -5139125.66649  19750156.5684   19750160.8314
  20060290.067   -16204077.58949 -12612004.73949  20060286.9854   20060291.0954
  18244634.218   -24723384.70749 -19243632.36749  18244637.7734   18244642.6114
  19349761.921   -10893222.32249  -8460033.23349  19349761.2534   19349766.7394
 94 11 19  3 16 29.9880000  0  8 27 19 18 16 29 28 31  2
  17889389.521   -29981250.24149 -23347694.65449  17889390.3104   17889394.6324
  16965022.921   -36879725.30849 -28722296.46249  16965022.4924   16965027.0594
  17230662.594   -30605089.34149 -23813035.94849  17230661.4064   17230666.2374
  20117417.021   -15427605.66749 -12003137.76949  20117415.9324   20117422.5714
  19762067.701    -6550269.66149  -5090367.40849  19762064.0344   19762068.3104
  20063390.759   -16187780.18149 -12599305.44649  20063388.2094   20063392.7234
  18237242.049   -24762240.49149 -19273909.59349  18237243.4274   18237248.0554
  19328307.607   -11005991.16749  -8547905.05649  19328302.0544   19328307.1004
 94 11 19  3 16 59.9880000  0  8 27 19 18 16 29 28 31  2
  17871175.947   -30076921.02249 -23422243.30949  17871184.9104   17871189.3144
  16958726.662   -36912817.86349 -28748082.87449  16958725.3634   16958729.8544
  17235174.947   -30581374.57749 -23794556.93349  17235173.7924   17235178.9774
  20106238.165   -15486356.71449 -12048917.82149  20106236.2744   20106242.0114
  19774015.301    -6487473.51749  -5041435.34549  19774013.6534   19774017.9274
  20066587.399   -16170975.54949 -12586210.93149  20066586.6554   20066590.2084
  18229976.994   -24800493.69149 -19303717.27549  18229963.5714   18229968.7274
  19306894.073   -11118502.61249  -8635576.30349  19306891.9824   19306896.4864
 94 11 19  3 17 29.9870000  0  8 27 19 18 16 29 28 31  2
  17853010.420   -30172451.32749 -23496682.50649  17853005.8484   17853010.5314
  16952479.622   -36945640.61649 -28773659.04949  16952479.2564   16952483.7134
  17239774.724   -30557203.32249 -23775722.20349  17239773.9364   17239778.5784
  20095162.910   -15544559.19049 -12094270.41149  20095160.8284   20095166.6454
  19786005.630    -6424459.32049  -4992333.40849  19786004.8194   19786009.1434
  20069882.899   -16153670.03149 -12572726.10849  20069879.5784   20069883.1044
  18222790.690   -24838156.68949 -19333065.06149  18222796.7614   18222801.4784
  19285536.795   -11230739.55849  -8723033.64149  19285533.5244   19285539.0504
 94 11 19  3 17 59.9870000  0  8 27 19 18 16 29 28 31  2
  17834854.055   -30267849.80049 -23571018.97549  17834852.1824   17834856.8094
  16946284.394   -36978195.51749 -28799026.50649  16946284.4094   16946288.9524
  17244462.468   -30532563.30549 -23756522.20149  17244462.6244   17244467.4214
  20084186.806   -15602230.90449 -12139209.41849  20084186.2654   20084191.6504
  19798040.372    -6361206.91849  -4943045.83949  19798041.4744   19798045.5084
  20073269.505   -16135863.95049 -12558851.24049  20073267.9854   20073271.8514
  18215744.845   -24875213.51449 -19361940.48649  18215745.1394   18215750.2044
  19264237.153   -11342684.86449  -8810263.72749  19264231.2764   19264236.3114
 94 11 19  3 18 29.9870000  0  8 27 19 18 16 29 28 31  2
  17816719.300   -30363115.96449 -23645252.34349  17816723.6874   17816728.1904
  16940135.073   -37010514.44149 -28824210.08549  16940134.1864   16940138.6704
  17249242.591   -30507453.48449 -23736956.12849  17249241.0944   17249245.8284
  20073318.286   -15659353.94549 -12183720.89449  20073316.1764   20073321.9364
  19810121.476    -6297733.67449  -4893586.18949  19810119.8424   19810124.3664
  20076748.039   -16117563.74849 -12544591.35349  20076750.2054   20076754.2864
  18208811.021   -24911661.07849 -19390341.18749  18208809.1974   18208813.9124
  19242984.830   -11454332.48249  -8897261.85649  19242985.3564   19242990.4044
 94 11 19  3 18 59.9870000  0  8 27 19 18 16 29 28 31  2
  17798624.708   -30458234.10649 -23719370.37049  17798623.2434   17798627.8634
  16934028.824   -37042600.88549 -28849212.51249  16934028.4774   16934033.0244
  17254110.892   -30481869.51249 -23717020.58249  17254109.6494   17254114.2504
  20062551.902   -15715931.23349 -12227807.10249  20062549.8714   20062555.9524
  19822240.351    -6234030.85349  -4843947.65649  19822242.2024   19822246.8244
  20080325.584   -16098767.28249 -12529944.77349  20080327.3734   20080331.2074
  18201991.205   -24947475.94349 -19418248.87149  18201994.5704   18201999.0704
  19221792.546   -11565691.62249  -8984035.20249  19221794.3674   19221799.8074
 94 11 19  3 19 29.9870000  0  8 27 19 18 16 29 28 31  2
  17780553.867   -30553200.03349 -23793369.79749  17780551.7964   17780556.4014
  16927969.184   -37074455.74949 -28874034.48649  16927966.7274   16927971.2304
  17259069.692   -30455805.86349 -23696711.26449  17259069.1894   17259073.5934
  20051886.252   -15771970.45549 -12271474.03749  20051885.8174   20051892.0134
  19834408.972    -6170095.59549  -4794128.00149  19834408.6074   19834413.0654
  20084002.621   -16079479.38649 -12514915.25349  20083997.7274   20084001.4634
  18195308.120   -24982642.39349 -19445651.29649  18195302.3304   18195306.5304
  19200652.316   -11676783.53049  -9070600.31249  19200653.9204   19200659.6744
 94 11 19  3 19 59.9870000  0  8 27 19 18 16 29 28 31  2
  17762509.091   -30648011.26649 -23867248.67949  17762509.7864   17762514.5324
  16921947.507   -37106080.95349 -28898677.50349  16921948.4374   16921953.0354
  17264121.106   -30429259.07749 -23676025.47549  17264120.6984   17264125.4494
  20041330.633   -15827444.85949 -12314700.86549  20041329.4304   20041336.1324
  19846617.598    -6105932.59049  -4744130.87749  19846618.5864   19846623.0354
  20087763.288   -16059699.63049 -12499502.47049  20087761.1104   20087765.9724
  18188732.761   -25017165.90249 -19472552.73649  18188732.6114   18188736.8874
  19179565.209   -11787628.62849  -9156973.10949  19179561.1324   19179566.4734
 94 11 19  3 20 29.9870000  0  8 27 19 18 16 29 28 31  2
  17744497.023   -30742670.04549 -23941008.75949  17744496.8414   17744501.5644
  16915975.147   -37137476.60149 -28923141.64849  16915974.3374   16915978.7474
  17269261.617   -30402246.60449 -23654976.81249  17269261.2134   17269265.6014
  20030881.077   -15882347.48849 -12357482.14249  20030881.8664   20030888.5204
  19858873.894    -6041548.77049  -4693961.69849  19858870.3444   19858874.7734
  20091620.431   -16039433.36849 -12483710.58349  20091618.0694   20091621.8874
  18182279.780   -25051069.68149 -19498971.27249  18182281.4424   18182285.2834
  19158511.144   -11898252.55849  -9243173.56749  19158510.0914   19158515.3804
 94 11 19  3 20 59.9870000  0  8 27 19 18 16 29 28 31  2
  17726512.784   -30837169.18649 -24014644.45449  17726514.1394   17726518.9364
  16910049.468   -37168611.67749 -28947402.74749  16910049.4264   16910053.8554
  17274487.836   -30374777.87149 -23633572.61749  17274488.1084   17274492.9074
  20020542.847   -15936688.39849 -12399825.71849  20020541.0544   20020547.9004
  19871165.125    -5976945.32249  -4643621.38249  19871163.9674   19871168.2024
  20095569.750   -16018680.47849 -12467539.50049  20095566.8364   20095571.0564
  18175952.480   -25084346.46649 -19524901.21449  18175948.5054   18175953.4994
  19137502.216   -12008658.03149  -9329203.78949  19137500.4594   19137506.0704
 94 11 19  3 21 29.9870000  0  8 27 19 18 16 29 28 31  2
  17708569.272   -30931494.36249 -24088144.58449  17708564.5974   17708569.4354
  16904176.413   -37199480.41649 -28971456.31249  16904175.3624   16904179.6994
  17279802.679   -30346851.98649 -23611812.20749  17279802.4554   17279807.1064
  20010309.565   -15990458.55949 -12441724.54649  20010309.0264   20010315.7404
  19883495.994    -5912141.73549  -4593125.10349  19883495.8344   19883500.9204
  20099611.825   -15997439.28849 -12450987.94249  20099609.1014   20099614.1764
  18169729.358   -25117012.98649 -19550355.64449  18169731.4134   18169737.3944
  19116541.943   -12118823.61349  -9415047.09249  19116536.6114   19116542.0264
 94 11 19  3 21 59.9870000  0  8 27 19 18 16 29 28 31  2
  17690655.179   -31025624.15049 -24161492.46849  17690652.4114   17690657.1644
  16898352.406   -37230090.29349 -28995308.16649  16898350.4094   16898354.9334
  17285207.755   -30318457.74049 -23589686.84349  17285206.0214   17285210.6294
  20000187.475   -16043651.63849 -12483173.70449  20000186.4844   20000193.3254
  19895863.977    -5847140.43749  -4542474.77049  19895865.1314   19895869.5694
  20103747.043   -15975706.72449 -12434053.48749  20103744.5894   20103748.2344
  18163641.031   -25149071.29949 -19575336.13449  18163632.4264   18163636.8554
  19095631.391   -12228719.98249  -9500680.61349  19095623.9324   19095629.5504
 94 11 19  3 22 29.9870000  0  8 27 19 18 16 29 28 31  2
  17672780.209   -31119554.41649 -24234684.87649  17672778.0824   17672782.8674
  16892574.415   -37260449.15349 -29018964.42049  16892573.2894   16892577.7614
  17290700.353   -30289593.02949 -23567194.87849  17290698.3804   17290703.3434
  19990169.855   -16096289.07649 -12524189.91149  19990169.7444   19990176.3144
  19908273.234    -5781946.28549  -4491674.14449  19908271.7534   19908276.0804
  20107972.693   -15953486.45349 -12416739.00649  20107972.7874   20107977.7864
  18157639.959   -25180505.17549 -19599830.05149  18157649.9614   18157655.6234
  19074772.326   -12338326.39949  -9586088.19749  19074766.5054   19074772.0754
 94 11 19  3 22 59.9870000  0  8 27 19 18 16 29 28 31  2
  17654940.464   -31213287.63549 -24307723.74349  17654941.1394   17654945.8814
  16886845.198   -37290552.78249 -29042421.79149  16886844.6124   16886849.1364
  17296282.700   -30260253.19749 -23544332.69049  17296281.7594   17296286.4084
  19980256.778   -16148375.14549 -12564776.47649  19980258.1424   19980265.0394
  19920708.936    -5716564.56349  -4440727.37849  19920713.2864   19920717.5054
  20112293.431   -15930780.15849 -12399045.81249  20112293.6644   20112298.3484
  18151791.069   -25211301.93149 -19623827.51749  18151789.6784   18151794.2204
  19053969.549   -12447632.66949  -9671261.89849  19053966.2454   19053971.9654
 94 11 19  3 23 29.9870000  0  8 27 19 18 16 29 28 31  2
  17637138.807   -31306821.98649 -24380607.64149  17637142.3644   17637146.8644
  16881164.460   -37320412.41449 -29065689.04249  16881162.8264   16881167.1074
  17301956.632   -30230436.22149 -23521098.70349  17301956.2314   17301960.7564
  19970451.989   -16199911.22249 -12604934.46449  19970451.6024   19970458.0804
  19933194.198    -5650990.40649  -4389630.70549  19933191.9784   19933196.1884
  20116708.254   -15907588.93549 -12380974.74549  20116706.5064   20116711.2594
  18146055.218   -25241454.01949 -19647322.65149  18146052.8054   18146056.6204
  19033226.502   -12556632.41149  -9756196.75049  19033224.3034   19033229.8504
 94 11 19  3 23 59.9870000  0  8 27 19 18 16 29 28 31  2
  17619382.464   -31400169.67349 -24453346.09349  17619378.8694   17619383.3734
  16875524.968   -37350028.62249 -29088766.60949  16875527.0274   16875531.2984
  17307722.923   -30200148.74749 -23497498.09149  17307719.5804   17307724.1734
  19960748.863   -16250901.31449 -12644667.01249  19960748.4694   19960754.5864
  19945708.510    -5585213.61149  -4338376.15549  19945708.9294   19945713.1724
  20121213.548   -15883915.76549 -12362528.12049  20121211.4834   20121216.5924
  18140434.781   -25270945.39149 -19670302.93149  18140440.1094   18140444.0934
  19012535.741   -12665345.94249  -9840908.57049  19012536.5624   19012542.5044
 94 11 19  3 24 29.9870000  0  8 27 19 18 16 29 28 31  2
  17601648.171   -31493347.38149 -24525952.09349  17601647.7444   17601652.3474
  16869939.966   -37379390.55049 -29111646.03749  16869939.5154   16869943.7964
  17313568.615   -30169415.07149 -23473549.78749  17313567.7444   17313572.4014
  19951148.599   -16301348.77849 -12683976.74049  19951147.7944   19951155.1964
  19958267.354    -5519229.17449  -4286959.73649  19958266.4304   19958269.4794
  20125811.486   -15859765.63449 -12343709.84649  20125806.9904   20125811.5734
  18134953.614   -25299778.82449 -19692770.55649  18134953.0144   18134958.0414
  18991901.388   -12773798.38349  -9925416.95649  18991898.7274   18991904.5474
 94 11 19  3 24 59.9870000  0  8 27 19 18 16 29 28 31  2
  17583953.917   -31586348.93349 -24598420.82449  17583949.9004   17583954.7744
  16864403.340   -37408484.88249 -29134316.94649  16864403.0434   16864407.5414
  17319504.072   -30138228.85849 -23449248.85949  17319502.6144   17319506.9454
  19941654.349   -16351239.99449 -12722853.02649  19941654.5814   19941660.9104
  19970867.674    -5453023.65849  -4235371.01849  19970863.8064   19970867.9984
  20130498.324   -15835133.24149 -12324515.77549  20130494.4504   20130499.1934
  18129606.475   -25327955.71649 -19714726.57149  18129591.4254   18129595.5794
  18971311.211   -12881994.11649 -10009725.31049  18971309.3444   18971315.6854
 94 11 19  3 25 29.9870000  0  8 27 19 18 16 29 28 31  2
  17566275.357   -31679186.26449 -24670761.59349  17566283.6884   17566288.4434
  16858915.159   -37437325.20349 -29156789.92549  16858914.9284   16858919.3624
  17325525.980   -30106583.00049 -23424589.76649  17325524.5894   17325529.2194
  19932266.649   -16400583.06149 -12761302.18149  19932265.0304   19932271.5574
  19983506.827    -5386595.60949  -4183608.89849  19983504.1974   19983508.9444
  20135272.503   -15810023.81849 -12304950.00049  20135273.1444   20135277.3874
  18124352.176   -25355489.27549 -19736181.28649  18124351.7404   18124357.2954
  18950770.060   -12989938.21449 -10093837.58149  18950768.7094   18950774.5894
 94 11 19  3 25 59.9870000  0  8 27 19 18 16 29 28 31  2
  17548649.122   -31771876.78349 -24742987.95949  17548645.1534   17548649.9884
  16853477.513   -37465898.15949 -29179054.56749  16853477.6164   16853482.0704
  17331634.486   -30074474.27849 -23399569.99949  17331634.4194   17331639.2984
  19922981.084   -16449369.32949 -12799317.45549  19922980.7264   19922987.4514
  19996189.061    -5319932.48949  -4131663.62149  19996190.0624   19996194.8904
  20140143.611   -15784437.35649 -12285012.50849  20140141.7284   20140146.2284
  18119222.893   -25382392.03449 -19757144.47849  18119231.8794   18119236.1684
  18930274.037   -13097637.30249 -10177758.93549  18930274.0834   18930279.9804
 94 11 19  3 26 29.9870000  0  8 27 19 18 16 29 28 31  2
  17531037.247   -31864414.12649 -24815094.97049  17531036.0084   17531040.7004
  16848093.906   -37494191.83349 -29201101.59149  16848093.4714   16848098.0144
  17337832.241   -30041906.38449 -23374192.44449  17337831.8334   17337836.6404
  19913803.077   -16497594.07549 -12836895.18949  19913804.0874   19913810.7834
  20008918.892    -5253036.14049  -4079536.60149  20008919.6664   20008924.1454
  20145102.214   -15758377.90449 -12264706.44049  20145100.8244   20145105.1794
  18114240.275   -25408682.67349 -19777630.68749  18114230.2994   18114235.2614
  18909830.658   -13205077.48649 -10261478.53949  18909828.8664   18909834.5374
 94 11 19  3 26 59.9870000  0  8 27 19 18 16 29 28 31  2
  17513459.162   -31956784.52549 -24887071.89849  17513458.4954   17513463.1754
  16842763.603   -37522205.78649 -29222930.64949  16842762.6504   16842767.0434
  17344118.575   -30008868.26749 -23348448.47749  17344118.6494   17344123.4864
  19904736.012   -16545254.70449 -12874033.34949  19904735.0134   19904741.2544
  20021692.014    -5185918.79249  -4027237.37849  20021692.0334   20021696.1014
  20150152.042   -15731844.00549 -12244030.68849  20150149.9114   20150154.4634
  18109352.287   -25434363.75249 -19797641.90949  18109341.4514   18109346.8154
  18889436.514   -13312246.28949 -10344986.68349  18889435.8474   18889441.2654
 94 11 19  3 27 29.9870000  0  8 27 19 18 16 29 28 31  2
  17495913.045   -32048980.98649 -24958913.28849  17495914.0924   17495918.8804
  16837484.057   -37549943.37149 -29244544.35749  16837484.2874   16837488.7934
  17350492.133   -29975386.07549 -23322358.46849  17350490.4324   17350495.2104
  19895771.147   -16592359.75049 -12910738.57849  19895770.9394   19895777.3094
  20034506.096    -5118589.33349  -3974772.85849  20034504.2114   20034508.8654
  20155288.380   -15704843.59849 -12222991.41649  20155287.9754   20155292.5544
  18104564.186   -25459437.94649 -19817180.25349  18104571.4084   18104576.1834
  18869098.822   -13419136.35149 -10428277.63349  18869095.0204   18869100.5594
 94 11 19  3 27 59.9870000  0  8 27 19 18 16 29 28 31  2
  17478408.117   -32140974.79549 -25030596.76449  17478408.1764   17478412.9794
  16832259.502   -37577401.22749 -29265940.09349  16832259.3224   16832263.6724
  17356944.653   -29941476.29749 -23295935.28249  17356943.1614   17356948.0194
  19886914.438   -16638899.88849 -12947003.62049  19886914.6684   19886921.3214
  20047352.059    -5051065.34949  -3922156.76549  20047354.0714   20047356.9714
  20160516.127   -15677379.18949 -12201590.59649  20160514.5214   20160518.8024
  18099907.632   -25483900.72949 -19836242.14649  18099915.7404   18099920.4064
  18848810.725   -13525742.69749 -10511347.48549  18848808.5334   18848814.0974
 94 11 19  3 28 29.9870000  0  8 27 19 18 16 29 28 31  2
  17460944.662   -32232743.30149 -25102104.69149  17460945.1714   17460949.9534
  16827085.416   -37604591.77849 -29287127.54049  16827085.0484   16827089.5324
  17363477.020   -29907144.93049 -23269183.58449  17363476.3124   17363480.8854
  19878165.636   -16684878.15849 -12982830.84849  19878165.5514   19878170.9464
  20060236.649    -4983362.02949  -3869400.92549  20060237.4174   20060241.3854
  20165828.145   -15649449.96149 -12179827.57349  20165829.3894   20165833.3514
  18095392.569   -25507736.68049 -19854815.61549  18095378.9674   18095385.2134
  18828578.788   -13632058.44449 -10594190.89949  18828577.2384   18828582.5224
 94 11 19  3 28 59.9870000  0  8 27 19 18 16 29 28 31  2
  17443526.766   -32324297.41449 -25173445.53949  17443523.0034   17443527.7234
  16821958.357   -37631539.68849 -29308125.91449  16821957.0904   16821961.6044
  17370089.340   -29872394.46649 -23242105.31349  17370089.0344   17370093.5194
  19869519.976   -16730312.82049 -13018234.47949  19869519.2774   19869525.2814
  20073151.595    -4915492.74749  -3816515.81449  20073152.3134   20073156.5724
  20171227.795   -15621063.96049 -12157708.62049  20171230.6124   20171235.4644
  18090956.308   -25530940.39149 -19872896.42649  18090964.9204   18090969.0444
  18808402.557   -13738095.30749 -10676817.01049  18808398.9894   18808404.7584
 94 11 19  3 29 29.9870000  0  8 27 19 18 16 29 28 31  2
  17426141.920   -32415644.67549 -25244625.20749  17426140.1494   17426144.8824
  16816873.255   -37658254.99749 -29328943.04249  16816873.3854   16816877.9554
  17376782.873   -29837221.49749 -23214697.82449  17376782.2024   17376787.0034
  19860978.890   -16775201.40249 -13053212.60349  19860977.3474   19860983.0464
  20086100.798    -4847449.68849  -3763495.28849  20086100.3254   20086104.6744
  20176722.810   -15592220.32349 -12135233.07949  20176719.9434   20176723.9424
  18086671.920   -25553506.10449 -19890480.09249  18086670.3624   18086675.7584
  18788274.836   -13843849.37149 -10759222.75649  18788274.7884   18788280.3594
 94 11 19  3 29 59.9870000  0  8 27 19 18 16 29 28 31  2
  17408784.727   -32506809.40349 -25315662.65949  17408792.3284   17408796.8084
  16811833.425   -37684744.11249 -29349583.91649  16811832.8194   16811837.2864
  17383558.932   -29801616.96249 -23186954.05149  17383557.6504   17383562.4094
  19852538.226   -16819548.31449 -13087768.64249  19852538.5044   19852544.6594
  20099080.720    -4779239.73749  -3710344.70249  20099080.0174   20099084.8264
  20182295.946   -15562922.57749 -12112403.68149  20182294.6874   20182299.3024
  18082505.393   -25575439.50849 -19907571.06649  18082496.1684   18082501.5184
  18768201.707   -13949344.32849 -10841426.60449  18768199.6634   18768205.6224
 94 11 19  3 30 29.9870000  0  8 27 19 18 16 29 28 31  2
  17391484.692   -32597801.20649 -25386565.35249  17391477.1724   17391481.6004
  16806836.212   -37711008.02049 -29370049.30149  16806835.0704   16806839.4794
  17390415.740   -29765582.17249 -23158875.01249  17390414.7144   17390419.3454
  19844203.311   -16863362.74849 -13121909.75049  19844201.0474   19844207.0884
  20112096.183    -4710849.50449  -3657053.64849  20112094.5664   20112098.7584
  20187957.397   -15533172.44749 -12089221.78349  20187955.7864   20187960.4654
  18078456.841   -25596740.40049 -19924169.16249  18078443.7434   18078448.2084
  18748176.169   -14054572.89549 -10923422.87549  18748175.1244   18748180.7744
 94 11 19  3 30 59.9870000  0  8 27 19 18 16 29 28 31  2
  17374196.492   -32688624.69749 -25457336.89149  17374194.0104   17374198.6064
  16801882.309   -37737043.02149 -29390336.32249  16801880.7234   16801885.1384
  17397355.724   -29729110.63749 -23130455.65249  17397354.9014   17397359.6044
  19835967.210   -16906644.63349 -13155635.89749  19835965.0794   19835970.4514
  20125144.213    -4642280.36049  -3603623.16749  20125143.0614   20125147.2184
  20193702.080   -15502973.58049 -12065690.22549  20193703.2414   20193707.3254
  18074507.863   -25617421.44849 -19940284.26049  18074507.4934   18074512.1664
  18728203.274   -14159522.04449 -11005201.42249  18728204.3034   18728209.8704
 94 11 19  3 31 29.9870000  0  8 27 19 18 16 29 28 31  2
  17356945.181   -32779279.95749 -25527977.35149  17356942.7904   17356947.3364
  16796973.134   -37762832.85949 -29410432.30349  16796973.1324   16796977.5794
  17404379.087   -29692208.18449 -23101700.51649  17404377.2664   17404382.0894
  19827835.639   -16949381.60149 -13188937.42949  19827832.0644   19827838.8224
  20138225.454    -4573527.40149  -3550049.45049  20138225.9274   20138230.0954
  20199534.382   -15472325.15249 -12041808.35949  20199535.1314   20199539.8424
  18070694.893   -25637478.62749 -19955913.23649  18070691.1494   18070696.0424
  18708286.973   -14264187.21849 -11086758.68649  18708287.3654   18708292.6434
 94 11 19  3 31 59.9870000  0  8 27 19 18 16 29 28 31  2
  17339730.678   -32869760.01149 -25598481.27749  17339725.1164   17339729.7094
  16792116.577   -37788359.86849 -29430323.47949  16792115.5004   16792119.8214
  17411481.189   -29654880.76649 -23072614.23549  17411480.3954   17411485.2524
  19819802.627   -16991565.03649 -13221807.64249  19819804.9684   19819810.7234
  20151341.327    -4504602.15049  -3496341.49249  20151341.6354   20151345.4454
  20205453.528   -15441231.70049 -12017579.71249  20205452.0614   20205457.0344
  18066998.307   -25656912.49849 -19971056.50849  18066992.8974   18066997.4834
  18688426.077   -14368572.01649 -11168097.46949  18688423.6844   18688428.9474
 94 11 19  3 32 29.9870000  0  8 27 19 18 16 29 28 31  2
  17322546.759   -32960056.92649 -25668842.50749  17322542.1074   17322546.6264
  16787311.785   -37813615.55049 -29450003.23349  16787309.4544   16787313.9014
  17418667.677   -29617117.57149 -23043188.38949  17418666.5254   17418671.6074
  19811886.228   -17033181.33749 -13254235.93849  19811885.8144   19811891.6554
  20164489.969    -4435509.32149  -3442502.96449  20164490.1624   20164493.5844
  20211454.894   -15409694.42349 -11993005.23049  20211453.2294   20211457.8064
  18063411.370   -25675723.65749 -19985714.55349  18063413.0264   18063417.9044
  18668619.080   -14472652.32449 -11249198.99649  18668617.9914   18668622.9444
 94 11 19  3 32 59.9870000  0  8 27 19 18 16 29 28 31  2
  17305392.712   -33050170.44049 -25739060.82449  17305393.9994   17305398.4944
  16782557.696   -37838593.52049 -29469466.58549  16782556.1854   16782560.6584
  17425937.523   -29578907.62549 -23013414.42349  17425937.6364   17425942.4344
  19804075.532   -17074226.60249 -13286219.25649  19804075.4064   19804080.7754
  20177668.137    -4366256.38249  -3388539.64549  20177668.2404   20177672.7734
  20217540.121   -15377713.16849 -11968084.79849  20217539.2804   20217543.7574
  18059949.914   -25693916.14849 -19999890.51649  18059951.0584   18059956.1564
  18648870.469   -14576444.12549 -11330075.70749  18648866.3814   18648871.9974
 94 11 19  3 33 29.9870000  0  8 27 19 18 16 29 28 31  2
  17288272.482   -33140089.34849 -25809127.50649  17288283.0824   17288287.5884
  16777857.780   -37863286.79149 -29488708.10049  16777856.9874   16777861.6124
  17433293.346   -29540257.21749 -22983297.23149  17433292.4594   17433297.3024
  19796375.782   -17114692.94449 -13317751.47049  19796374.8874   19796380.9714
  20190878.776    -4296845.19149  -3334453.03549  20190876.9264   20190881.5074
  20223713.681   -15345286.64849 -11942817.40149  20223710.0904   20223714.2814
  18056599.970   -25711476.58049 -20013573.97749  18056609.6114   18056614.1604
  18629168.272   -14679964.39049 -11410740.83749  18629167.2974   18629172.7024
 94 11 19  3 33 59.9870000  0  8 27 19 18 16 29 28 31  2
  17271214.624   -33229804.75749 -25879035.61549  17271210.6804   17271215.2854
  16773210.413   -37887705.29749 -29507735.51449  16773210.1844   16773214.8754
  17440732.751   -29501162.84449 -22952834.10049  17440731.6274   17440736.9864
  19788784.687   -17154586.68049 -13348837.50249  19788782.6354   19788788.7024
  20204116.797    -4227279.54249  -3280246.04249  20204114.9334   20204119.2654
  20229966.732   -15312422.29349 -11917208.83049  20229964.4774   20229968.4114
  18053393.332   -25728410.69149 -20026769.38349  18053387.0994   18053391.5304
  18609517.515   -14783213.46549 -11491194.65349  18609519.9824   18609524.7314
 94 11 19  3 34 29.9870000  0  8 27 19 18 16 29 28 31  2
  17254176.571   -33319312.54549 -25948781.94049  17254177.8714   17254182.5434
  16768615.094   -37911857.20349 -29526555.18549  16768614.3424   16768618.9374
  17448254.570   -29461634.46249 -22922032.78249  17448253.6504   17448258.9624
  19781298.008   -17193924.10349 -13379490.04849  19781297.8314   19781303.8154
  20217383.439    -4157553.73549  -3225914.26249  20217383.4074   20217387.6774
  20236304.785   -15279124.78649 -11891262.72749  20236300.9084   20236304.4934
  18050287.939   -25744721.98149 -20039479.47949  18050283.1824   18050287.3504
  18589924.489   -14886193.78849 -11571439.04649  18589923.0174   18589928.2554
 94 11 19  3 34 59.9870000  0  8 27 19 18 16 29 28 31  2
  17237186.453   -33408607.09049 -26018362.09949  17237185.5344   17237190.2704
  16764068.946   -37935747.33749 -29545170.87949  16764068.3274   16764072.6694
  17455853.792   -29421694.09749 -22890910.43449  17455853.9394   17455859.3574
  19773916.206   -17232721.45949 -13409721.76449  19773914.2024   19773920.4254
  20230683.264    -4087672.26649  -3171461.22849  20230681.2034   20230685.5514
  20242719.795   -15245397.80649 -11864981.97049  20242718.6674   20242722.6094
  18047295.782   -25760407.67349 -20051702.09749  18047298.5284   18047303.2664
  18570375.350   -14988925.16249 -11651489.45049  18570373.8784   18570379.0984
 94 11 19  3 35 29.9870000  0  8 27 19 18 16 29 28 31  2
  17220227.731   -33497701.34649 -26087786.19249  17220231.6734   17220236.2904
  16759574.439   -37959369.33049 -29563577.62849  16759573.4134   16759577.6544
  17463531.194   -29381352.54649 -22859475.48649  17463530.9704   17463536.1454
  19766631.812   -17270973.76349 -13439528.75849  19766634.5924   19766641.6364
  20244009.946    -4017633.13049  -3116885.34049  20244008.9834   20244013.6174
  20249218.731   -15211241.03449 -11838366.30749  20249218.6444   20249222.7494
  18044422.273   -25775466.26049 -20063436.06049  18044433.0994   18044437.3514
  18550880.515   -15091384.93449 -11731328.21849  18550876.3604   18550881.7224
 94 11 19  3 35 59.9870000  0  8 27 19 18 16 29 28 31  2
  17203308.293   -33586615.37449 -26157069.85249  17203311.9124   17203316.5034
  16755131.147   -37982720.47549 -29581773.33049  16755129.9534   16755134.2304
  17471284.820   -29340609.91349 -22827727.99049  17471283.8044   17471289.0684
  19759458.020   -17308690.56549 -13468918.48749  19759457.8564   19759463.6904
  20257367.693    -3947439.56649  -3062189.12949  20257366.5354   20257371.9034
  20255799.992   -15176660.21349 -11811420.21649  20255798.7164   20255802.6524
  18041687.646   -25789912.69249 -20074693.01649  18041683.8724   18041688.1224
  18531430.801   -15193567.19349 -11810950.74449  18531431.9644   18531437.2384
 94 11 19  3 36 29.9870000  0  8 27 19 18 16 29 28 31  2
  17186430.022   -33675356.79649 -26226219.01749  17186424.7424   17186429.5644
  16750737.022   -38005803.50549 -29599760.10649  16750737.3484   16750741.7464
  17479112.747   -29299475.27949 -22795675.03949  17479111.9114   17479116.9644
  19752379.934   -17345879.60449 -13497896.97149  19752380.9964   19752388.0214
  20270753.477    -3877102.67649  -3007381.19449  20270750.8144   20270755.8544
  20262462.977   -15141655.52449 -11784143.82749  20262460.2104   20262464.0314
  18039044.686   -25803752.81949 -20085477.53249  18039050.3264   18039054.7734
  18512040.584   -15295476.27149 -11890360.40549  18512039.1724   18512044.5684
 94 11 19  3 36 59.9870000  0  8 27 19 18 16 29 28 31  2
  17169574.126   -33763931.74849 -26295238.46249  17169569.8244   17169574.4784
  16746393.568   -38028626.69049 -29617544.40849  16746393.9914   16746398.7054
  17487017.594   -29257934.79149 -22763305.84149  17487016.8574   17487021.9734
  19745405.593   -17382538.26049 -13526462.16149  19745404.7174   19745411.9024
  20284158.814    -3806628.50249  -2952466.27749  20284161.3374   20284167.1134
  20269204.441   -15106228.49549 -11756538.35249  20269201.4154   20269205.5554
  18036529.693   -25816981.93349 -20095785.92449  18036532.7394   18036537.5234
  18492702.987   -15397100.19249 -11969547.87049  18492701.0224   18492705.9474
 94 11 19  3 37 29.9870000  0  8 27 19 18 16 29 28 31  2
  17152746.103   -33852328.13049 -26364118.76149  17152748.4294   17152753.2264
  16742102.175   -38051187.63649 -29635124.36749  16742100.8004   16742105.5014
  17495003.195   -29215969.72849 -22730605.81149  17495002.4724   17495007.4094
  19738538.794   -17418651.08849 -13554602.04449  19738532.5594   19738538.9854
  20297602.180    -3736003.68849  -2897433.97449  20297600.5944   20297606.2434
  20276024.993   -15070378.77149 -11728603.51349  20276023.5724   20276027.4454
  18034136.279   -25829596.55249 -20105615.49249  18034132.2314   18034137.1464
  18473420.222   -15498425.91049 -12048502.96549  18473419.3074   18473424.3674
 94 11 19  3 37 59.9870000  0  8 27 19 18 16 29 28 31  2
  17135966.064   -33940523.80049 -26432842.64849  17135965.1974   17135969.9704
  16737855.363   -38073502.67149 -29652512.70649  16737854.4014   16737858.9984
  17503070.428   -29173581.92749 -22697576.37349  17503068.6784   17503073.6114
  19731765.432   -17454216.47749 -13582315.35649  19731764.6344   19731771.8294
  20311071.805    -3665222.36049  -2842279.66449  20311071.0104   20311076.0684
  20282928.414   -15034111.07549 -11700342.96849  20282925.2224   20282929.4574
  18031854.911   -25841588.16449 -20114959.60649  18031850.3644   18031855.0204
  18454197.748   -15599461.55949 -12127232.03749  18454192.7884   18454197.7964
 94 11 19  3 38 29.9860000  0  8 27 19 18 16 29 28 31  2
  17119220.787   -34028499.35549 -26501395.02749  17119224.0574   17119228.8644
  16733653.277   -38095581.05849 -29669716.64449  16733653.1114   16733657.5934
  17511216.042   -29130777.81049 -22664222.53849  17511214.2974   17511219.3084
  19725100.439   -17489232.13849 -13609600.30349  19725101.5154   19725108.2984
  20324568.283    -3594287.20249  -2787005.52149  20324569.4924   20324574.8254
  20289905.573   -14997429.95449 -11671760.26549  20289905.0654   20289909.6294
  18029692.196   -25852948.22549 -20123811.59049  18029688.6194   18029693.8114
  18435028.668   -15700191.99249 -12205723.27349  18435024.5294   18435029.5344
 94 11 19  3 38 59.9860000  0  8 27 19 18 16 29 28 31  2
  17102527.164   -34116259.62749 -26569779.64449  17102523.8494   17102528.6174
  16729498.613   -38117411.94149 -29686727.72249  16729498.9404   16729503.3194
  17519442.464   -29087550.24149 -22630538.73849  17519440.3554   17519445.1484
  19718545.863   -17523694.26049 -13636453.92549  19718544.9364   19718550.1844
  20338099.459    -3523189.21649  -2731604.51349  20338099.1194   20338103.4094
  20296963.387   -14960333.67449 -11642854.08049  20296964.0784   20296968.6894
  18027634.200   -25863678.87349 -20132173.12849  18027646.1944   18027651.0444
  18415917.941   -15800624.93049 -12283982.69449  18415912.8914   18415918.0844
 94 11 19  3 39 29.9860000  0  8 27 19 18 16 29 28 31  2
  17085867.000   -34203808.07349 -26637999.22049  17085863.8444   17085868.5774
  16725393.679   -38138988.54649 -29703540.66149  16725392.9974   16725397.3134
  17527742.179   -29043929.36949 -22596548.46649  17527741.1344   17527746.1264
  19712095.531   -17557611.66649 -13662883.09449  19712089.8704   19712096.2704
  20351656.998    -3451935.56949  -2676082.20349  20351657.6754   20351662.9714
  20304101.019   -14922826.43249 -11613627.66849  20304101.7204   20304106.5724
  18025714.888   -25873796.44849 -20140056.94649  18025721.5254   18025726.0564
  18396848.912   -15900773.97249 -12362020.89849  18396855.1534   18396860.0384
 94 11 19  3 39 59.9860000  0  8 27 19 18 16 29 28 31  2
  17069246.854   -34291153.77549 -26706060.79949  17069242.7434   17069247.3854
  16721338.209   -38160303.24749 -29720149.51949  16721336.9504   16721341.4044
  17536115.411   -28999932.95249 -22562265.57249  17536113.4494   17536118.3544
  19705733.073   -17591005.97949 -13688904.66849  19705734.7634   19705740.7164
  20365247.059    -3380542.45149  -2620451.23849  20365243.8774   20365248.1974
  20311317.950   -14884910.49349 -11584082.78049  20311317.2074   20311321.8274
  18023909.464   -25883304.73549 -20147466.00149  18023911.9634   18023917.0894
  18377854.271   -16000640.60449 -12439839.04049  18377851.0364   18377856.3254
